     2              OBSERVATION DATA    GPS                 RINEX VERSION / TYPE
ASHTORIN MIT 09 - JUN - 97 11:34                            PGM / RUN BY / DATE
                                                            COMMENT
--> THIS IS THE START OF A NEW SITE <---                    COMMENT
--> THIS IS THE START OF A NEW SITE <---                    COMMENT
Original Marker Name: GS28                                  COMMENT
Campaign Name: China Lake May 1997                          COMMENT
4-Character Station Name: GS28                              COMMENT
6-Character Antenna Code: ASHGD3                            COMMENT
Vertical Measurement Point: TGP                             COMMENT
Vertical Offset to Rinex Ref. Point: 0.0640                 COMMENT
Radial Measurement Point: OOH                               COMMENT
Radial Offset to Rinex Ref. Point: 0.1737                   COMMENT
Antenna Height from Field Measurement: 1.0600 m             COMMENT
Additional Antenna Identification Info.:                    COMMENT
The Whopper (700718AB)                                      COMMENT
Original XYZ: -2410768.7400 -4582720.7900 3712578.1800      COMMENT
New XYZ position is based on association with SCEC monument COMMENT
E1F4R2L4+0011. Position of that monument is believed to be  COMMENT
valid to within 1 m horizontally; vertical accuracy         COMMENT
should be no worse than 3-times this value.                 COMMENT
                                                            COMMENT
Revised Rinex header created by UCSD GPS archive for        COMMENT
GSAC on 02-Aug-2000 (2000:215) 16:20:18 GMT                 COMMENT
For assistance contact dagnew@ucsd.edu                      COMMENT
or anderson@python.ucsd.edu                                 COMMENT
                                                            COMMENT
P166 1933                                                   MARKER NAME
gs28                                                        MARKER NUMBER
DRK US DEFENSE MAPPING AGENCY                               OBSERVER / AGENCY
456 ASHTECH Z-XII3 1G001C7                                  REC # / TYPE / VERS
443 ASHTECH GEODETIC III                                    ANT # / TYPE
 -2387948.3555 -4559779.3870  3756657.8940                  APPROX POSITION XYZ
        0.9817        0.0000        0.0000                  ANTENNA: DELTA H/E/N
     1     1     0                                          WAVELENGTH FACT L1/2
     7    L1    L2    C1    P1    P2    D1    D2            # / TYPES OF OBSERV
    30                                                      INTERVAL
  1997     5    22    15    25   30.000000                  TIME OF FIRST OBS
  1997     5    22    21    31   60.000000                  TIME OF LAST OBS
                                                            END OF HEADER
 97  5 22 15 25 30.0000000  0  6 27  2 26 19  7 15                  -0.000948219
      9914.65119      5188.45957  18990543.679           0.0005          0.0005
      -459.793        -358.280
    -24200.86619    -15253.14758  19475032.579           0.0005   19475039.7455
       984.097         766.829
    -39345.94619    -20386.95258  21124373.245           0.0005   21124378.8275
      1822.720        1420.301
     42483.73619     23615.71752  22123009.251           0.0005          0.0005
     -2115.779       -1648.659
    -36737.34219    -17480.06258  19164748.891           0.0005   19164755.9915
      2694.853        2099.885
    -27351.27519    -13361.63852  21996061.957           0.0005          0.0005
      1193.638         930.108
 97  5 22 15 26  0.0000000  0  6 27  2 26 19  7 15                  -0.000968108
     23934.193 9     16537.16255  18993211.389           0.0004          0.0005
      -475.156        -370.251
    -53642.694 9    -38194.84048  19469430.537    19469430.3455   19469437.0694
       978.436         762.418
    -93792.416 9    -62812.79348  21114009.860    21114011.1905   21114018.0204
      1806.721        1407.835
    106029.915 9     73131.93656  22135103.218           0.0004   22135113.4155
     -2120.985       -1652.716
   -117383.160 9    -80320.93948  19149402.355    19149402.6695   19149410.1124
      2681.315        2089.336
    -62898.222 9    -41060.86856  21989299.117           0.0005   21989305.0515
      1175.867         916.260
 97  5 22 15 26 30.0000000  3  2
GS28                                                        MARKER NAME
--> THIS IS THE START OF A NEW SITE <---                    COMMENT
 97  5 22 15 26 30.0000000  0  6 27  2 26 19  7 15                   0.000819006
     38411.039 9     28352.76155  20794722.389           0.0004          0.0005
      -490.587        -382.276
    -82903.507 9    -60995.47648  21262617.101    21262617.0054   21262623.6934
       972.308         757.643
   -147733.380 9   -104844.73948  22902500.656    22902501.3864   22902508.1894
      1789.511        1394.424
    169730.989 9    122769.07346  23945979.628    23945980.4675   23945989.1044
     -2127.202       -1657.560
   -197603.334 9   -142830.14948  20932891.771    20932891.9654   20932899.5144
      2667.147        2078.296
    -97901.888 9    -68336.45946  23781392.530    23781391.1825   23781398.5964
      1157.553         901.989
 97  5 22 15 27  0.0000000  0  6 27  2 26 19  7 15                   0.000799087
     53375.096 9      4764.24958  20797568.867           0.0005   20797576.5035
      -506.665        -394.804
   -111955.074 9    -83633.05658  21257087.308    21257088.7095   21257095.3545
       964.707         751.720
   -201137.184 9   -146458.12258  22892341.142    22892338.9725   22892345.7695
      1770.983        1379.987
    233662.188 9    172585.45156  23958144.756    23958146.9515   23958155.6525
     -2134.572       -1663.303
   -277382.876 9   -204996.01258  20917710.535    20917710.4965   20917718.0495
      2651.606        2066.186
   -132330.445 9    -95163.89957  23774837.058    23774839.5595   23774847.0095
      1137.838         886.627
 97  5 22 15 27 30.0000000  0  6 27  2 26 19  7 15                   0.000779178
     68839.629 9     16814.50348  20800511.815    20800512.1775   20800519.0434
      -523.933        -408.259
   -140763.124 9   -106080.88948  21251605.890    21251606.7154   21251613.3704
       956.318         745.183
   -253957.663 9   -187616.95348  22882288.565    22882287.5734   22882294.3884
      1750.753        1364.223
    297830.905 9    222586.99846  23970356.643    23970358.0844   23970366.5684
     -2142.870       -1669.769
   -356671.898 9   -266779.65148  20902622.014    20902622.4014   20902629.9424
      2634.605        2052.939
   -166142.912 9   -121511.27646  23768403.235    23768405.2054   23768412.7134
      1116.732         870.181
 97  5 22 15 28  0.0000000  0  6 27  2 26 19  7 15                   0.000759321
     84826.867 9     29272.06248  20803554.088    20803554.5674   20803561.3164
      -542.806        -422.966
   -169323.076 9   -128335.39948  21246171.485    21246171.9614   21246178.6124
       946.859         737.812
   -306159.579 9   -228293.79048  22872354.273    22872353.9154   22872360.7554
      1728.519        1346.898
    362252.470 9    272785.51746  23982615.509    23982616.9864   23982625.6414
     -2152.918       -1677.598
   -435438.399 9   -328156.13248  20887633.335    20887633.6874   20887641.2144
      2615.526        2038.072
   -199315.418 9   -147359.97846  23762091.100    23762092.5874   23762100.2304
      1093.817         852.325
 97  5 22 15 28 30.0000000  0  6 27  2 26 19  7 15                   0.000739596
    101429.439 9     42209.10148  20806713.515    20806713.9774   20806720.7474
      -564.032        -439.505
   -197563.743 9   -150341.11648  21240797.597    21240797.9684   21240804.6254
       936.025         729.370
   -357641.194 9   -268409.35048  22862557.429    22862557.2974   22862564.1744
      1703.783        1327.623
    427035.889 9    323265.98646  23994943.653    23994944.8764   23994953.7324
     -2165.677       -1687.541
   -513579.135 9   -389045.00848  20872763.668    20872764.0144   20872771.4984
      2593.985        2021.287
   -231750.488 9   -172634.05046  23755919.207    23755920.4574   23755928.1234
      1068.604         832.678
 97  5 22 15 29  0.0000000  0  6 27  2 26 19  7 15                   0.000719981
    118638.293 9     55618.57548  20809988.315    20809988.7254   20809995.5874
      -583.512        -454.685
   -225521.247 9   -172126.18548  21235477.552    21235477.8414   21235484.5224
       927.579         722.789
   -408432.271 9   -307986.82948  22852891.817    22852892.0544   22852898.9714
      1682.189        1310.797
    492154.514 9    374007.69946  24007335.306    24007336.4224   24007345.3184
     -2175.743       -1695.384
   -591113.399 9   -449461.30048  20858009.428    20858009.7974   20858017.2314
      2574.573        2006.161
   -263471.460 9   -197351.68246  23749883.130    23749884.1144   23749891.8704
      1045.897         814.985
 97  5 22 15 29 30.0000000  0  6 27  2 26 19  7 15                   0.000700446
    136434.060 9     69485.37848  20813374.787    20813375.1684   20813382.1234
      -602.653        -469.600
   -253236.229 9   -193722.28048  21230203.572    21230203.8524   21230210.5764
       920.231         717.063
   -458578.557 9   -347061.88048  22843349.100    22843349.5664   22843356.5004
      1661.139        1294.394
    557573.885 9    424983.77246  24019784.425    24019785.3944   24019794.4154
     -2185.484       -1702.975
   -668056.531 9   -509416.97548  20843367.656    20843368.0574   20843375.4534
      2555.254        1991.107
   -294515.157 9   -221541.58446  23743976.144    23743976.7274   23743984.5374
      1023.885         797.832
 97  5 22 15 30  0.0000000  0  6 27  2 26 19  7 15                   0.000680979
    154788.806 9     83787.75048  20816867.544    20816867.9654   20816874.9564
      -620.642        -483.617
   -280742.920 9   -215156.06648  21224969.286    21224969.5134   21224976.2654
       913.836         712.080
   -508110.579 9   -385658.28048  22833923.516    22833924.0124   22833930.9344
      1641.359        1278.981
    623280.451 9    476183.57646  24032287.950    24032288.7994   24032298.1484
     -2194.646       -1710.114
   -744439.798 9   -568936.38548  20828832.405    20828832.8394   20828840.2644
      2537.444        1977.229
   -324914.618 9   -245229.48346  23738191.611    23738191.8934   23738199.7194
      1003.112         781.646
 97  5 22 15 30 30.0000000  0  6 27  2 26 19  7 15                   0.000661579
    173704.747 9     98527.41748  20820467.256    20820467.6064   20820474.5844
      -640.228        -498.879
   -308036.998 9   -236424.18548  21219775.454    21219775.6504   21219782.4504
       905.686         705.729
   -557027.899 9   -423775.68848  22824614.804    22824615.3284   22824622.3244
      1619.966        1262.311
    689281.250 9    527612.64046  24044847.858    24044848.5674   24044857.8574
     -2205.122       -1718.277
   -820281.542 9   -628033.83648  20814400.181    20814400.6624   20814408.0974
      2518.890        1962.771
   -354672.456 9   -268417.41146  23732528.792    23732529.2334   23732537.0314
       980.895         764.334
 97  5 22 15 31  0.0000000  0  6 27  2 26 19  7 15                   0.000642239
    193192.848 9    113712.91348  20824175.735    20824176.1404   20824183.0594
      -658.393        -513.034
   -335077.759 9   -257494.91348  21214629.918    21214630.0284   21214636.8544
       897.468         699.326
   -605319.387 9   -461405.44148  22815425.040    22815425.7564   22815432.8304
      1599.866        1246.649
    755573.875 9    579269.22046  24057463.303    24057463.7874   24057472.7234
     -2213.978       -1725.178
   -895573.392 9   -686702.80448  20800072.675    20800073.1274   20800080.5314
      2500.885        1948.742
   -383776.019 9   -291095.52446  23726990.454    23726991.0294   23726998.8354
       959.710         747.826
 97  5 22 15 31 30.0000000  0  6 27  2 26 19  7 15                   0.000622956
    213226.973 9    129323.88648  20827988.130    20827988.5534   20827995.4554
      -676.875        -527.435
   -361862.294 9   -278365.97948  21209533.038    21209533.1624   21209539.9914
       888.454         692.302
   -652985.774 9   -498548.09948  22806354.440    22806355.1554   22806362.2354
      1578.264        1229.816
    822145.339 9    631142.96646  24070131.177    24070132.1214   24070141.0254
     -2223.669       -1732.729
   -970317.909 9   -744945.27248  20785849.320    20785849.7584   20785857.1254
      2482.611        1934.502
   -412226.661 9   -313264.84847  23721576.669    23721577.1124   23721584.9224
       937.315         730.375
 97  5 22 15 32  0.0000000  0  6 27  2 26 19  7 15                   0.000603728
    233782.304 9    145340.99748  20831899.572    20831900.1424   20831907.0594
      -693.490        -540.382
   -388397.217 9   -299042.54848  21204483.673    21204483.7914   21204490.6034
       880.511         686.112
   -700033.302 9   -535208.54548  22797401.532    22797402.3314   22797409.3984
      1558.282        1214.246
    888976.463 9    683219.09546  24082849.018    24082849.8594   24082858.6824
     -2231.658       -1738.954
  -1044547.905 9   -802786.81548  20771723.834    20771724.2954   20771731.6224
      2465.889        1921.472
   -440030.230 9   -334929.97047  23716286.018    23716286.3284   23716294.1124
       916.086         713.833
 97  5 22 15 32 30.0000000  0  6 27  2 26 19  7 15                   0.000584547
    254848.141 9    161755.90848  20835908.308    20835908.8664   20835915.8384
      -711.529        -554.438
   -414673.336 9   -319517.45248  21199483.483    21199483.6074   21199490.4304
       870.628         678.411
   -746469.007 9   -571392.23148  22788565.101    22788565.9594   22788573.0484
      1536.836        1197.534
    956058.201 9    735490.48346  24095614.392    24095615.1434   24095624.1374
     -2241.055       -1746.277
  -1118254.755 9   -860220.71448  20757697.897    20757698.3894   20757705.6864
      2447.185        1906.897
   -467173.459 9   -356080.53747  23711120.861    23711121.1504   23711128.9604
       892.793         695.683
 97  5 22 15 33  0.0000000  0  6 27  2 26 19  7 15                   0.000565406
    276419.620 9    178564.82448  20840013.349    20840013.8214   20840020.8354
      -727.697        -567.037
   -440692.426 9   -339792.07448  21194532.172    21194532.3744   21194539.1544
       863.061         672.515
   -792302.995 9   -607107.04748  22779843.286    22779844.1094   22779851.1754
      1517.719        1182.638
   1023379.833 8    787948.85546  24108425.125    24108425.9634   24108434.9234
     -2248.206       -1751.849
  -1191428.511 9   -917239.21648  20743773.370    20743773.9294   20743781.2294
      2429.931        1893.453
   -493652.554 9   -376713.59946  23706082.447    23706082.3534   23706090.2344
       871.436         679.041
 97  5 22 15 33 30.0000000  0  6 27  2 26 19  7 15                   0.000546296
    298491.171 9    195763.39948  20844213.475    20844213.9584   20844220.9824
      -744.183        -579.883
   -466488.916 9   -359893.24148  21189623.241    21189623.4934   21189630.2734
       856.259         667.215
   -837560.037 9   -642372.30748  22771231.222    22771232.0494   22771239.0774
      1499.177        1168.190
   1090930.004 9    840585.23846  24121279.256    24121280.3014   24121289.4074
     -2255.360       -1757.423
  -1264084.523 9   -973854.28148  20729947.477    20729947.9954   20729955.2994
      2413.529        1880.672
   -519484.711 9   -396842.55746  23701166.840    23701166.5714   23701174.5534
       850.456         662.693
 97  5 22 15 34  0.0000000  0  6 27  2 26 19  7 15                   0.000527204
    321080.257 9    213365.25248  20848512.051    20848512.5474   20848519.5894
      -761.534        -593.403
   -492062.776 9   -379820.93148  21184756.675    21184756.9714   21184763.7614
       848.804         661.406
   -882254.047 9   -677198.82948  22762726.313    22762727.1304   22762734.0964
      1480.622        1153.731
   1158704.644 9    893396.62046  24134176.406    24134177.4914   24134186.6174
     -2262.753       -1763.184
  -1336226.514 9  -1030068.81048  20716219.298    20716219.8534   20716227.1384
      2396.128        1867.113
   -544676.755 9   -416472.72846  23696372.837    23696372.6814   23696380.5354
       829.300         646.208
 97  5 22 15 34 30.0000000  0  6 27  2 26 19  7 15                   0.000508111
    344196.230 9    231377.65748  20852910.921    20852911.3854   20852918.4414
      -780.991        -608.564
   -517415.204 9   -399576.08048  21179932.367    21179932.5894   21179939.4054
       840.043         654.579
   -926396.145 9   -711595.29948  22754326.374    22754327.1894   22754334.1334
      1460.714        1138.219
   1226686.941 9    946369.77746  24147113.491    24147114.2604   24147123.3844
     -2270.890       -1769.525
  -1407849.390 9  -1085878.83148  20702589.936    20702590.4874   20702597.7534
      2377.436        1852.548
   -569245.109 9   -435616.90246  23691697.225    23691697.4264   23691705.3144
       807.275         629.045
 97  5 22 15 35  0.0000000  0  6 27  2 26 19  7 15                   0.000489058
    367922.264 9    249865.43748  20857425.896    20857426.3484   20857433.3924
      -800.896        -624.075
   -542485.027 9   -419111.01648  21175161.662    21175161.9484   21175168.8244
       831.071         647.588
   -969916.183 9   -745507.05148  22746044.972    22746045.6614   22746052.5874
      1440.382        1122.376
   1294936.390 9    999551.03446  24160101.142    24160101.5254   24160111.0644
     -2279.352       -1776.118
  -1478886.892 9  -1141232.71848  20689071.909    20689072.4834   20689079.7424
      2358.157        1837.525
   -593137.040 9   -454233.99246  23687150.796    23687150.9334   23687158.7054
       785.323         611.940
 97  5 22 15 35 30.0000000  0  6 27  2 26 19  7 15                   0.000470033
    392234.354 9    268809.88248  20862052.472    20862052.8354   20862059.8674
      -819.683        -638.714
   -567291.449 9   -438440.70748  21170441.251    21170441.4974   21170448.3454
       822.906         641.225
  -1012825.826 9   -778943.16648  22737879.444    22737880.2804   22737887.2174
      1420.384        1106.793
   1363435.936 9   1052927.23746  24173136.334    24173136.6954   24173146.0134
     -2287.019       -1782.093
  -1549356.184 9  -1196143.83948  20675662.032    20675662.6404   20675669.8694
      2340.014        1823.388
   -616378.578 9   -472344.28746  23682727.933    23682728.1534   23682735.9644
       764.257         595.525
 97  5 22 15 36  0.0000000  0  6 27  2 26 19  7 15                   0.000451027
    417084.858 9    288173.87048  20866781.348    20866781.7704   20866788.7604
      -836.326        -651.683
   -591878.113 9   -457599.16148  21165762.582    21165762.8564   21165769.6864
       816.716         636.402
  -1055146.805 9   -811920.58248  22729825.873    22729826.8974   22729833.8584
      1401.600        1092.156
   1432144.585 9   1106466.46746  24186211.313    24186211.8214   24186220.8564
     -2293.020       -1786.769
  -1619296.435 9  -1250642.72748  20662352.932    20662353.4814   20662360.7094
      2323.266        1810.337
   -639007.785 9   -489977.44446  23678421.671    23678421.9554   23678429.7034
       744.831         580.388
 97  5 22 15 36 30.0000000  0  6 27  2 26 19  7 15                   0.000432051
    442448.802 9    307937.94348  20871607.995    20871608.4204   20871615.3724
      -853.690        -665.213
   -616260.343 9   -476598.31448  21161122.917    21161123.1434   21161129.9684
       809.708         630.941
  -1096873.569 9   -844434.96848  22721885.631    22721886.6374   22721893.5464
      1381.017        1076.117
   1501061.126 8   1160167.52946  24199325.696    24199326.1404   24199335.4844
     -2300.625       -1792.695
  -1688714.381 9  -1304734.62148  20649143.205    20649143.7344   20649150.9294
      2305.554        1796.536
   -661031.047 9   -507138.43946  23674231.037    23674231.0364   23674238.7294
       724.125         564.253
 97  5 22 15 37  0.0000000  0  6 27  2 26 19  7 15                   0.000413130
    468313.808 9    328092.45648  20876530.028    20876530.4274   20876537.3644
      -869.673        -677.667
   -640442.203 9   -495441.33848  21156521.294    21156521.5534   21156528.3514
       803.266         625.922
  -1137983.300 9   -876468.55748  22714062.865    22714063.7834   22714070.6944
      1360.504        1060.133
   1570206.878 9   1214047.23746  24212483.454    24212484.2144   24212493.4624
     -2308.195       -1798.594
  -1757613.611 9  -1358422.32348  20636032.176    20636032.6834   20636039.8454
      2288.625        1783.344
   -682433.297 9   -523815.51246  23670158.212    23670158.3704   23670166.1014
       703.534         548.208
 97  5 22 15 37 30.0000000  0  6 27  2 26 19  7 15                   0.000394268
    494648.533 9    348612.98048  20881541.366    20881541.7974   20881548.7294
      -885.990        -690.382
   -664436.628 9   -514138.30948  21151955.398    21151955.6154   21151962.3924
       796.405         620.575
  -1178485.984 9   -908029.12248  22706355.568    22706356.4354   22706363.3654
      1339.816        1044.012
   1639574.718 9   1268100.07546  24225683.937    24225684.5314   24225693.4214
     -2316.288       -1804.900
  -1826025.110 9  -1411729.97548  20623013.886    20623014.4214   20623021.5384
      2272.180        1770.530
   -703221.488 9   -540014.11646  23666202.488    23666202.5604   23666210.2284
       682.287         531.652
 97  5 22 15 38  0.0000000  0  6 27  2 26 19  7 15                   0.000375468
    521461.977 9    369506.53648  20886643.817    20886644.2634   20886651.1854
      -901.638        -702.575
   -688231.404 9   -532679.71148  21147427.415    21147427.6674   21147434.4214
       789.541         615.227
  -1218381.999 9   -939116.95348  22698763.478    22698764.4674   22698771.4394
      1319.842        1028.448
   1709179.496 9   1322337.48946  24238929.363    24238929.9584   24238938.9424
     -2324.097       -1810.985
  -1893955.086 9  -1464662.41348  20610087.232    20610087.8034   20610094.8924
      2256.272        1758.134
   -723378.723 9   -555721.05746  23662366.895    23662366.7754   23662374.3554
       661.319         515.313
 97  5 22 15 38 30.0000000  0  6 27  2 26 19  7 15                   0.000356717
    548723.841 9    390749.51548  20891831.604    20891832.0684   20891838.9934
      -916.318        -714.014
   -711825.702 9   -551064.89548  21142937.600    21142937.8454   21142944.5984
       783.184         610.273
  -1257690.400 9   -969746.90248  22691283.420    22691284.3554   22691291.3294
      1300.603        1013.457
   1779004.725 9   1376746.67746  24252217.043    24252217.4824   24252226.4514
     -2331.052       -1816.404
  -1961425.962 9  -1517237.10948  20597247.968    20597248.5404   20597255.6194
      2241.371        1746.523
   -742916.932 9   -570945.64046  23658648.678    23658648.8174   23658656.3424
       640.938         499.432
 97  5 22 15 39  0.0000000  0  6 27  2 26 19  7 15                   0.000338007
    576449.961 9    412354.24448  20897107.675    20897108.2164   20897115.1734
      -932.370        -726.522
   -735205.715 9   -569283.10848  21138488.582    21138488.8294   21138495.5434
       775.333         604.156
  -1296416.948 9   -999923.46548  22683914.121    22683914.9884   22683921.9294
      1281.138         998.289
   1849052.399 8   1431329.25645  24265546.031    24265546.9094   24265555.9014
     -2338.727       -1822.385
  -2028429.167 9  -1569447.39248  20584497.729    20584498.2544   20584505.3304
      2225.259        1733.968
   -761829.471 9   -585682.67246  23655049.866    23655049.8484   23655057.3414
       619.742         482.916
 97  5 22 15 39 30.0000000  0  6 27  2 26 19  7 15                   0.000319317
    604660.524 9    434336.45348  20902476.130    20902476.5644   20902483.5384
      -948.412        -739.022
   -758356.078 9   -587322.37148  21134083.241    21134083.4854   21134090.1734
       768.117         598.533
  -1334579.370 9  -1029660.44448  22676652.084    22676652.9514   22676659.8704
      1263.053         984.197
   1919313.361 9   1486078.00246  24278916.569    24278917.4944   24278926.4034
     -2345.307       -1827.512
  -2094955.323 9  -1621285.94548  20571838.256    20571838.7824   20571845.8634
      2209.692        1721.838
   -780118.125 9   -599933.58946  23651569.623    23651569.6374   23651577.1864
       599.473         467.122
 97  5 22 15 40  0.0000000  0  6 27  2 26 19  7 15                   0.000300628
    633349.740 9    456691.64248  20907935.580    20907936.0024   20907942.9834
      -964.927        -751.891
   -781296.137 9   -605197.75548  21129717.893    21129718.1524   21129724.8714
       760.616         592.688
  -1372199.181 9  -1058974.61948  22669493.321    22669494.1664   22669501.1414
      1244.285         969.573
   1989760.568 8   1540971.86046  24292322.460    24292323.2634   24292332.2594
     -2351.686       -1832.483
  -2161005.172 9  -1672753.35048  20559269.379    20559269.9244   20559276.9964
      2192.879        1708.737
   -797805.770 9   -613716.17846  23648203.451    23648203.8284   23648211.3684
       579.059         451.215
 97  5 22 15 40 30.0000000  0  6 27  2 26 19  7 15                   0.000281948
    662559.611 9    479452.53948  20913494.148    20913494.5284   20913501.5274
      -982.257        -765.395
   -804004.635 9   -622892.70448  21125396.657    21125396.9054   21125403.6104
       753.719         587.313
  -1409247.181 9  -1087843.21948  22662443.206    22662444.1784   22662451.2164
      1225.944         955.281
   2060403.394 8   1596018.13045  24305765.673    24305766.0344   24305775.2784
     -2357.487       -1837.003
  -2226532.399 9  -1723813.51848  20546799.946    20546800.5294   20546807.6144
      2175.860        1695.475
   -814872.676 9   -627015.07346  23644956.048    23644956.2354   23644963.7384
       559.054         435.626
 97  5 22 15 41  0.0000000  0  6 27  2 26 19  7 15                   0.000263263
    692299.634 9    502626.53748  20919153.468    20919153.9194   20919160.9444
      -999.554        -778.873
   -826505.036 9   -640425.50048  21121114.934    21121115.2134   21121121.9454
       747.133         582.182
  -1445743.998 9  -1116282.32648  22655498.142    22655499.0684   22655506.1434
      1207.699         941.064
   2131217.879 9   1651198.33345  24319241.256    24319241.7514   24319250.4484
     -2362.825       -1841.162
  -2291550.578 9  -1774477.02348  20534427.450    20534427.9624   20534435.0774
      2159.409        1682.656
   -831341.176 9   -639847.68646  23641822.248    23641822.3864   23641829.9064
       539.419         420.326
 97  5 22 15 41 30.0000000  0  6 27  2 26 19  7 15                   0.000244578
    722549.387 9    526197.73548  20924910.028    20924910.3314   20924917.3684
     -1016.618        -792.170
   -848820.071 9   -657813.85448  21116868.567    21116868.8234   21116875.5734
       740.989         577.394
  -1481691.048 9  -1144293.03948  22648657.705    22648658.6534   22648665.6524
      1189.114         926.582
   2202193.204 8   1706503.69246  24332747.430    24332748.0394   24332757.0844
     -2368.549       -1845.623
  -2356076.561 9  -1824756.99648  20522148.555    20522149.1034   20522156.2704
      2142.631        1669.582
   -847220.441 9   -652221.14246  23638800.525    23638800.7404   23638808.1944
       519.543         404.839
 97  5 22 15 42  0.0000000  0  6 27  2 26 19  7 15                   0.000225921
    753319.537 9    550174.42848  20930765.416    20930765.7714   20930772.8504
     -1035.352        -806.768
   -870938.310 9   -675048.86448  21112659.663    21112659.8794   21112666.6414
       732.806         571.018
  -1517054.287 9  -1171848.83948  22641928.323    22641929.3264   22641936.2794
      1167.818         909.988
   2273360.212 9   1761958.35245  24346289.547    24346290.6724   24346299.7504
     -2376.571       -1851.874
  -2420074.354 9  -1874625.40048  20509970.112    20509970.7264   20509977.9144
      2123.251        1654.481
   -862479.674 9   -664111.46646  23635897.048    23635897.0074   23635904.4954
       497.070         387.327
 97  5 22 15 42 30.0000000  0  6 27  2 26 19  7 15                   0.000207310
    784605.591 9    574553.12748  20936718.971    20936719.3714   20936726.5024
     -1050.220        -818.353
   -892846.652 9   -692120.31648  21108490.665    21108490.8624   21108497.6264
       727.751         567.079
  -1551816.765 9  -1198936.51348  22635313.299    22635314.3194   22635321.2334
      1149.678         895.853
   2344738.018 9   1817577.62045  24359872.711    24359873.8244   24359881.8374
     -2381.982       -1856.090
  -2483529.285 9  -1924070.78848  20497895.034    20497895.6534   20497902.8474
      2107.184        1641.962
   -877098.067 9   -675502.44146  23633115.364    23633115.3274   23633122.6814
       477.527         372.099
 97  5 22 15 43  0.0000000  0  6 27  2 26 19  7 15                   0.000188724
    816334.591 9    599276.98048  20942756.799    20942757.2364   20942764.4404
     -1064.148        -829.206
   -914585.625 9   -709059.78948  21104353.745    21104354.0634   21104360.8564
       722.449         562.947
  -1586018.362 9  -1225587.13748  22628805.013    22628806.0024   22628812.8844
      1131.324         881.551
   2416299.930 8   1873339.98946  24373490.211    24373491.4494   24373500.1164
     -2387.954       -1860.743
  -2546490.655 9  -1973131.58648  20485913.807    20485914.4734   20485921.6724
      2090.926        1629.293
   -891116.199 9   -686425.66546  23630448.019    23630447.8074   23630455.1064
       457.776         356.709
 97  5 22 15 43 30.0000000  0  6 27  2 26 19  7 15                   0.000170148
    848473.261 9    624320.05648  20948872.582    20948873.0564   20948880.3044
     -1078.561        -840.437
   -936172.887 9   -725881.05048  21100245.903    21100246.1544   21100252.9324
       716.558         558.357
  -1619679.931 9  -1251816.96848  22622399.405    22622400.4184   22622407.3284
      1112.852         867.157
   2488034.354 9   1929236.82046  24387141.235    24387142.1464   24387150.9994
     -2394.232       -1865.635
  -2608954.268 9  -2021804.51948  20474027.383    20474028.0414   20474035.2284
      2073.326        1615.579
   -904544.152 9   -696889.02846  23627892.966    23627892.5664   23627899.9034
       437.470         340.886
 97  5 22 15 44  0.0000000  0  6 27  2 26 19  7 15                   0.000151595
    881057.506 9    649710.34148  20955073.042    20955073.6214   20955080.9724
     -1093.920        -852.405
   -957560.922 9   -742547.06448  21096175.885    21096176.1774   21096182.9364
       709.106         552.550
  -1652765.664 9  -1277598.09048  22616103.303    22616104.4114   22616111.3384
      1092.837         851.561
   2559967.427 9   1985288.55446  24400829.485    24400830.6004   24400839.3234
     -2401.238       -1871.095
  -2670881.916 9  -2070059.81848  20462242.931    20462243.6064   20462250.7944
      2055.154        1601.419
   -917349.620 9   -706867.32546  23625455.883    23625455.7614   23625463.1274
       416.157         324.278
 97  5 22 15 44 30.0000000  0  6 27  2 26 19  7 15                   0.000133066
    914098.140 9    675456.24848  20961360.467    20961361.0664   20961368.4334
     -1108.892        -864.072
   -978729.400 9   -759041.99548  21092147.671    21092147.9614   21092154.7324
       702.258         547.214
  -1685267.586 9  -1302924.29848  22609918.416    22609919.4984   22609926.4754
      1074.100         836.961
   2632096.304 8   2041492.89245  24414555.297    24414556.1044   24414564.9674
     -2407.118       -1875.676
  -2732279.601 9  -2117902.16048  20450559.354    20450560.0224   20450567.2034
      2038.250        1588.247
   -929530.102 9   -716358.63946  23623137.874    23623137.9174   23623145.2994
       395.932         308.518
 97  5 22 15 45  0.0000000  0  6 27  2 26 19  7 15                   0.000114553
    947617.794 9    701575.42448  20967739.019    20967739.6614   20967747.0564
     -1125.309        -876.864
   -999674.736 9   -775363.04848  21088161.938    21088162.2314   21088168.9784
       694.727         541.346
  -1717194.117 9  -1327802.15348  22603843.205    22603844.1174   22603851.1424
      1054.920         822.016
   2704411.859 9   2097842.56946  24428316.190    24428317.2904   24428326.4104
     -2413.210       -1880.423
  -2793155.816 9  -2165338.15848  20438974.947    20438975.6184   20438982.8314
      2020.695        1574.568
   -941087.389 9   -725364.31246  23620938.534    23620938.5914   23620946.0194
       375.004         292.211
 97  5 22 15 45 30.0000000  0  6 27  2 26 19  7 15                   0.000096065
    981653.740 9    728096.90748  20974215.954    20974216.5194   20974223.9154
     -1143.401        -890.962
  -1020383.336 9   -791499.62748  21084221.307    21084221.5594   21084228.3114
       686.107         534.629
  -1748532.857 9  -1352221.97648  22597879.632    22597880.5884   22597887.6264
      1034.703         806.262
   2776919.532 9   2154342.01046  24442114.452    24442115.1684   24442124.3594
     -2420.352       -1885.989
  -2853497.638 9  -2212357.74848  20427492.268    20427492.9534   20427500.1724
      2002.646        1560.503
   -952004.458 9   -733871.12546  23618860.883    23618861.1514   23618868.5354
       353.101         275.144
 97  5 22 15 46  0.0000000  0  6 27  2 26 19  7 15                   0.000077623
   1016227.853 9    755037.73648  20980795.166    20980795.7704   20980803.1804
     -1161.769        -905.274
  -1040832.839 9   -807434.31948  21080329.984    21080330.2094   21080336.9554
       677.059         527.578
  -1779261.242 9  -1376166.20048  22592032.316    22592033.1954   22592040.2504
      1013.806         789.979
   2849647.708 8   2211013.26645  24455954.027    24455954.8394   24455964.1974
     -2428.248       -1892.141
  -2913313.709 9  -2258967.66248  20416109.714    20416110.3654   20416117.5604
      1984.800        1546.597
   -962265.639 9   -741866.86046  23616908.019    23616908.4904   23616915.9204
       330.777         257.748
 97  5 22 15 46 30.0000000  0  6 27  2 26 19  7 15                   0.000059219
   1051333.722 9    782392.92348  20987475.720    20987476.2244   20987483.6274
     -1178.971        -918.679
  -1061043.202 9   -823182.66248  21076484.080    21076484.3614   21076491.0844
       670.059         522.124
  -1809403.316 9  -1399653.55948  22586296.352    22586297.3924   22586304.4054
       995.240         775.512
   2922585.992 9   2267848.28846  24469833.642    24469834.6104   24469843.7954
     -2434.665       -1897.142
  -2972615.422 9  -2305176.77448  20404824.990    20404825.6314   20404832.8194
      1968.283        1533.727
   -971883.274 9   -749361.13046  23615078.157    23615078.4184   23615085.8404
       310.000         241.558
 97  5 22 15 47  0.0000000  0  6 27  2 26 19  7 15                   0.000040846
   1086953.517 9    810148.57148  20994253.922    20994254.4904   20994261.8874
     -1195.999        -931.947
  -1081045.251 9   -838768.68548  21072677.868    21072678.1514   21072684.8524
       662.934         516.572
  -1838981.005 9  -1422701.13648  22580668.100    22580669.0054   22580675.9794
       976.128         760.619
   2995724.667 9   2324839.42546  24483751.810    24483752.7294   24483762.0244
     -2441.492       -1902.461
  -3031413.678 9  -2350993.58648  20393635.983    20393636.6914   20393643.8984
      1951.099        1520.337
   -980876.454 9   -756368.82746  23613366.745    23613367.0634   23613374.5354
       289.129         225.295
 97  5 22 15 47 30.0000000  0  6 27  2 26 19  7 15                   0.000022493
   1123061.596 9    838284.70148  21001125.101    21001125.6784   21001133.0794
     -1213.707        -945.746
  -1100847.066 9   -854198.68148  21068909.720    21068910.0404   21068916.7314
       654.566         510.051
  -1867999.329 9  -1445312.84748  22575145.990    22575146.9634   22575153.9864
       955.885         744.845
   3069048.729 8   2381974.98746  24497704.993    24497705.8364   24497715.2994
     -2449.148       -1908.427
  -3089719.304 9  -2396426.53148  20382540.830    20382541.4874   20382548.6864
      1933.435        1506.573
   -989263.929 9   -762904.54446  23611770.667    23611771.0204   23611778.5474
       267.481         208.427
 97  5 22 15 48  0.0000000  0  6 27  2 26 19  7 15                   0.000004190
   1159703.341 9    866836.67748  21008097.781    21008098.3904   21008105.7914
     -1229.997        -958.439
  -1120393.305 9   -869429.52648  21065190.214    21065190.5564   21065197.2494
       647.718         504.715
  -1896404.215 9  -1467446.54948  22569740.693    22569741.7134   22569748.7794
       936.870         730.029
   3142593.650 8   2439282.71345  24511699.760    24511700.6914   24511710.4424
     -2454.529       -1912.620
  -3147481.598 9  -2441436.10048  20371549.046    20371549.6684   20371556.8604
      1916.493        1493.371
   -996998.080 9   -768931.15646  23610299.083    23610299.2794   23610306.8394
       247.249         192.662
 97  5 22 15 48 30.0000000  0  6 27  2 26 19  7 15                  -0.000014080
   1196860.273 9    895790.08848  21015168.640    21015169.1564   21015176.5744
     -1248.703        -973.015
  -1139716.204 9   -884486.34048  21061513.222    21061513.5774   21061520.2294
       638.858         497.811
  -1924214.819 9  -1489117.18148  22564448.538    22564449.5794   22564456.6574
       915.441         713.331
   3216312.798 8   2496726.22346  24525728.461    24525729.0774   24525738.8144
     -2461.898       -1918.362
  -3204707.956 9  -2486028.05548  20360659.103    20360659.7694   20360666.9884
      1897.065        1478.232
  -1004100.500 9   -774465.52946  23608947.376    23608947.7664   23608955.3474
       224.545         174.970
 97  5 22 15 48 59.9990000  0  6 27  2 26 19  7 15                  -0.000032280
   1234571.697 9    925175.57348  21022344.950    21022345.4154   21022352.8424
     -1265.504        -986.107
  -1158770.451 9   -899333.82348  21057887.289    21057887.6664   21057894.3444
       631.314         491.933
  -1951377.165 9  -1510282.68348  22559279.774    22559280.8324   22559287.8954
       895.358         697.682
   3290255.487 8   2554343.82846  24539799.557    24539799.9354   24539809.8474
     -2467.781       -1922.946
  -3261356.891 9  -2530170.07948  20349879.108    20349879.8464   20349887.0604
      1879.560        1464.592
  -1010523.696 9   -779470.63446  23607725.080    23607725.4824   23607733.0874
       203.533         158.597
 97  5 22 15 49 29.9990000  0  6 27  2 26 19  7 15                  -0.000050437
   1272807.258 9    954969.47448  21029620.927    21029621.4514   21029628.8664
     -1283.351       -1000.014
  -1177579.549 9   -913990.27948  21054307.946    21054308.4114   21054315.1194
       622.986         485.444
  -1977917.763 9  -1530963.69748  22554229.377    22554230.4254   22554237.4684
       874.291         681.266
   3364397.638 8   2612116.80346  24553907.556    24553908.6904   24553918.6404
     -2474.837       -1928.444
  -3317471.098 9  -2573895.43048  20339200.956    20339201.6784   20339208.9024
      1861.518        1450.534
  -1016292.099 9   -783965.50646  23606627.446    23606627.8084   23606635.4464
       181.156         141.161
 97  5 22 15 49 59.9990000  0  6 27  2 26 19  7 15                  -0.000068504
   1311535.698 9    985147.44148  21036990.687    21036991.2814   21036998.7054
     -1298.390       -1011.732
  -1196182.610 9   -928486.19148  21050767.904    21050768.3824   21050775.1054
       617.264         480.985
  -2003863.035 9  -1551180.82748  22549292.205    22549293.2664   22549300.2934
       855.502         666.625
   3438722.766 8   2670032.44846  24568051.453    24568052.3694   24568062.1114
     -2480.079       -1932.529
  -3373066.609 9  -2617216.60648  20328621.541    20328622.2354   20328629.4544
      1844.954        1437.626
  -1021421.740 9   -787962.63946  23605651.177    23605651.5944   23605659.3284
       160.829         125.321
 97  5 22 15 50 29.9990000  0  7 27  2 26 19  9  7 15               -0.000086515
   1350758.147 9   1015710.34848  21044454.483    21044455.1144   21044462.5284
     -1314.324       -1024.149
  -1214559.410 9   -942805.78948  21047270.944    21047271.3944   21047278.1494
       609.910         475.255
  -2029200.556 9  -1570924.38648  22544470.706    22544471.7304   22544478.7674
       835.831         651.297
   3513270.613 8   2728121.73845  24582237.591    24582238.4234   24582247.8774
     -2487.539       -1938.342
  -2308421.33619  -1766575.40355  25115302.122    25115301.9115   25115309.8275
      4310.340        3358.706
  -3428119.597 9  -2660115.03048  20318145.271    20318146.0024   20318153.2154
      1827.429        1423.971
  -1025892.665 9   -791446.50046  23604800.344    23604800.7764   23604808.6244
       139.399         108.623
 97  5 22 15 50 59.9990000  0  7 27  2 26 19  9  7 15               -0.000104498
   1390457.201 9   1046644.64048  21052008.943    21052009.6424   21052017.0314
     -1331.959       -1037.890
  -1232702.235 9   -956943.07148  21043818.477    21043818.9364   21043825.7084
       599.925         467.474
  -2053947.288 9  -1590207.59348  22539761.489    22539762.5444   22539769.5824
       814.295         634.515
   3588042.587 8   2786385.61245  24596465.723    24596466.7454   24596476.6144
     -2496.594       -1945.398
  -2437657.462 9  -1867278.81246  25090708.970    25090709.1524   25090716.9034
      4305.747        3355.128
  -3482640.834 9  -2702599.10948  20307770.164    20307770.9354   20307778.1474
      1807.498        1408.440
  -1029719.394 9   -794428.39646  23604072.296    23604072.6164   23604080.5204
       116.054          90.432
 97  5 22 15 51 29.9990000  0  7 27  2 26 19  9  7 15               -0.000122451
   1430653.991 9   1077966.77248  21059658.215    21059658.8854   21059666.2784
     -1348.545       -1050.814
  -1250577.705 9   -970872.03248  21040416.900    21040417.3584   21040424.1104
       591.180         460.660
  -2078081.869 9  -1609013.79848  22535168.833    22535169.8874   22535176.8924
       794.189         618.849
   3663043.190 8   2844827.48946  24610737.332    24610738.7254   24610749.0184
     -2503.902       -1951.092
  -2566782.570 9  -1967895.78145  25066137.348    25066137.5494   25066145.2004
      4302.066        3352.259
  -3536592.138 9  -2744639.08548  20297503.609    20297504.3434   20297511.5504
      1788.563        1393.685
  -1032878.836 9   -796890.31946  23603470.906    23603471.4424   23603479.3094
        93.951          73.209
 97  5 22 15 51 59.9990000  0  8 27  2 26 19  4  9  7 15            -0.000140381
   1471363.421 9   1109688.37048  21067404.993    21067405.6424   21067413.0754
     -1365.562       -1064.074
  -1268172.020 9   -984581.90248  21037068.857    21037069.3054   21037076.0554
       581.616         453.207
  -2101607.124 9  -1627345.20148  22530692.241    22530693.2384   22530700.2314
       774.007         603.122
   3738264.646 9   2903441.55546  24625052.241    24625053.1234   24625063.1964
     -2510.989       -1956.615
   -299885.21918   -211142.18355  25045086.313           0.0005          0.0005
      4352.413        3391.491
  -2695784.100 9  -2068416.49445  25041588.917    25041589.4194   25041596.8694
      4298.062        3349.139
  -3589953.686 9  -2786219.50948  20287349.224    20287349.9634   20287357.1504
      1769.012        1378.451
  -1035366.402 9   -798828.70647  23602997.778    23602998.1624   23603006.0204
        71.785          55.936
 97  5 22 15 52 29.9990000  0  8 27  2 26 19  4  9  7 15            -0.000158286
   1512595.165 9   1141816.95748  21075251.207    21075251.8304   21075259.2694
     -1382.700       -1077.428
  -1285477.693 9   -998066.86548  21033775.767    21033776.1894   21033782.9034
       572.796         446.335
  -2124527.792 9  -1645205.49948  22526330.724    22526331.6634   22526338.6284
       754.659         588.046
   3813691.402 8   2962215.62746  24639405.422    24639406.4234   24639416.4174
     -2516.735       -1961.092
   -430496.829 8   -312917.46555  25020231.485           0.0005   25020241.8855
      4355.564        3393.946
  -2824685.399 8  -2168859.07345  25017060.092    25017060.3134   25017067.8384
      4295.840        3347.408
  -3642745.403 9  -2827355.90848  20277303.243    20277304.0444   20277311.2404
      1750.980        1364.400
  -1037192.998 9   -800252.05146  23602650.286    23602650.6154   23602658.4454
        50.594          39.424
 97  5 22 15 52 59.9990000  0  8 27  2 26 19  4  9  7 15            -0.000176159
   1554350.464 9   1174353.50548  21083196.972    21083197.6254   21083205.0834
     -1400.488       -1091.289
  -1302514.710 9  -1011342.48148  21030533.696    21030534.1734   21030540.8684
       563.621         439.185
  -2146858.028 9  -1662605.72548  22522081.506    22522082.4224   22522089.3874
       734.564         572.388
   3889288.038 7   3021122.12345  24653790.546    24653792.0254   24653801.8144
     -2522.450       -1965.545
   -561192.792 8   -414758.38255  24995362.461    24995363.9245   24995374.9055
      4357.929        3395.789
  -2953500.570 8  -2269234.52545  24992547.418    24992547.5084   24992554.9894
      4292.374        3344.707
  -3694989.012 9  -2868065.21148  20267361.723    20267362.4624   20267369.6394
      1732.372        1349.900
  -1038372.848 9   -801171.44346  23602425.667    23602426.0924   23602433.8784
        28.582          22.272
 97  5 22 15 53 29.9990000  0  8 27  2 26 19  4  9  7 15            -0.000193993
   1596621.145 9   1207291.65448  21091240.709    21091241.4784   21091248.9574
     -1417.399       -1104.467
  -1319302.728 9  -1024424.07148  21027339.079    21027339.5584   21027346.2304
       555.815         433.103
  -2168605.730 9  -1679552.02848  22517942.982    22517944.0684   22517950.9714
       715.459         557.500
   3965044.377 8   3080152.87445  24668206.227    24668207.6774   24668217.8964
     -2527.957       -1969.837
   -691979.568 8   -516670.51755  24970475.342    24970473.3825          0.0005
      4361.139        3398.290
  -3082235.090 9  -2369547.13845  24968049.481    24968049.9164   24968057.6664
      4290.188        3343.004
  -3746700.729 9  -2908360.05348  20257521.391    20257522.0934   20257529.2564
      1715.318        1336.611
  -1038912.040 9   -801591.62146  23602323.328    23602323.4384   23602331.2424
         7.490           5.836
 97  5 22 15 53 59.9990000  0  8 27  2 26 19  4  9  7 15            -0.000211776
   1639395.157 9   1240622.00948  21099380.413    21099381.1644   21099388.6104
     -1435.367       -1118.468
  -1335858.895 9  -1037324.99548  21024188.544    21024189.0444   21024195.7224
       546.718         426.014
  -2189773.439 9  -1696046.38248  22513915.029    22513916.0724   22513922.9404
       694.345         541.048
   4040974.255 8   3139318.93846  24682655.939    24682656.9844   24682666.7844
     -2535.493       -1975.709
   -822846.373 8   -618644.56855  24945570.795    24945572.1174   24945583.0125
      4361.849        3398.843
  -3210903.112 9  -2469807.93645  24943564.886    24943565.3364   24943572.7924
      4286.515        3340.142
  -3797906.934 9  -2948260.98348  20247777.266    20247777.8904   20247785.0714
      1697.218        1322.508
  -1038816.943 9   -801517.54446  23602341.121    23602341.5614   23602349.4054
       -15.164         -11.816
 97  5 22 15 54 29.9990000  0  8 27  2 26 19  4  9  7 15            -0.000229481
   1682681.452 9   1274351.54048  21107617.539    21107618.3154   21107625.7774
     -1451.642       -1131.150
  -1352169.664 9  -1050034.70148  21021084.757    21021085.2194   21021091.9074
       539.381         420.297
  -2210326.232 9  -1712061.58148  22510003.975    22510005.0194   22510011.9054
       674.667         525.715
   4117107.092 8   3198643.18145  24697143.892    24697144.7344   24697154.3794
     -2541.290       -1980.226
   -953746.856 8   -720644.77045  24920661.449    24920662.9134   24920673.1134
      4363.429        3400.075
  -3339488.357 8  -2570004.22345  24919096.222    24919096.3574   24919103.8124
      4284.439        3338.524
  -3848594.415 9  -2987757.71848  20238131.669    20238132.3934   20238139.5964
      1680.397        1309.400
  -1038065.130 9   -800931.74547  23602484.156    23602484.6224   23602492.4634
       -36.302         -28.287
 97  5 22 15 54 59.9990000  0  8 27  2 26 19  4  9  7 15            -0.000247140
   1726434.129 9   1308444.48448  21115943.481    21115944.2354   21115951.6754
     -1465.881       -1142.245
  -1368269.640 9  -1062580.15048  21018021.067    21018021.5164   21018028.2014
       533.365         415.609
  -2230298.146 9  -1727624.15948  22506203.403    22506204.4724   22506211.4384
       656.248         511.362
   4193411.664 7   3258101.26645  24711664.393    24711664.6894   24711674.3094
     -2546.302       -1984.131
  -1084695.722 7   -822682.92445  24895741.857    24895743.6624   24895755.0394
      4365.854        3401.964
  -3468009.136 8  -2670150.24645  24894638.616    24894639.4874   24894647.0454
      4283.098        3337.479
  -3898778.952 9  -3026862.54748  20228581.843    20228582.5844   20228589.8074
      1664.529        1297.035
  -1036685.980 9   -799857.09646  23602746.432    23602747.1254   23602754.9064
       -56.234         -43.819
 97  5 22 15 55 29.9990000  0  8 27  2 26 19  4  9  7 15            -0.000264751
   1770654.280 9   1342901.70148  21124358.309    21124359.1094   21124366.5064
     -1481.711       -1154.580
  -1384151.428 9  -1074955.59148  21014998.816    21014999.3134   21015006.0204
       526.019         409.885
  -2249677.999 9  -1742725.37548  22502515.508    22502516.6314   22502523.6274
       636.325         495.838
   4269909.706 7   3317710.02745  24726220.974    24726221.5464   24726231.7584
     -2553.000       -1989.351
  -1215668.284 8   -924739.47155  24870818.125    24870820.1584   24870831.5255
      4366.210        3402.242
  -3596456.278 8  -2770238.95045  24870196.317    24870196.8484   24870204.3934
      4280.528        3335.476
  -3948443.603 9  -3065562.27748  20219130.916    20219131.7094   20219138.9014
      1646.930        1283.322
  -1034668.363 9   -798284.95446  23603130.839    23603131.0904   23603138.8534
       -77.728         -60.567
 97  5 22 15 55 59.9990000  0  8 27  2 26 19  4  9  7 15            -0.000282314
   1815354.806 9   1377733.24748  21132864.704    21132865.4304   21132872.7714
     -1498.630       -1167.764
  -1399810.956 9  -1087157.83548  21012018.981    21012019.4394   21012026.1354
       517.516         403.259
  -2268460.481 9  -1757361.11148  22498941.440    22498942.4244   22498949.4394
       615.515         479.622
   4346602.224 8   3377470.25245  24740815.420    24740815.9204   24740826.1104
     -2559.902       -1994.729
  -1346653.099 8  -1026805.51745  24845893.623    24845894.7284   24845905.5254
      4365.760        3401.891
  -3724813.945 9  -2870257.91345  24845770.692    24845771.1364   24845778.8354
      4276.370        3332.236
  -3997566.127 9  -3103839.56448  20209783.219    20209783.9994   20209791.2154
      1627.555        1268.225
  -1032007.981 9   -796211.95346  23603636.958    23603637.3964   23603645.0884
       -99.916         -77.857
 97  5 22 15 56 29.9990000  0  8 27  2 26 19  4  9  7 15            -0.000299836
   1860554.397 9   1412953.67848  21141465.948    21141466.6804   21141474.0044
     -1515.258       -1180.721
  -1415220.998 9  -1099165.67248  21009086.616    21009087.0594   21009093.7384
       509.235         396.806
  -2286629.944 9  -1771519.16448  22495483.852    22495484.9544   22495491.9674
       595.353         463.911
   4423478.984 8   3437374.12045  24755444.259    24755445.5464   24755455.2354
     -2565.666       -1999.220
  -1477645.035 8  -1128877.21745  24820966.381    24820967.7934   24820978.2954
      4366.509        3402.475
  -3853055.149 8  -2970186.12746  24821367.589    24821367.6634   24821375.3854
      4272.453        3329.184
  -4046114.091 9  -3141669.14348  20200544.792    20200545.6394   20200552.8564
      1608.407        1253.304
  -1028699.135 9   -793633.64547  23604266.545    23604267.1724   23604274.7784
      -121.222         -94.459
 97  5 22 15 56 59.9990000  0  8 27  2 26 19  4  9  7 15            -0.000317315
   1906258.371 9   1448567.11248  21150163.246    21150163.9094   21150171.2104
     -1530.557       -1192.642
  -1430376.811 9  -1110975.41348  21006202.575    21006203.0404   21006209.7214
       502.338         391.432
  -2304185.476 9  -1785198.84048  22492143.262    22492144.3144   22492151.3004
       576.264         449.037
   4500540.191 8   3497421.84145  24770109.025    24770110.1664   24770119.1184
     -2570.423       -2002.927
  -1608658.438 8  -1230965.52945  24796035.410    24796036.7154   24796047.0454
      4368.843        3404.293
  -3981169.036 8  -3070015.11546  24796988.859    24796988.5244   24796996.2064
      4269.786        3327.106
  -4094082.089 9  -3179046.80148  20191416.934    20191417.6424   20191424.8174
      1590.736        1239.534
  -1024744.718 9   -790552.30747  23605019.323    23605019.7134   23605027.3094
      -141.198        -110.024
 97  5 22 15 57 29.9990000  0  8 27  2 26 19  4  9  7 15            -0.000334764
   1952443.978 9   1484555.87348  21158952.131    21158952.8074   21158960.0884
     -1548.058       -1206.279
  -1445309.248 9  -1122611.08748  21003361.032    21003361.5034   21003368.2164
       493.617         384.637
  -2321152.040 9  -1798419.57648  22488914.781    22488915.7564   22488922.7374
       555.272         432.679
   4577755.269 8   3557589.60345  24784802.281    24784803.7534   24784811.7864
     -2576.859       -2007.942
  -1739728.157 8  -1333097.77245  24771093.967    24771095.3944   24771105.4344
      4369.766        3405.012
  -4109191.610 8  -3169772.93746  24772626.675    24772626.6784   24772634.1984
      4265.613        3323.854
  -4141506.720 9  -3216001.05848  20182392.255    20182393.0494   20182400.2264
      1571.517        1224.559
  -1020178.065 9   -786993.88947  23605888.429    23605888.7764   23605896.3504
      -162.738        -126.809
 97  5 22 15 57 59.9990000  0  8 27  2 26 19  4  9  7 15            -0.000352166
   1999128.279 9   1520933.20848  21167835.985    21167836.6114   21167843.8604
     -1564.826       -1219.345
  -1459998.319 9  -1134057.12848  21000565.790    21000566.2854   21000573.0144
       484.883         377.831
  -2337509.875 9  -1811165.97348  22485801.987    22485803.0074   22485810.0264
       534.558         416.539
   4655131.537 8   3617882.75545  24799526.957    24799528.0714   24799536.7094
     -2582.348       -2012.219
  -1870865.283 8  -1435282.49645  24746139.738    24746140.9664   24746151.0414
      4371.959        3406.721
  -4237119.159 9  -3269456.69446  24748282.779    24748282.8114   24748290.4554
      4262.209        3321.202
  -4188389.742 9  -3252533.28248  20173470.801    20173471.5374   20173478.6784
      1553.464        1210.491
  -1014995.963 9   -782955.90247  23606874.570    23606874.9124   23606882.4814
      -183.557        -143.031
 97  5 22 15 58 29.9990000  0  8 27  2 26 19  4  9  7 15            -0.000369505
   2046317.059 9   1557703.61148  21176815.795    21176816.3694   21176823.6324
     -1581.728       -1232.515
  -1474428.191 9  -1145301.19548  20997819.883    20997820.3974   20997827.1054
       476.626         371.397
  -2353249.161 9  -1823430.39348  22482806.926    22482807.9664   22482815.0084
       514.329         400.776
   4732677.543 8   3678308.10845  24814283.725    24814284.6584   24814293.4814
     -2588.185       -2016.768
  -2002063.873 8  -1537515.15645  24721173.614    24721174.8844   24721184.8844
      4373.907        3408.239
  -4364949.781 8  -3369064.95946  24723957.473    24723957.4624   24723965.2464
      4259.246        3318.893
  -4234745.404 9  -3288654.57848  20164649.598    20164650.3414   20164657.4654
      1536.268        1197.092
  -1009184.742 9   -778427.68947  23607980.296    23607980.7774   23607988.3464
      -204.551        -159.390
 97  5 22 15 58 59.9990000  0  8 27  2 26 19  4  9  7 15            -0.000386768
   2094023.987 9   1594877.81348  21185894.022    21185894.7014   21185902.0224
     -1597.933       -1245.143
  -1488604.642 9  -1156347.79648  20995122.274    20995122.7234   20995129.4204
       469.289         365.680
  -2368382.240 9  -1835222.44548  22479927.190    22479928.2004   22479935.3254
       495.509         386.111
   4810420.635 8   3738887.01645  24829077.522    24829078.7424   24829087.7954
     -2593.807       -2021.148
  -2133303.211 8  -1639779.61245  24696199.240    24696200.5574   24696210.7814
      4376.190        3410.018
  -4492693.349 8  -3468605.40946  24699648.789    24699648.6634   24699656.6044
      4257.820        3317.782
  -4280581.536 9  -3324371.04648  20155927.279    20155928.0294   20155935.1564
      1520.119        1184.508
  -1002730.419 9   -773398.36247  23609208.480    23609209.0774   23609216.5484
      -224.927        -175.268
 97  5 22 15 59 29.9990000  0  8 27  2 26 19  4  9  7 15            -0.000403978
   2142224.811 9   1632436.88648  21195066.258    21195067.0174   21195074.3904
     -1614.828       -1258.308
  -1502555.593 9  -1167218.68248  20992467.508    20992467.9724   20992474.6764
       461.384         359.520
  -2382950.365 9  -1846574.27548  22477154.864    22477155.9964   22477163.1564
       476.324         371.161
   4888336.884 8   3799600.88645  24843904.848    24843905.8574   24843914.8494
     -2600.013       -2025.984
  -2264607.499 8  -1742094.57546  24671213.594    24671214.3764   24671224.4574
      4377.971        3411.406
  -4620393.188 9  -3568111.74946  24675347.730    24675348.1754   24675356.2964
      4256.026        3316.384
  -4325922.503 9  -3359701.67148  20147299.208    20147299.9184   20147307.0564
      1503.169        1171.301
   -995659.282 9   -767888.41046  23610554.151    23610554.6794   23610562.2454
      -245.919        -191.625
 97  5 22 15 59 59.9990000  0  8 27  2 26 19  4  9  7 15            -0.000421140
   2190913.448 9   1670376.04248  21204331.468    21204332.1234   21204339.5564
     -1631.231       -1271.089
  -1516276.963 9  -1177910.67348  20989856.449    20989856.9184   20989863.6394
       453.273         353.200
  -2396961.769 9  -1857492.30248  22474488.639    22474489.7334   22474496.8914
       457.750         356.688
   4966429.243 8   3860452.00345  24858764.889    24858766.1814   24858775.3894
     -2606.251       -2030.845
  -2395968.085 8  -1844453.52046  24646216.742    24646217.3984   24646227.2864
      4378.956        3412.174
  -4748041.950 8  -3667578.30846  24651056.997    24651057.3584   24651065.5854
      4253.721        3314.588
  -4370767.213 9  -3394645.60148  20138765.544    20138766.2824   20138773.3924
      1486.165        1158.051
   -987967.417 9   -761894.76446  23612018.065    23612018.3634   23612025.9954
      -267.100        -208.130
 97  5 22 16  0 29.9990000  0  8 27  2 26 19  4  9  7 15            -0.000438263
   2240089.287 9   1708694.83848  21213689.358    21213690.0044   21213697.4444
     -1647.786       -1283.989
  -1529770.518 9  -1188425.14148  20987288.678    20987289.1754   20987295.9224
       445.655         347.264
  -2410426.029 9  -1867983.97848  22471926.558    22471927.5494   22471934.7594
       439.129         342.178
   5044708.609 8   3921448.94745  24873661.012    24873662.1704   24873671.4264
     -2612.965       -2036.077
  -2527352.450 8  -1946830.95746  24621214.861    24621215.8634   24621225.6374
      4379.248        3412.401
  -4875630.401 8  -3766997.84146  24626778.105    24626778.0114   24626786.3764
      4251.429        3312.802
  -4415099.717 9  -3429190.40648  20130329.330    20130330.1094   20130337.2034
      1468.511        1144.294
   -979643.738 9   -755408.79446  23613602.085    23613602.3564   23613609.8414
      -288.468        -224.780
 97  5 22 16  0 59.9990000  0  8 27  2 26 19  4  9  7 15            -0.000455349
   2289749.442 9   1747391.02948  21223139.527    21223140.0394   21223147.5284
     -1662.980       -1295.829
  -1543038.380 9  -1198763.74248  20984763.932    20984764.3964   20984771.1564
       438.737         341.873
  -2423332.036 9  -1878040.64648  22469470.595    22469471.6394   22469478.8044
       421.053         328.093
   5123181.941 8   3982597.00545  24888594.109    24888595.1184   24888604.7094
     -2618.545       -2040.425
  -2658752.839 9  -2049220.77946  24596210.261    24596211.0644   24596220.8594
      4380.624        3413.473
  -5003141.458 9  -3866357.07246  24602513.285    24602513.4114   24602521.8624
      4249.135        3311.014
  -4458899.932 9  -3463320.44048  20121994.399    20121995.1824   20122002.2774
      1451.240        1130.836
   -970684.659 9   -748427.70446  23615306.807    23615307.2264   23615314.6524
      -308.939        -240.732
 97  5 22 16  1 29.9990000  0  8 27  2 26 19  4  9  7 15            -0.000472419
   2339852.325 9   1786432.19148  21232673.627    21232674.2934   21232681.8684
     -1677.155       -1306.874
  -1556108.370 9  -1208948.16448  20982276.802    20982277.2724   20982284.0314
       432.679         337.152
  -2435693.808 9  -1887673.23548  22467118.169    22467119.3364   22467126.4064
       403.046         314.062
   5201804.181 8   4043860.92445  24903555.397    24903556.4934   24903566.5424
     -2622.809       -2043.747
  -2790200.216 9  -2151647.38946  24571196.438    24571197.6904   24571207.4304
      4382.372        3414.835
  -5130581.770 9  -3965661.18146  24578261.874    24578262.3594   24578270.7914
      4246.737        3309.146
  -4502188.260 9  -3497051.60748  20113756.880    20113757.7044   20113764.7924
      1434.811        1118.034
   -961121.508 9   -740975.91546  23617126.700    23617127.0124   23617134.4024
      -328.561        -256.022
 97  5 22 16  1 59.9990000  0  8 27  2 26 19  4  9  7 15            -0.000489454
   2390400.650 9   1825820.45048  21242292.752    21242293.2984   21242300.9364
     -1692.495       -1318.827
  -1568966.664 9  -1218967.62748  20979829.885    20979830.4244   20979837.1984
       424.917         331.104
  -2447488.079 9  -1896863.61048  22464873.807    22464874.9804   22464882.0164
       383.543         298.865
   5280574.542 8   4105240.30045  24918545.047    24918545.9524   24918556.0134
     -2628.096       -2047.867
  -2921664.507 8  -2254087.02446  24546179.896    24546180.8894   24546190.4854
      4382.274        3414.759
  -5257912.138 9  -4064879.62646  24554031.560    24554032.1504   24554040.6414
      4242.289        3305.680
  -4544964.857 9  -3530384.01048  20105616.766    20105617.5884   20105624.6774
      1417.149        1104.272
   -950943.507 9   -733045.01546  23619063.436    23619063.8434   23619071.1434
      -349.630        -272.439
 97  5 22 16  2 29.9990000  0  8 27  2 26 19  4  9  7 15            -0.000506452
   2441395.232 9   1865556.44448  21251996.562    21251997.2284   21252004.9324
     -1706.737       -1329.925
  -1581616.367 9  -1228824.54848  20977422.650    20977423.2384   20977430.0354
       418.668         326.235
  -2458705.774 9  -1905604.71348  22462739.131    22462740.3344   22462747.3474
       364.642         284.137
   5359483.212 8   4166727.45845  24933560.569    24933561.7634   24933571.8954
     -2631.868       -2050.806
  -3053145.570 9  -2356539.80846  24521159.649    24521161.0204   24521170.4724
      4383.530        3415.738
  -5385124.565 9  -4164006.17746  24529823.879    24529824.4474   24529832.8084
      4238.887        3303.029
  -4587224.359 9  -3563313.49348  20097574.996    20097575.8624   20097582.9314
      1400.348        1091.180
   -940151.809 9   -724635.92546  23621116.934    23621117.4064   23621124.7264
      -369.478        -287.905
 97  5 22 16  2 59.9990000  0  7 27  2 26  4  9  7 15               -0.000523423
   2492826.706 9   1905632.86748  21261783.599    21261784.3184   21261792.0324
     -1721.823       -1341.680
  -1594057.085 9  -1238518.62448  20975055.202    20975055.8184   20975062.6564
       410.882         320.168
  -2469348.787 9  -1913898.00848  22460713.748    22460715.0644   22460722.1084
       345.282         269.051
  -3184646.074 9  -2459007.68046  24496135.992    24496137.3394   24496146.7904
      4383.438        3415.666
  -5512217.501 9  -4263039.58746  24505639.114    24505639.3574   24505647.7404
      4234.338        3299.484
  -4628959.940 9  -3595834.72148  20089632.918    20089633.8064   20089640.8684
      1382.213        1077.049
   -928753.917 9   -715754.44646  23623285.940    23623286.3924   23623293.6174
      -390.183        -304.039
 97  5 22 16  3 29.9990000  0  7 27  2 26  4  9  7 15               -0.000540367
   2544713.895 9   1946064.39748  21271657.352    21271658.1394   21271665.8814
     -1736.289       -1352.952
  -1606255.319 9  -1248023.75848  20972733.953    20972734.5734   20972741.4034
       403.235         314.209
  -2479408.777 9  -1921737.00548  22458799.333    22458800.7094   22458807.8144
       326.446         254.374
  -3316135.634 8  -2561467.05645  24471114.110    24471115.6374   24471125.2164
      4383.654        3415.834
  -5639173.353 9  -4361966.20846  24481480.139    24481480.4034   24481488.8124
      4230.414        3296.426
  -4670146.406 9  -3627928.07048  20081795.367    20081796.2754   20081803.3334
      1364.606        1063.329
   -916730.652 9   -706385.68946  23625573.904    23625574.3094   23625581.5224
      -410.366        -319.766
 97  5 22 16  3 59.9990000  0  7 27  2 26  4  9  7 15               -0.000557294
   2597027.698 9   1986828.35548  21281612.460    21281613.1764   21281620.8924
     -1751.060       -1364.462
  -1618221.715 9  -1257348.23148  20970456.837    20970457.4634   20970464.2784
       394.830         307.660
  -2488918.851 9  -1929147.49048  22456989.705    22456991.0444   22456998.1764
       307.970         239.977
  -3447647.163 8  -2663943.56145  24446088.264    24446089.8134   24446099.1924
      4384.311        3416.346
  -5766025.980 9  -4460812.36546  24457340.154    24457341.2534   24457349.4694
      4226.872        3293.666
  -4710808.206 9  -3659612.58348  20074057.713    20074058.5844   20074065.6164
      1346.464        1049.193
   -904107.402 9   -696549.41646  23627975.980    23627976.4254   23627983.6274
      -430.851        -335.728
 97  5 22 16  4 29.9990000  0  7 27  2 26  4  9  7 15               -0.000574225
   2649793.991 9   2027944.89848  21291653.677    21291654.3024   21291662.0264
     -1766.018       -1376.118
  -1629934.877 9  -1266475.38348  20968227.924    20968228.5404   20968235.3224
       386.548         301.206
  -2497869.957 9  -1936122.42048  22455286.489    22455287.7284   22455294.9174
       289.425         225.526
  -3579177.357 9  -2766434.51046  24421059.068    24421060.3194   24421069.8044
      4385.001        3416.884
  -5892776.003 9  -4559578.60546  24433220.716    24433221.6004   24433229.6664
      4223.734        3291.221
  -4750917.906 9  -3690866.89648  20066425.009    20066425.9504   20066432.9794
      1328.297        1035.037
   -890867.590 9   -686232.69446  23630495.195    23630495.8724   23630503.0194
      -451.210        -351.592
 97  5 22 16  4 59.9990000  0  7 27  2 26  4  9  7 15               -0.000591138
   2703021.848 9   2069421.09748  21301782.537    21301783.2614   21301791.0104
     -1782.746       -1389.153
  -1641377.717 9  -1275391.89048  20966050.492    20966051.0484   20966057.8074
       376.143         293.098
  -2506260.931 9  -1942660.87748  22453689.734    22453691.0174   22453698.2114
       269.753         210.197
  -3710715.846 8  -2868932.06345  24396027.629    24396029.3834   24396038.8554
      4384.082        3416.168
  -6019421.833 9  -4658263.62746  24409121.084    24409121.7064   24409129.7684
      4218.913        3287.465
  -4790483.526 9  -3721697.24348  20058895.979    20058896.8884   20058903.9324
      1309.334        1020.260
   -877007.736 9   -675432.83446  23633133.009    23633133.2794   23633140.6014
      -473.046        -368.607
 97  5 22 16  5 29.9990000  0  7 27  2 26  4  9  7 15               -0.000608009
   2756702.025 9   2111249.75048  21311997.528    21311998.2964   21312006.0344
     -1796.903       -1400.184
  -1652562.501 9  -1284107.31748  20963922.147    20963922.6894   20963929.4384
       368.664         287.271
  -2514105.599 9  -1948773.64448  22452197.122    22452198.3044   22452205.4484
       252.207         196.525
  -3842285.837 8  -2971454.05245  24370990.584    24370992.1034   24371001.6244
      4386.325        3417.916
  -6145976.082 9  -4756877.31046  24385038.270    24385039.2154   24385047.2584
      4216.977        3285.956
  -4829541.489 9  -3752132.01748  20051463.445    20051464.3824   20051471.4584
      1293.734        1008.104
   -862546.196 9   -664164.12346  23635884.809    23635885.2094   23635892.5564
      -492.069        -383.430
 97  5 22 16  5 59.9990000  0  7 27  2 26  4  9  7 15               -0.000624843
   2810844.852 9   2153438.91648  21322300.601    21322301.3824   21322309.0864
     -1813.459       -1413.085
  -1663498.885 9  -1292629.18348  20961841.018    20961841.5964   20961848.3414
       359.812         280.373
  -2521388.109 9  -1954448.35948  22450811.297    22450812.5524   22450819.6644
       232.499         181.168
  -3973884.581 8  -3073998.55646  24345948.186    24345949.8874   24345959.3694
      4386.016        3417.675
  -6272433.475 9  -4855415.53346  24360974.068    24360975.1984   24360983.1424
      4212.690        3282.616
  -4868108.222 9  -3782184.01148  20044124.447    20044125.3704   20044132.4754
      1276.545         994.710
   -847483.582 9   -652427.04646  23638750.765    23638751.4664   23638758.9394
      -512.994        -399.736
 97  5 22 16  6 29.9990000  0  7 27  2 26  4  9  7 15               -0.000641624
   2865461.233 9   2195997.07548  21332693.822    21332694.5874   21332702.3254
     -1827.835       -1424.287
  -1674204.390 9  -1300971.14548  20959803.839    20959804.4184   20959811.1664
       353.513         275.465
  -2528097.092 9  -1959676.17748  22449534.697    22449535.8884   22449542.9954
       214.345         167.022
  -4105486.084 8  -3176545.10145  24320905.636    24320906.9344   24320916.2414
      4386.896        3418.361
  -6398777.911 9  -4953865.70946  24336931.851    24336932.5964   24336940.5724
      4209.760        3280.332
  -4906184.416 9  -3811853.76848  20036878.815    20036879.7574   20036886.8704
      1261.532         983.012
   -831816.399 9   -640218.87346  23641732.165    23641732.8144   23641740.3834
      -531.879        -414.451
 97  5 22 16  6 59.9990000  0  7 27  2 26  4  9  7 15               -0.000658352
   2920532.076 9   2238909.35748  21343173.583    21343174.2654   21343182.0194
     -1843.497       -1436.491
  -1684693.237 9  -1309144.28948  20957807.937    20957808.4854   20957815.2574
       345.836         269.483
  -2534232.183 9  -1964456.80548  22448367.217    22448368.4654   22448375.6304
       194.754         151.756
  -4237081.646 8  -3279086.90845  24295864.156    24295865.0274   24295874.3614
      4386.135        3417.768
  -6524994.452 9  -5052216.23846  24312913.860    24312914.2574   24312922.4034
      4204.559        3276.280
  -4943776.088 9  -3841145.98148  20029725.404    20029726.3284   20029733.4514
      1244.536         969.768
   -815553.458 9   -627546.48146  23644826.911    23644827.4944   23644835.1714
      -552.353        -430.405
 97  5 22 16  7 29.9990000  0  7 27  2 26  4  9  7 15               -0.000675021
   2976068.914 9   2282184.76048  21353741.941    21353742.6584   21353750.3834
     -1859.915       -1449.284
  -1694959.067 9  -1317143.64448  20955854.415    20955854.9964   20955861.7474
       337.586         263.054
  -2539776.107 9  -1968776.77848  22447312.323    22447313.5524   22447320.6394
       173.971         135.562
  -4368657.058 8  -3381613.33945  24270826.352    24270827.3254   24270836.5054
      4384.600        3416.571
  -6651055.714 9  -5150445.76046  24288925.305    24288925.4524   24288933.7794
      4198.578        3271.619
  -4980853.422 9  -3870037.40548  20022669.796    20022670.7774   20022677.9004
      1226.346         955.594
   -798674.188 9   -614393.80646  23648038.631    23648039.5244   23648047.1034
      -573.850        -447.156
 97  5 22 16  7 59.9990000  0  7 27  2 26  4  9  7 15               -0.000691623
   3032091.717 9   2325838.84348  21364402.885    21364403.5584   21364411.2674
     -1875.548       -1461.466
  -1704987.269 9  -1324957.84048  20953946.188    20953946.7404   20953953.4384
       330.234         257.325
  -2544713.513 9  -1972624.14148  22446372.886    22446374.0374   22446381.0574
       154.688         120.536
  -4500191.787 8  -3484107.78845  24245795.491    24245796.8654   24245806.0594
      4383.827        3415.969
  -6776946.185 9  -5248542.20746  24264968.498    24264969.2664   24264977.5834
      4193.587        3267.730
  -5017389.640 9  -3898507.17848  20015717.228    20015718.1474   20015725.2854
      1208.651         941.806
   -781160.380 9   -600746.72046  23651371.487    23651372.2604   23651379.9634
      -594.313        -463.101
 97  5 22 16  8 29.9990000  0  7 27  2 26  4  9  7 15               -0.000708171
   3088592.239 9   2369865.17848  21375154.752    21375155.3284   21375163.0364
     -1891.324       -1473.759
  -1714772.781 9  -1332582.92448  20952083.987    20952084.6384   20952091.3234
       321.846         250.789
  -2549066.304 9  -1976015.95948  22445544.636    22445545.7704   22445552.8024
       135.327         105.450
  -4631693.679 8  -3586576.66745  24220771.046    24220772.6524   24220782.1474
      4382.827        3415.190
  -6902682.721 9  -5346518.72146  24241042.240    24241042.4504   24241050.7474
      4188.699        3263.921
  -5053379.701 9  -3926551.37848  20008868.617    20008869.4474   20008876.5734
      1190.481         927.648
   -763023.431 9   -586614.04346  23654822.802    23654823.5264   23654831.3074
      -615.017        -479.234
 97  5 22 16  8 59.9990000  0  7 27  2 26  4  9  7 15               -0.000724695
   3145539.120 9   2414239.32348  21385991.456    21385992.0114   21385999.7124
     -1905.541       -1484.837
  -1724330.076 9  -1340030.17848  20950265.327    20950265.9634   20950272.5914
       314.928         245.398
  -2552874.069 9  -1978983.09048  22444819.999    22444821.2164   22444828.2224
       118.278          92.165
  -4763196.913 9  -3689046.73245  24195746.754    24195748.2124   24195757.8814
      4383.697        3415.868
  -7028301.435 9  -5444403.41846  24217137.062    24217137.9804   24217146.1264
      4185.792        3261.656
  -5088849.288 9  -3954190.01348  20002118.977    20002119.7824   20002126.8984
      1173.814         914.660
   -744292.916 9   -572018.86746  23658387.177    23658387.8654   23658395.7134
      -634.043        -494.059
 97  5 22 16  9 29.9990000  0  7 27  2 26  4  9  7 15               -0.000741203
   3202933.816 9   2458962.42248  21396913.288    21396913.9014   21396921.6124
     -1920.858       -1496.772
  -1733658.933 9  -1347299.42248  20948490.116    20948490.7314   20948497.3464
       306.867         239.117
  -2556154.075 9  -1981538.96148  22444195.829    22444197.1184   22444204.0924
       100.437          78.263
  -4894705.331 9  -3791520.64446  24170721.776    24170723.0424   24170732.4514
      4383.220        3415.496
  -7153830.759 9  -5542218.46146  24193249.203    24193250.3964   24193258.5704
      4182.856        3259.368
  -5123802.382 9  -3981426.18448  19995467.587    19995468.4404   19995475.5554
      1156.274         900.993
   -724974.471 9   -556965.54446  23662063.141    23662064.1424   23662071.8644
      -653.903        -509.535
 97  5 22 16  9 59.9990000  0  7 27  2 26  4  9  7 15               -0.000757685
   3260791.425 9   2504046.23448  21407923.334    21407923.8544   21407931.5774
     -1935.820       -1508.431
  -1742739.455 9  -1354375.16748  20946762.177    20946762.7704   20946769.3784
       298.825         232.851
  -2558902.707 9  -1983680.79248  22443672.790    22443674.0634   22443681.0674
        83.185          64.819
  -5026184.792 9  -3893972.10146  24145702.449    24145703.6264   24145712.7474
      4382.297        3414.777
  -7279264.044 9  -5639958.68346  24169380.316    24169381.3064   24169389.5524
      4179.664        3256.881
  -5158225.918 9  -4008249.71248  19988917.013    19988917.8794   19988924.9664
      1138.957         887.499
   -705058.652 9   -541446.76546  23665853.053    23665854.0364   23665861.7734
      -673.507        -524.811
 97  5 22 16 10 29.9990000  0  7 27  2 26  4  9  7 15               -0.000774149
   3319078.391 9   2549464.62048  21419015.063    21419015.5644   21419023.2724
     -1949.709       -1519.254
  -1751581.722 9  -1361265.25248  20945079.652    20945080.1604   20945086.7624
       291.028         226.775
  -2561135.124 9  -1985420.36848  22443248.040    22443249.2904   22443256.3124
        65.844          51.307
  -5157634.505 9  -3996400.30646  24120688.077    24120689.5424   24120698.6944
      4381.165        3413.895
  -7404602.070 9  -5737624.64646  24145529.803    24145530.3594   24145538.4264
      4176.198        3254.180
  -5192138.232 9  -4034674.88648  19982463.788    19982464.6394   19982471.6544
      1122.135         874.391
   -684556.319 9   -525470.95946  23669754.858    23669755.5474   23669763.2734
      -693.156        -540.121
 97  5 22 16 10 59.9990000  0  7 27  2 26  4  9  7 15               -0.000790600
   3377758.862 9   2595189.62648  21430181.525    21430182.1334   21430189.8564
     -1962.351       -1529.105
  -1760215.221 9  -1367992.66648  20943436.749    20943437.2594   20943443.8704
       284.492         221.682
  -2562867.481 9  -1986770.30348  22442918.414    22442919.6624   22442926.7234
        49.706          38.732
  -5289065.106 9  -4098813.67646  24095677.735    24095679.1034   24095688.2464
      4380.949        3413.726
  -7529843.753 9  -5835215.55546  24121697.469    24121697.6254   24121705.6664
      4173.289        3251.914
  -5225565.533 9  -4060722.12348  19976102.804    19976103.6224   19976110.6184
      1106.383         862.117
   -663481.626 9   -509049.13246  23673765.094    23673765.9444   23673773.6094
      -711.785        -554.638
 97  5 22 16 11 29.9990000  0  7 27  2 26  4  9  7 15               -0.000807024
   3436848.337 9   2641233.34448  21441425.790    21441426.5304   21441434.3044
     -1976.707       -1540.291
  -1768616.727 9  -1374539.30348  20941838.025    20941838.5304   20941845.1244
       275.966         215.038
  -2564081.345 9  -1987716.21348  22442687.450    22442688.6814   22442695.7644
        31.419          24.482
  -5420456.206 9  -4201196.17346  24070674.860    24070676.2804   24070685.3994
      4378.778        3412.035
  -7654965.112 9  -5932712.68146  24097887.838    24097887.8104   24097895.8884
      4168.291        3248.019
  -5258495.559 9  -4086381.87248  19969836.384    19969837.2734   19969844.2484
      1089.269         848.781
   -641817.789 9   -492168.26046  23677887.651    23677888.4064   23677896.2214
      -732.216        -570.558
 97  5 22 16 11 59.9990000  0  7 27  2 26  4  9  7 15               -0.000823390
   3496374.008 9   2687616.94248  21452753.185    21452753.9274   21452761.6944
     -1992.714       -1552.764
  -1776762.617 9  -1380886.76148  20940287.877    20940288.4314   20940295.0364
       266.095         207.347
  -2564734.635 9  -1988225.31048  22442563.097    22442564.3394   22442571.4704
        11.001           8.572
  -5551779.505 9  -4303525.93146  24045685.020    24045686.2554   24045695.2354
      4375.287        3409.314
  -7779922.299 9  -6030081.90646  24074108.964    24074109.3454   24074117.2924
      4161.156        3242.459
  -5290917.012 9  -4111645.33848  19963666.832    19963667.6894   19963674.6834
      1071.033         834.571
   -619536.537 9   -474806.24846  23682127.766    23682128.5264   23682136.1154
      -754.230        -587.712
 97  5 22 16 12 29.9990000  0  7 27  2 26  4  9  7 15               -0.000839696
   3556338.459 9   2734342.45648  21464164.115    21464164.8114   21464172.5784
     -2005.279       -1562.555
  -1784654.017 9  -1387035.91448  20938786.314    20938786.7784   20938793.4004
       259.998         202.596
  -2564810.880 9  -1988284.76548  22442548.752    22442549.8714   22442556.9764
        -5.975          -4.656
  -5683044.309 9  -4405810.07946  24020705.964    24020707.4664   24020716.3464
      4375.536        3409.509
  -7904711.385 9  -6127320.10546  24050361.975    24050362.7714   24050370.7504
      4157.966        3239.974
  -5322829.702 9  -4136512.36348  19957594.072    19957594.9254   19957601.9034
      1056.261         823.061
   -596634.577 9   -456960.57746  23686485.997    23686486.6154   23686494.2564
      -772.609        -602.033
 97  5 22 16 12 59.9990000  0  7 27  2 26  4  9  7 15               -0.000855967
   3616729.726 9   2781400.55048  21475656.151    21475656.9174   21475664.6664
     -2021.226       -1574.981
  -1792328.927 9  -1393016.37748  20937325.856    20937326.3094   20937332.9564
       251.106         195.667
  -2564352.823 9  -1987927.87848  22442636.089    22442637.0984   22442644.2084
       -24.998         -19.479
  -5814289.287 9  -4508078.75746  23995731.162    23995732.3294   23995741.2394
      4373.702        3408.079
  -8029381.677 9  -6224465.78046  24026638.125    24026638.8814   24026646.8644
      4152.969        3236.080
  -5354260.914 9  -4161004.21548  19951612.817    19951613.7434   19951620.7634
      1038.730         809.400
   -573153.041 9   -438663.26546  23690954.275    23690954.9764   23690962.5874
      -793.224        -618.097
 97  5 22 16 13 29.9990000  0  7 27  2 26  4  9  7 15               -0.000872193
   3677581.461 9   2828817.44748  21487235.908    21487236.6384   21487244.4354
     -2036.406       -1586.810
  -1799755.432 9  -1398803.27348  20935912.703    20935913.1424   20935919.7814
       243.154         189.471
  -2563341.228 9  -1987139.65948  22442828.496    22442829.6414   22442836.7114
       -43.487         -33.886
  -5945500.140 9  -4610320.93146  23970762.455    23970763.7204   23970772.5554
      4372.760        3407.345
  -8153922.215 9  -6321510.33946  24002938.148    24002939.4774   24002947.5244
      4148.725        3232.773
  -5385193.950 9  -4185107.87248  19945726.405    19945727.3954   19945734.4254
      1022.483         796.740
   -549076.848 9   -419902.59546  23695535.947    23695536.5564   23695544.1824
      -812.845        -633.386
 97  5 22 16 13 59.9990000  0  7 27  2 26  4  9  7 15               -0.000888379
   3738881.078 9   2876583.34548  21498900.716    21498901.6074   21498909.4124
     -2049.548       -1597.050
  -1806950.171 9  -1404409.57548  20934543.659    20934544.0684   20934550.7054
       237.027         184.696
  -2561781.393 9  -1985924.23348  22443125.337    22443126.5404   22443133.4904
       -59.734         -46.546
  -6076692.466 9  -4712548.61046  23945797.108    23945798.4094   23945807.3614
      4373.957        3408.278
  -8278335.538 9  -6418455.74646  23979262.974    23979264.3074   23979272.4734
      4145.937        3230.600
  -5415641.708 9  -4208833.39348  19939932.390    19939933.3614   19939940.3504
      1007.812         785.308
   -524418.805 9   -400688.58946  23700228.548    23700228.8804   23700236.5634
      -830.428        -647.087
 97  5 22 16 14 29.9990000  0  7 27  2 26  4  9  7 15               -0.000904530
   3800625.987 9   2924696.23148  21510650.326    21510651.3144   21510659.1144
     -2065.662       -1609.607
  -1813896.694 9  -1409822.45848  20933221.730    20933222.2004   20933228.8554
       227.301         177.118
  -2559688.541 9  -1984293.46848  22443523.534    22443524.8174   22443531.7584
       -78.538         -61.198
  -6207863.610 8  -4814759.85246  23920836.106    23920837.3584   23920846.0954
      4371.865        3406.648
  -8402603.545 9  -6515287.96746  23955615.831    23955616.9144   23955624.9784
      4139.563        3225.634
  -5445588.406 9  -4232168.47948  19934233.777    19934234.7144   19934241.6774
       989.855         771.316
   -499178.770 9   -381021.06846  23705031.714    23705031.9174   23705039.5654
      -851.075        -663.175
 97  5 22 16 14 59.9990000  0  7 27  2 26  4  9  7 15               -0.000920642
   3862814.089 9   2973154.45548  21522484.461    21522485.3574   21522493.1754
     -2080.164       -1620.907
  -1820589.267 9  -1415037.46648  20931948.087    20931948.6664   20931955.3474
       218.674         170.395
  -2557072.774 9  -1982255.24248  22444021.194    22444022.5894   22444029.5994
       -96.025         -74.825
  -6339011.167 9  -4916952.63046  23895879.118    23895880.7284   23895889.5744
      4371.134        3406.078
  -8526705.432 9  -6611990.71246  23932000.169    23932001.2134   23932009.1404
      4133.751        3221.105
  -5475040.890 9  -4255118.45948  19928629.106    19928630.0874   19928637.0564
       973.522         758.589
   -473356.743 9   -360900.03046  23709945.645    23709945.6874   23709953.3074
      -870.578        -678.372
 97  5 22 16 15 29.9990000  0  7 27  2 26  4  9  7 15               -0.000936724
   3925406.271 9   3021927.55348  21534395.382    21534396.2874   21534404.1064
     -2093.746       -1631.490
  -1827050.423 9  -1420072.14748  20930718.581    20930719.1644   20930725.8504
       211.057         164.460
  -2553947.876 9  -1979820.28948  22444615.919    22444617.2964   22444624.3514
      -113.346         -88.322
  -6470156.221 9  -5019143.55346  23870922.879    23870924.4304   23870933.3194
      4370.757        3405.785
  -8650646.818 9  -6708568.40646  23908415.166    23908416.0184   23908423.9174
      4128.089        3216.693
  -5504027.346 9  -4277705.30448  19923113.172    19923114.1514   19923121.0854
       957.665         746.232
   -446973.635 9   -340341.79046  23714966.131    23714966.2704   23714973.9604
      -889.453        -693.080
 97  5 22 16 15 59.9990000  0  7 27  2 26  4  9  7 15               -0.000952754
   3988438.832 9   3071043.79748  21546389.973    21546391.0144   21546398.8444
     -2107.702       -1642.365
  -1833245.699 9  -1424899.65148  20929539.657    20929540.2864   20929546.9554
       202.753         157.989
  -2550267.106 9  -1976952.18448  22445316.404    22445317.7284   22445324.8374
      -131.127        -102.177
  -6601245.197 9  -5121290.68846  23845977.666    23845979.0084   23845988.0694
      4369.216        3404.584
  -8774384.505 9  -6804987.37246  23884868.665    23884869.5724   23884877.4614
      4122.082        3212.012
  -5532489.042 9  -4299883.24148  19917697.148    19917698.0734   19917705.0294
       940.502         732.859
   -419985.836 9   -319312.35246  23720101.616    23720102.0194   23720109.5564
      -908.958        -708.279
 97  5 22 16 16 29.9990000  0  7 27  2 26  4  9  7 15               -0.000968770
   4051851.728 9   3120456.40648  21558457.088    21558458.1034   21558465.9514
     -2120.219       -1652.119
  -1839229.423 9  -1429562.30848  20928400.974    20928401.6434   20928408.3274
       195.776         152.553
  -2546087.470 9  -1973695.35748  22446111.874    22446113.0604   22446120.2414
      -147.969        -115.300
  -6732314.622 9  -5223422.67246  23821035.943    23821037.1404   23821046.1304
      4368.315        3403.882
  -8897990.080 9  -6901303.39146  23861347.368    23861348.0314   23861356.0234
      4117.930        3208.777
  -5560471.011 9  -4321687.36548  19912372.330    19912373.2824   19912380.2264
       924.516         720.402
   -392448.409 9   -297854.61146  23725341.939    23725342.1664   23725349.8304
      -927.299        -722.571
 97  5 22 16 16 59.9990000  0  7 27  2 26  4  9  7 15               -0.000984775
   4115639.209 9   3170160.90848  21570595.465    21570596.5134   21570604.3514
     -2133.206       -1662.238
  -1845003.844 9  -1434061.87648  20927302.095    20927302.8284   20927309.4824
       188.130         146.595
  -2541400.643 9  -1970043.32048  22447003.676    22447004.9874   22447012.1614
      -165.515        -128.973
  -6863344.818 9  -5325524.11146  23796101.680    23796102.9334   23796111.8804
      4365.998        3402.076
  -9021473.913 9  -6997524.54946  23837849.226    23837849.8654   23837857.8794
      4113.596        3205.399
  -5587966.844 9  -4343112.68448  19907140.087    19907141.0144   19907147.9694
       907.557         707.187
   -364356.664 9   -275965.00346  23730687.223    23730687.7784   23730695.6684
      -946.453        -737.496
 97  5 22 16 17 29.9990000  0  7 27  2 26  4  9  7 15               -0.001000760
   4179817.414 9   3220169.86348  21582808.181    21582809.2614   21582817.1114
     -2145.424       -1671.759
  -1850546.904 9  -1438381.15848  20926247.311    20926248.0524   20926254.7104
       181.343         141.306
  -2536182.311 9  -1965977.12048  22447996.732    22447998.0414   22448005.2404
      -182.412        -142.139
  -6994303.075 9  -5427569.51446  23771181.043    23771182.2994   23771191.3134
      4364.286        3400.742
  -9144838.661 9  -7093652.92246  23814373.670    23814374.4174   23814382.3894
      4110.626        3203.085
  -5614949.212 9  -4364137.89448  19902005.417    19902006.4034   19902013.3814
       891.192         694.435
   -335692.702 9   -253629.47846  23736141.591    23736142.4004   23736150.2984
      -964.633        -751.662
 97  5 22 16 17 59.9980000  0  7 27  2 26  4  9  7 15               -0.001016732
   4244374.819 9   3270474.29448  21595093.067    21595094.1104   21595102.0054
     -2158.987       -1682.328
  -1855867.995 9  -1442527.48548  20925234.752    20925235.4974   20925242.1954
       173.042         134.838
  -2530445.768 9  -1961507.11148  22449088.361    22449089.7174   22449096.9884
      -200.309        -156.085
  -7125182.508 9  -5529553.48146  23746275.169    23746276.6904   23746285.7504
      4360.930        3398.127
  -9268090.252 9  -7189693.10946  23790919.694    23790920.4334   23790928.3904
      4105.878        3199.385
  -5641426.309 9  -4384769.39048  19896966.976    19896967.9604   19896974.9714
       873.742         680.838
   -306468.792 9   -230857.64646  23741702.775    23741703.5654   23741711.5494
      -984.118        -766.845
 97  5 22 16 18 29.9980000  0  7 27  2 26  4  9  7 15               -0.001032675
   4309333.067 9   3321091.05948  21607454.280    21607455.2654   21607463.1714
     -2171.769       -1692.288
  -1860954.032 9  -1446490.65248  20924267.001    20924267.6364   20924274.3904
       165.837         129.224
  -2524192.345 9  -1956634.34848  22450278.418    22450279.7374   22450287.0694
      -216.713        -168.867
  -7255979.198 8  -5631472.98646  23721385.416    23721386.8864   23721395.8194
      4358.845        3396.503
  -9391206.804 9  -7285628.08346  23767490.958    23767492.1124   23767500.0334
      4101.538        3196.004
  -5667405.542 9  -4405012.94148  19892023.289    19892024.2714   19892031.2994
       858.017         668.585
   -276676.437 9   -207642.87546  23747372.186    23747372.9264   23747380.8704
     -1002.194        -780.930
 97  5 22 16 18 59.9980000  0  7 27  2 26  4  9  7 15               -0.001048588
   4374699.407 9   3372025.82447  21619892.899    21619894.0734   21619902.0494
     -2186.937       -1704.107
  -1865810.848 9  -1450275.20448  20923342.661    20923343.4414   20923350.1924
       157.131         122.440
  -2517434.208 9  -1951368.29548  22451564.493    22451565.7714   22451573.1384
      -234.814        -182.972
  -7386704.557 9  -5733336.85446  23696508.762    23696510.5484   23696519.5284
      4355.471        3393.874
  -9514169.205 9  -7381442.93446  23744092.129    23744093.0424   23744101.0674
      4095.072        3190.965
  -5692896.033 9  -4424875.65448  19887172.551    19887173.5734   19887180.6494
       840.558         654.980
   -246327.610 9   -183994.48346  23753147.410    23753148.1774   23753156.1364
     -1021.918        -796.300
 97  5 22 16 19 29.9980000  0  7 27  2 26  4  9  7 15               -0.001064460
   4440505.679 9   3423303.39347  21632415.684    21632416.5754   21632424.5774
     -2200.945       -1715.022
  -1870428.880 9  -1453873.69348  20922463.933    20922464.6934   20922471.4144
       149.853         116.769
  -2510149.958 9  -1945692.28448  22452950.521    22452951.9164   22452959.3034
      -251.534        -196.001
  -7517361.132 9  -5835147.17546  23671645.802    23671647.3584   23671656.4944
      4354.109        3392.812
  -9636952.889 9  -7477118.52946  23720727.228    23720728.0654   23720736.0204
      4089.704        3186.782
  -5717883.758 9  -4444346.59948  19882417.607    19882418.5884   19882425.6594
       824.514         642.478
   -215413.187 9   -159905.34246  23759030.400    23759031.0944   23759038.9854
     -1039.908        -810.318
 97  5 22 16 19 59.9980000  0  7 27  2 26  4  9  7 15               -0.001080297
   4506747.554 9   3474920.38247  21645021.156    21645022.0344   21645030.0634
     -2215.340       -1726.239
  -1874811.940 9  -1457289.08848  20921629.813    20921630.6504   20921637.3634
       142.200         110.805
  -2502357.470 9  -1939620.24848  22454433.401    22454434.8034   22454442.2334
      -268.014        -208.842
  -7647965.248 8  -5936916.62246  23646792.922    23646794.3274   23646803.4074
      4352.767        3391.766
  -9759557.603 9  -7572654.64746  23697396.169    23697397.1874   23697405.0734
      4083.914        3182.271
  -5742382.939 9  -4463436.86748  19877755.601    19877756.5514   19877763.6004
       808.624         630.097
   -183947.660 9   -135386.79646  23765017.793    23765018.7794   23765026.7464
     -1057.943        -824.371
 97  5 22 16 20 29.9980000  0  7 27  2 26  4  9  7 15               -0.001096098
   4573435.500 9   3526884.97347  21657711.330    21657712.3564   21657720.3774
     -2229.259       -1737.085
  -1878943.767 9  -1460508.71848  20920843.593    20920844.4324   20920851.1124
       134.335         104.677
  -2494051.397 9  -1933148.01248  22456014.006    22456015.3804   22456022.8564
      -284.608        -221.772
  -7778515.509 8  -6038644.07846  23621949.862    23621951.3774   23621960.5134
      4351.732        3390.960
  -9881978.947 9  -7668047.89146  23674100.097    23674101.1234   23674109.0674
      4078.714        3178.219
  -5766379.696 9  -4482135.63348  19873189.102    19873190.1024   19873197.1534
       792.179         617.282
   -151921.616 9   -110431.48146  23771112.239    23771113.1304   23771121.1354
     -1076.041        -838.474
 97  5 22 16 20 59.9980000  0  7 27  2 26  4  9  7 15               -0.001111911
   4640493.531 9   3579137.93147  21670472.121    21670473.0934   21670481.1614
     -2242.239       -1747.199
  -1882878.801 9  -1463574.99848  20920094.944    20920095.6324   20920102.3254
       126.886          98.872
  -2485282.171 9  -1926314.87448  22457682.798    22457684.1664   22457691.6164
      -301.103        -234.626
  -7909067.865 9  -6140373.13246  23597106.845    23597108.0514   23597117.2044
      4350.580        3390.062
 -10004292.754 9  -7763357.33846  23650824.422    23650825.5084   23650833.5384
      4074.397        3174.855
  -5789913.343 9  -4500473.53548  19868710.794    19868711.7644   19868718.7694
       775.757         604.486
   -119390.508 9    -85082.58346  23777303.143    23777303.6224   23777311.6974
     -1093.849        -852.350
 97  5 22 16 21 29.9980000  0  7 27  2 26  4  9  7 15               -0.001127714
   4707937.711 9   3631691.78247  21683306.523    21683307.3474   21683315.4164
     -2253.706       -1756.135
  -1886574.681 9  -1466454.92148  20919391.572    20919392.3534   20919399.0524
       119.763          93.322
  -2476012.553 9  -1919091.81848  22459446.715    22459448.1394   22459455.6334
      -316.454        -246.588
  -8039571.090 9  -6242063.97346  23572272.628    23572274.0594   23572283.0724
      4349.738        3389.406
 -10126468.764 9  -7858559.41846  23627575.093    23627576.2424   23627584.1834
      4071.016        3172.220
  -5812952.907 9  -4518426.43648  19864326.457    19864327.4744   19864334.4504
       760.527         592.618
    -86314.848 9    -59309.39746  23783597.503    23783597.6964   23783605.9204
     -1110.915        -865.648
 97  5 22 16 21 59.9980000  0  7 27  2 26  4  9  7 15               -0.001143525
   4775720.647 9   3684509.60747  21696205.151    21696206.0504   21696214.1154
     -2263.598       -1763.842
  -1890060.989 9  -1469171.54648  20918728.220    20918728.9564   20918735.6834
       114.266          89.038
  -2466287.018 9  -1911513.50347  22461297.449    22461298.8454   22461306.3944
      -330.524        -257.551
  -8170041.277 9  -6343729.00146  23547445.014    23547446.4914   23547455.5354
      4349.775        3389.435
 -10248535.211 9  -7953676.11046  23604346.866    23604347.7434   23604355.7414
      4068.125        3169.968
  -5835540.985 9  -4536027.53348  19860028.084    19860029.1044   19860036.0664
       746.760         581.891
    -52726.231 9    -33136.50546  23789988.840    23789989.3844   23789997.6344
     -1126.827        -878.047
 97  5 22 16 22 29.9980000  0  7 27  2 26  4  9  7 15               -0.001159329
   4843843.466 9   3737592.26847  21709168.653    21709169.4374   21709177.4994
     -2275.783       -1773.337
  -1893332.059 9  -1471720.44848  20918105.882    20918106.5094   20918113.2504
       105.924          82.538
  -2456078.725 9  -1903559.01247  22463240.054    22463241.4194   22463249.0244
      -347.866        -271.064
  -8300452.156 9  -6445347.82146  23522628.311    23522630.0514   23522639.0604
      4346.257        3386.694
 -10370456.117 9  -8048679.38546  23581146.061    23581147.0394   23581154.9214
      4062.032        3165.220
  -5857657.816 9  -4553261.42448  19855819.322    19855820.4324   19855827.3754
       729.931         568.777
    -18606.013 9     -6549.35946  23796481.667    23796482.3164   23796490.5304
     -1145.704        -892.756
 97  5 22 16 22 59.9980000  0  7 27  2 26  4  9  7 15               -0.001175134
   4912272.599 9   3790913.61047  21722190.267    21722191.1134   21722199.1854
     -2287.071       -1782.133
  -1896421.260 9  -1474127.63948  20917518.075    20917518.6444   20917525.4014
        99.197          77.296
  -2445416.096 9  -1895250.49947  22465269.007    22465270.4574   22465278.0594
      -363.732        -283.428
  -8430811.988 9  -6546926.87546  23497821.865    23497823.3534   23497832.2784
      4343.475        3384.526
 -10492254.350 9  -8143587.07346  23557968.834    23557969.5694   23557977.5874
      4056.873        3161.200
  -5879349.438 9  -4570163.98848  19851691.534    19851692.6344   19851699.5654
       715.566         557.584
     16013.403 9     20426.78846  23803069.616    23803070.2324   23803078.3644
     -1163.076        -906.293
 97  5 22 16 23 29.9980000  0  7 27  2 26  4  9  7 15               -0.001190904
   4981050.177 9   3844506.47147  21735278.324    21735279.1144   21735287.1614
     -2298.515       -1791.051
  -1899298.774 9  -1476369.88348  20916970.660    20916971.1014   20916977.8724
        92.384          71.987
  -2434272.089 9  -1886566.88747  22467389.696    22467391.1224   22467398.7374
      -379.451        -295.676
  -8561076.652 9  -6648431.76546  23473033.395    23473034.8934   23473043.5094
      4340.501        3382.209
 -10613886.132 9  -8238365.06547  23534822.840    23534823.8074   23534831.8834
      4051.596        3157.088
  -5900613.057 9  -4586733.04548  19847645.265    19847646.3344   19847653.2504
       701.606         546.706
     51158.533 9     47812.55646  23809757.122    23809758.1164   23809766.2834
     -1180.240        -919.668
 97  5 22 16 23 59.9980000  0  7 27  2 26  4  9  7 15               -0.001206648
   5050162.770 9   3898360.40047  21748429.979    21748430.8514   21748438.9214
     -2309.583       -1799.675
  -1901990.289 9  -1478467.18448  20916458.462    20916458.9464   20916465.7394
        86.418          67.339
  -2422663.288 9  -1877521.08547  22469598.794    22469600.2114   22469607.8234
      -394.962        -307.762
  -8691259.571 9  -6749872.94846  23448260.516    23448261.9344   23448270.5584
      4337.869        3380.158
 -10735364.889 9  -8333023.82147  23511706.102    23511707.1574   23511715.2664
      4046.539        3153.147
  -5921467.458 9  -4602983.22548  19843676.868    19843677.8804   19843684.8004
       687.974         536.084
     86806.773 9     75590.38046  23816540.682    23816541.7484   23816549.9974
     -1196.830        -932.595
 97  5 22 16 24 29.9980000  0  7 27  2 26  4  9  7 15               -0.001222357
   5119636.365 9   3952495.60947  21761650.283    21761651.2854   21761659.3374
     -2321.734       -1809.143
  -1904477.538 9  -1480405.32648  20915985.186    20915985.6484   20915992.4724
        79.597          62.024
  -2410573.216 9  -1868100.26847  22471899.568    22471900.9014   22471908.4704
      -410.587        -319.938
  -8821335.526 9  -6851230.74546  23423507.792    23423509.1734   23423517.9074
      4334.063        3377.192
 -10856680.481 9  -8427555.43247  23488620.692    23488621.5974   23488629.6724
      4041.571        3149.276
  -5941889.010 9  -4618896.12648  19839790.742    19839791.8034   19839798.7124
       673.676         524.942
    122975.874 9    103774.07346  23823423.630    23823424.5484   23823432.7834
     -1214.147        -946.089
 97  5 22 16 24 59.9980000  0  7 27  2 26  4  9  7 15               -0.001238039
   5189476.605 9   4006916.52947  21774940.548    21774941.4774   21774949.5634
     -2333.998       -1818.700
  -1906762.970 9  -1482186.20548  20915550.155    20915550.7404   20915557.5824
        73.094          56.956
  -2398027.092 9  -1858324.08647  22474287.024    22474288.3884   22474295.9774
      -425.475        -331.539
  -8951305.041 9  -6952505.62746  23398775.324    23398776.7524   23398785.3824
      4331.063        3374.854
 -10977855.634 9  -8521977.60947  23465561.852    23465562.7934   23465570.8124
      4036.951        3145.676
  -5961885.491 9  -4634477.79848  19835985.530    19835986.5794   19835993.4774
       659.631         513.998
    159655.470 8    132355.53346  23830403.965    23830404.4164   23830412.7024
     -1230.919        -959.158
 97  5 22 16 25 29.9980000  0  7 27  2 26  4  9  7 15               -0.001253717
   5259674.370 9   4061616.02547  21788298.786    21788299.6594   21788307.8334
     -2346.293       -1828.280
  -1908865.489 9  -1483824.55848  20915149.993    20915150.6324   20915157.5004
        66.636          51.924
  -2385047.624 9  -1848210.23547  22476757.059    22476758.3064   22476765.9424
      -440.291        -343.084
  -9081209.741 9  -7053729.99646  23374055.001    23374056.7854   23374065.2544
      4328.830        3373.114
 -11098908.861 9  -8616304.77647  23442526.104    23442527.1304   23442535.1394
      4032.704        3142.367
  -5981461.674 9  -4649731.96748  19832260.324    19832261.3564   19832268.2344
       644.863         502.491
    196825.482 8    161319.16145  23837477.349    23837477.5184   23837486.0224
     -1247.705        -972.238
 97  5 22 16 25 59.9980000  0  7 27  2 26  4  9  7 15               -0.001269398
   5330232.230 9   4116596.12547  21801725.440    21801726.4124   21801734.5764
     -2358.106       -1837.485
  -1910783.384 9  -1485319.04548  20914785.116    20914785.6774   20914792.5834
        60.481          47.128
  -2371632.527 9  -1837756.93748  22479309.861    22479311.1394   22479318.7934
      -454.607        -354.239
  -9211062.050 9  -7154913.50446  23349344.946    23349346.6934   23349355.3074
      4327.377        3371.982
 -11219833.420 9  -8710531.66847  23419515.102    23419515.9394   23419523.9254
      4028.410        3139.021
  -6000594.107 9  -4664640.35948  19828619.474    19828620.4914   19828627.4094
       629.988         490.900
    234492.225 8    190669.80245  23844644.795    23844645.1114   23844653.7044
     -1264.166        -985.064
 97  5 22 16 26 29.9980000  0  7 27  2 26  4  9  7 15               -0.001285096
   5401131.427 9   4171842.20947  21815217.203    21815218.0864   21815226.2624
     -2369.119       -1846.067
  -1912516.647 9  -1486669.66248  20914455.297    20914455.8674   20914462.7974
        54.355          42.355
  -2357795.786 9  -1826975.07647  22481942.955    22481944.1884   22481951.7954
      -468.492        -365.059
  -9340875.230 9  -7256066.58246  23324642.275    23324643.9524   23324652.4494
      4326.130        3371.010
 -11340640.871 9  -8804667.32147  23396526.194    23396527.0434   23396534.9944
      4024.569        3136.028
  -6019286.029 9  -4679205.49048  19825062.481    19825063.5184   19825070.4594
       615.485         479.599
    272648.046 8    220401.59046  23851905.162    23851906.0134   23851914.5884
     -1280.225        -997.578
 97  5 22 16 26 59.9980000  0  7 27  2 26  4  9  7 15               -0.001300806
   5472363.938 9   4227348.00247  21828772.354    21828773.2004   21828781.4144
     -2380.111       -1854.632
  -1914050.596 9  -1487864.96948  20914163.324    20914163.9724   20914170.9304
        47.518          37.027
  -2343526.552 9  -1815856.21147  22484658.121    22484659.5584   22484667.1204
      -483.216        -376.532
  -9470650.366 9  -7357189.95746  23299947.098    23299948.5284   23299957.1784
      4325.160        3370.255
 -11461311.591 9  -8898696.41447  23373562.752    23373564.0834   23373572.0254
      4019.592        3132.150
  -6037531.095 9  -4693422.42448  19821590.603    19821591.5954   19821598.5404
       600.524         467.941
    311296.663 8    250517.31645  23859260.427    23859260.5104   23859269.1974
     -1296.758       -1010.461
 97  5 22 16 27 29.9980000  0  7 27  2 26  4  9  7 15               -0.001316515
   5543936.241 9   4283118.58647  21842392.164    21842393.0224   21842401.2394
     -2392.575       -1864.344
  -1915364.077 9  -1488888.48448  20913913.325    20913914.0044   20913920.9794
        38.657          30.122
  -2328796.800 9  -1804378.49647  22487460.999    22487462.5264   22487470.0484
      -500.058        -389.656
  -9600379.323 9  -7458277.35446  23275260.331    23275261.8924   23275270.6534
      4321.905        3367.718
 -11581813.373 9  -8992593.88547  23350632.314    23350633.3144   23350641.2284
      4012.467        3126.598
  -6055315.260 9  -4707280.21348  19818206.341    19818207.3534   19818214.3044
       583.851         454.949
    350456.981 8    281031.80545  23866712.023    23866712.3524   23866721.1114
     -1315.229       -1024.854
 97  5 22 16 27 59.9980000  0  7 27  2 26  4  9  7 15               -0.001332222
   5615814.228 9   4339127.36647  21856069.888    21856070.9914   21856079.1884
     -2402.332       -1871.947
  -1916463.523 9  -1489745.21748  20913704.113    20913704.7684   20913711.7654
        31.646          24.659
  -2313619.468 9  -1792552.03447  22490349.403    22490350.6924   22490358.1594
      -514.619        -401.002
  -9730052.483 9  -7559321.25946  23250584.601    23250585.8054   23250594.6434
      4319.903        3366.158
 -11702141.729 9  -9086356.22247  23327734.528    23327735.6394   23327743.4654
      4006.687        3122.094
  -6072661.380 9  -4720796.67248  19814905.456    19814906.4884   19814913.4164
       569.638         443.874
    390111.336 8    311931.28845  23874257.908    23874258.1344   23874267.0784
     -1331.335       -1037.404
 97  5 22 16 28 29.9980000  0  7 27  2 26  4  9  7 15               -0.001347925
   5687991.925 9   4395369.69047  21869805.023    21869806.0404   21869814.1854
     -2411.977       -1879.463
  -1917345.748 9  -1490432.68848  20913536.267    20913536.9224   20913543.9004
        25.020          19.496
  -2298003.311 9  -1780383.62147  22493321.045    22493322.3704   22493329.8044
      -528.653        -411.937
  -9859657.942 9  -7660312.44046  23225921.296    23225922.6704   23225931.5204
      4318.188        3364.822
 -11822299.611 9  -9179985.70247  23304869.382    23304870.3854   23304878.1844
      4001.430        3117.997
  -6089584.965 9  -4733983.88048  19811685.057    19811686.0764   19811692.9924
       556.317         433.494
    430246.715 8    343205.55245  23881895.613    23881895.7684   23881904.7474
     -1346.665       -1049.349
 97  5 22 16 28 59.9980000  0  7 27  2 26  4  9  7 15               -0.001363613
   5760491.138 9   4451862.54147  21883601.369    21883602.2664   21883610.3844
     -2423.108       -1888.136
  -1918006.957 9  -1490947.93748  20913410.353    20913411.1154   20913418.0814
        17.470          13.613
  -2281938.717 9  -1767865.77947  22496378.105    22496379.3754   22496386.7694
      -544.006        -423.901
  -9989188.599 9  -7761245.34046  23201272.202    23201273.6654   23201282.5014
      4315.386        3362.638
 -11942268.863 9  -9273468.21747  23282040.346    23282041.0274   23282048.7284
      3994.916        3112.921
  -6106081.963 9  -4746838.68948  19808545.867    19808546.8584   19808553.7454
       541.881         422.245
    470868.376 9    374858.75046  23889625.837    23889626.0894   23889634.8274
     -1363.137       -1062.185
 97  5 22 16 29 29.9980000  0  7 27  2 26  4  9  7 15               -0.001379263
   5833350.484 9   4508636.02147  21897466.069    21897466.9864   21897475.1044
     -2434.128       -1896.723
  -1918423.684 9  -1491272.68348  20913330.977    20913331.8444   20913338.7914
        10.285           8.014
  -2265392.686 9  -1754972.79547  22499526.614    22499528.0374   22499535.4254
      -559.027        -435.605
 -10118599.789 9  -7862085.09946  23176645.858    23176647.4454   23176656.3434
      4311.946        3359.958
 -12062029.264 9  -9366787.96647  23259250.536    23259251.3274   23259259.0604
      3989.172        3108.446
  -6122134.974 9  -4759347.53148  19805491.114    19805492.1334   19805498.9794
       528.167         411.559
    512003.688 8    406912.23745  23897453.001    23897454.0184   23897462.4014
     -1379.217       -1074.715
 97  5 22 16 29 59.9980000  0  7 27  2 26  4  9  7 15               -0.001394889
   5906542.547 9   4565668.74747  21911394.027    21911395.0624   21911403.1094
     -2444.999       -1905.194
  -1918622.924 9  -1491427.95248  20913293.239    20913293.9584   20913300.8894
         3.360           2.618
  -2248394.206 9  -1741727.24147  22502761.316    22502762.7714   22502770.1674
      -573.880        -447.179
 -10247898.273 9  -7962837.06646  23152041.301    23152042.7464   23152051.6064
      4308.338        3357.146
 -12181618.637 9  -9459974.45347  23236493.368    23236494.2014   23236501.9264
      3984.028        3104.437
  -6137771.217 9  -4771531.61348  19802515.694    19802516.6844   19802523.5154
       514.448         400.869
    553624.475 9    439344.02045  23905373.349    23905374.1834   23905382.5434
     -1395.182       -1087.155
 97  5 22 16 30 29.9980000  0  7 27  2 26  4  9  7 15               -0.001410509
   5980056.007 9   4622951.91947  21925383.162    21925384.2464   21925392.3084
     -2456.514       -1914.167
  -1918620.249 9  -1491425.89848  20913293.726    20913294.5024   20913301.4344
        -4.187          -3.263
  -2230954.331 9  -1728137.76247  22506080.049    22506081.4684   22506088.9014
      -589.578        -459.411
 -10377095.168 9  -8063509.88046  23127456.055    23127457.2434   23127466.2014
      4304.155        3353.887
 -12301073.053 9  -9553055.79347  23213761.990    23213762.7674   23213770.4054
      3978.634        3100.234
  -6152992.954 9  -4783392.71548  19799619.064    19799620.0534   19799626.8784
       499.628         389.321
    595722.802 9    472147.84946  23913384.105    23913385.3514   23913393.7904
     -1412.152       -1100.378
 97  5 22 16 30 59.9980000  0  7 27  2 26  4  9  7 15               -0.001426121
   6053879.503 9   4680476.67847  21939431.262    21939432.4314   21939440.5004
     -2465.571       -1921.224
  -1918413.809 9  -1491265.05348  20913333.037    20913333.8034   20913340.7534
       -10.025          -7.812
  -2213060.504 9  -1714194.54847  22509485.130    22509486.5334   22509493.9204
      -603.793        -470.488
 -10506184.636 9  -8164098.99946  23102890.936    23102892.2954   23102901.2094
      4301.227        3351.605
 -12420374.461 9  -9646017.89047  23191059.853    23191060.4674   23191068.0714
      3974.338        3096.887
  -6167791.612 9  -4794924.14148  19796802.883    19796803.9834   19796810.8044
       486.488         379.082
    638306.718 9    505330.07546  23921487.844    23921488.9654   23921497.3164
     -1427.264       -1112.154
 97  5 22 16 31 29.9980000  0  7 27  2 26  4  9  7 15               -0.001441724
   6128008.204 9   4738239.26047  21953537.629    21953538.7454   21953546.7514
     -2476.078       -1929.411
  -1918004.120 9  -1490945.83948  20913411.013    20913411.8134   20913418.7334
       -17.046         -13.283
  -2194719.913 9  -1699903.20447  22512975.326    22512976.7134   22512984.1044
      -618.600        -482.026
 -10635150.379 9  -8264591.66946  23078349.562    23078350.9554   23078359.8444
      4296.841        3348.188
 -12539517.222 9  -9738856.36847  23168387.745    23168388.3604   23168395.8734
      3968.540        3092.369
  -6182165.955 9  -4806124.93448  19794067.607    19794068.6474   19794075.4934
       471.960         367.761
    681375.618 9    538890.22445  23929684.306    23929684.7774   23929693.0464
     -1443.673       -1124.940
 97  5 22 16 31 59.9980000  0  7 27  2 26  4  9  7 15               -0.001457340
   6202413.833 9   4796217.63447  21967696.841    21967697.7044   21967705.6844
     -2484.400       -1935.896
  -1917425.432 9  -1490494.93348  20913521.169    20913521.9574   20913528.8594
       -21.644         -16.865
  -2175976.851 9  -1685298.23847  22516542.069    22516543.4504   22516550.8784
      -630.988        -491.679
 -10764030.036 9  -8365017.31046  23053824.445    23053825.8894   23053834.7324
      4295.112        3346.841
 -12658508.975 9  -9831577.18347  23145744.499    23145744.9684   23145752.4504
      3964.092        3088.903
  -6196137.086 9  -4817011.53248  19791408.981    19791410.0204   19791416.8804
       459.416         357.986
    724894.752 9    572801.32445  23937965.901    23937966.0894   23937973.9154
     -1457.636       -1135.820
 97  5 22 16 32 29.9980000  0  7 27  2 26  4  9  7 15               -0.001472903
   6277124.167 9   4854433.43047  21981913.729    21981914.6234   21981922.6234
     -2495.498       -1944.544
  -1916657.529 9  -1489896.58348  20913667.342    20913668.1064   20913675.0074
       -28.650         -22.325
  -2156817.172 9  -1670368.64047  22520188.079    22520189.4694   22520196.9314
      -645.385        -502.897
 -10892811.822 9  -8465366.67346  23029317.881    23029319.5284   23029328.2874
      4291.234        3343.819
 -12777311.195 9  -9924150.28947  23123136.732    23123137.5924   23123145.0824
      3956.791        3083.214
  -6209685.884 9  -4827569.03748  19788830.681    19788831.7314   19788838.5944
       444.900         346.675
    768878.137 9    607074.09745  23946335.814    23946335.8734   23946343.9414
     -1473.684       -1148.325
 97  5 22 16 32 59.9980000  0  7 27  2 26  4  9  7 15               -0.001488498
   6352171.522 9   4912911.84947  21996194.759    21996195.6784   21996203.6924
     -2506.682       -1953.259
  -1915683.256 9  -1489137.43148  20913852.708    20913853.5284   20913860.4344
       -35.043         -27.306
  -2137233.242 9  -1655108.45847  22523914.816    22523916.1874   22523923.6434
      -658.977        -513.489
 -11021477.610 9  -8565625.63346  23004833.549    23004835.1464   23004843.8854
      4287.674        3341.045
 -12895889.819 9 -10016549.16747  23100571.640    23100572.6804   23100580.2664
      3949.871        3077.822
  -6222809.819 9  -4837795.47848  19786333.252    19786334.3254   19786341.2324
       431.127         335.943
    813335.590 9    641716.22345  23954795.778    23954795.9484   23954803.9914
     -1489.015       -1160.271
 97  5 22 16 33 29.9980000  0  7 27  2 26  4  9  7 15               -0.001504073
   6427575.662 9   4971668.26447  22010543.729    22010544.5944   22010552.6384
     -2518.657       -1962.590
  -1914512.388 9  -1488225.08348  20914075.547    20914076.3414   20914083.2434
       -41.682         -32.479
  -2117238.974 9  -1639528.52247  22527719.485    22527720.9084   22527728.4324
      -672.614        -524.115
 -11150031.828 9  -8665797.65746  22980370.437    22980372.0354   22980380.7424
      4284.171        3338.315
 -13014273.146 9 -10108795.87847  23078044.192    23078045.0064   23078052.6224
      3943.780        3073.075
  -6235515.276 9  -4847695.83748  19783915.578    19783916.5854   19783923.5054
       417.402         325.248
    858259.392 9    676721.76945  23963344.780    23963344.6354   23963352.9564
     -1504.451       -1172.299
 97  5 22 16 33 59.9980000  0  7 27  2 26  4  9  7 15               -0.001519639
   6503319.371 9   5030689.29647  22024957.149    22024958.1584   22024966.2474
     -2530.594       -1971.891
  -1913141.370 9  -1487156.77548  20914336.477    20914337.2584   20914344.1634
       -49.521         -38.588
  -2096841.242 9  -1623634.20147  22531601.118    22531602.5004   22531610.0544
      -687.001        -535.325
 -11278500.862 9  -8765903.32847  22955923.531    22955925.1574   22955933.7704
      4280.591        3335.525
 -13132489.010 9 -10200912.08847  23055548.776    23055549.2394   23055556.7894
      3937.687        3068.328
  -6247819.702 9  -4857283.70148  19781574.138    19781575.1404   19781582.0424
       403.083         314.091
    903633.416 9    712078.23956  23971978.986    23971979.0884   23971987.2755
     -1520.278       -1184.632
 97  5 22 16 34 29.9980000  0  7 27  2 26  4  9  7 15               -0.001535197
   6579414.360 9   5089984.06047  22039437.621    22039438.5474   22039446.5974
     -2542.151       -1980.897
  -1911535.033 9  -1485905.09848  20914642.176    20914642.9484   20914649.8584
       -57.218         -44.585
  -2076015.621 9  -1607406.45847  22535564.270    22535565.5164   22535573.0744
      -701.096        -546.308
 -11406861.917 9  -8865924.82846  22931497.045    22931498.7954   22931507.3924
      4276.946        3332.685
 -13250538.930 9 -10292899.00347  23033084.136    23033085.1314   23033092.5774
      3932.438        3064.237
  -6259697.531 9  -4866539.14548  19779313.929    19779314.8764   19779321.7724
       388.937         303.068
    949478.645 9    747801.76756  23980702.904    23980703.2085   23980711.4255
     -1535.822       -1196.744
 97  5 22 16 34 59.9980000  0  7 27  2 26  4  9  7 15               -0.001550776
   6655832.880 9   5149530.91247  22053979.339    22053980.5304   22053988.6074
     -2553.438       -1989.692
  -1909722.071 9  -1484492.41648  20914987.182    20914987.9404   20914994.8714
       -64.685         -50.404
  -2054785.387 9  -1590863.42847  22539604.306    22539605.5154   22539613.1014
      -715.307        -557.382
 -11535137.437 9  -8965879.70746  22907087.099    22907088.6904   22907097.3094
      4273.536        3330.028
 -13368454.150 9 -10384780.94847  23010645.706    23010646.5584   23010654.0094
      3927.451        3060.351
  -6271160.621 9  -4875471.41748  19777132.574    19777133.5184   19777140.3774
       374.110         291.514
    995771.324 9    783873.88746  23989512.307    23989512.4954   23989520.7504
     -1551.447       -1208.920
 97  5 22 16 35 29.9980000  0  7 27  2 26  4  9  7 15               -0.001566375
   6732582.891 9   5209336.06347  22068584.550    22068585.6184   22068593.6674
     -2563.564       -1997.582
  -1907676.901 9  -1482898.78748  20915376.341    20915377.1504   20915384.0714
       -72.260         -56.306
  -2033125.546 9  -1573985.64647  22543725.829    22543727.2164   22543734.8714
      -729.133        -568.156
 -11663297.802 9  -9065744.85146  22882698.672    22882700.4534   22882709.0074
      4269.901        3327.196
 -13486211.874 9 -10476540.16647  22988237.340    22988237.9234   22988245.3874
      3922.392        3056.409
  -6282175.507 9  -4884054.43648  19775036.450    19775037.4384   19775044.2824
       359.865         280.414
   1042535.088 9    820313.15546  23998411.241    23998411.4114   23998419.5804
     -1566.593       -1220.722
 97  5 22 16 35 59.9980000  0  7 27  2 26  4  9  7 15               -0.001581993
   6809617.718 9   5269363.15747  22083243.896    22083244.9044   22083252.8634
     -2572.446       -2004.503
  -1905411.628 9  -1481133.64948  20915807.522    20915808.2374   20915815.1724
       -78.947         -61.517
  -2011061.229 9  -1556792.67747  22547924.580    22547925.9114   22547933.5244
      -742.022        -578.199
 -11791353.047 9  -9165528.08046  22858330.517    22858332.2314   22858340.7504
      4266.445        3324.503
 -13603804.204 9 -10568170.51647  22965859.897    22965860.7984   22965868.2514
      3916.624        3051.915
  -6292767.945 9  -4892308.28248  19773020.750    19773021.7794   19773028.6054
       346.023         269.628
   1089744.106 9    857099.48145  24007394.672    24007394.8184   24007403.0724
     -1580.993       -1231.943
 97  5 22 16 36 29.9980000  0  7 27  2 26  4  9  7 15               -0.001597620
   6886927.140 9   5329604.22647  22097955.231    22097956.3894   22097964.3904
     -2581.520       -2011.574
  -1902946.552 9  -1479212.81948  20916276.690    20916277.3194   20916284.2804
       -85.397         -66.543
  -1988605.221 9  -1539294.51247  22552197.957    22552199.1984   22552206.7884
      -754.906        -588.238
 -11919273.614 9  -9265206.36147  22833988.116    22833989.6704   22833998.2164
      4261.619        3320.742
 -13721200.159 9 -10659647.84847  22943520.320    22943521.0434   22943528.5394
      3909.633        3046.467
  -6302939.802 9  -4900234.39748  19771085.137    19771086.1524   19771092.9644
       332.362         258.983
   1137395.661 8    894230.55045  24016462.443    24016462.6514   24016470.8174
     -1595.754       -1243.445
 97  5 22 16 36 59.9980000  0  7 27  2 26  4  9  7 15               -0.001613222
   6964526.354 9   5390071.09647  22112722.158    22112723.1024   22112731.0564
     -2592.005       -2019.744
  -1900266.719 9  -1477124.65048  20916786.537    20916787.2504   20916794.2684
       -93.649         -72.973
  -1965750.375 9  -1521485.55847  22556547.139    22556548.3664   22556555.9044
      -769.104        -599.302
 -12047033.214 9  -9364759.21047  22809676.324    22809677.7724   22809686.3694
      4255.288        3315.809
 -13838358.308 9 -10750939.86947  22921225.957    22921226.5894   22921234.0284
      3900.565        3039.401
  -6312694.566 9  -4907835.50548  19769228.932    19769229.9144   19769236.7204
       317.717         247.572
   1185507.259 8    931720.02745  24025618.050    24025618.1024   24025626.3044
     -1612.038       -1256.134
 97  5 22 16 37 29.9980000  0  7 27  2 26  4  9  7 15               -0.001628775
   7042406.281 9   5450756.70847  22127542.183    22127543.1804   22127551.1284
     -2599.931       -2025.920
  -1897360.680 9  -1474860.20748  20917339.416    20917340.2174   20917347.2654
       -99.961         -77.892
  -1942503.732 9  -1503371.29247  22560970.793    22560972.1254   22560979.6014
      -780.659        -608.306
 -12174623.985 9  -9464180.51947  22785396.654    22785398.1334   22785406.6514
      4250.916        3312.402
 -13955261.328 9 -10842033.10147  22898980.034    22898980.6324   22898988.0914
      3893.123        3033.602
  -6322048.275 9  -4915124.09548  19767448.877    19767449.9054   19767456.7284
       305.906         238.368
   1234077.147 9    969566.63646  24034860.199    24034860.5784   24034868.9444
     -1625.943       -1266.968
 97  5 22 16 37 59.9980000  0  7 27  2 26  4  9  7 15               -0.001644272
   7120571.079 9   5511664.30447  22142416.681    22142417.5244   22142425.4144
     -2609.552       -2033.417
  -1894228.935 9  -1472419.89448  20917935.368    20917936.1634   20917943.2364
      -107.319         -83.625
  -1918866.560 9  -1484952.72547  22565468.623    22565470.0494   22565477.5714
      -793.524        -618.330
 -12302043.849 9  -9563468.64947  22761149.327    22761150.9364   22761159.4954
      4245.261        3307.995
 -14071894.968 9 -10932916.41447  22876785.177    22876785.9444   22876793.3154
      3884.311        3026.736
  -6331004.680 9  -4922103.10248  19765744.503    19765745.4874   19765752.3354
       292.547         227.959
   1283107.941 9   1007772.47846  24044190.352    24044190.8554   24044199.2504
     -1641.252       -1278.898
 97  5 22 16 38 29.9980000  0  7 27  2 26  4  9  7 15               -0.001659731
   7199022.828 9   5572795.48847  22157345.633    22157346.4394   22157354.3624
     -2619.315       -2041.025
  -1890875.201 9  -1469806.60048  20918573.577    20918574.3894   20918581.4734
      -114.979         -89.594
  -1894850.138 9  -1466238.64247  22570038.898    22570040.1864   22570047.7864
      -806.399        -628.363
 -12429298.124 9  -9662627.72547  22736933.367    22736935.1464   22736943.7724
      4239.892        3303.812
 -14188284.454 9 -11023609.48547  22854636.897    22854637.6924   22854645.0414
      3876.585        3020.716
  -6339557.876 9  -4928767.92148  19764116.793    19764117.8084   19764124.6734
       279.126         217.501
   1332592.235 8   1046331.66946  24053606.670    24053607.4784   24053615.8684
     -1656.387       -1290.691
 97  5 22 16 38 59.9980000  0  7 27  2 26  4  9  7 15               -0.001675182
   7277751.187 9   5634142.21947  22172327.145    22172328.0264   22172335.9224
     -2628.205       -2047.952
  -1887314.382 9  -1467031.94248  20919251.265    20919252.0224   20919259.1024
      -121.427         -94.618
  -1870462.099 9  -1447234.99247  22574679.734    22574681.0534   22574688.6604
      -818.601        -637.871
 -12556422.553 9  -9761685.64247  22712742.318    22712744.1934   22712752.7514
      4235.838        3300.653
 -14304479.794 9 -11114151.27247  22832525.534    22832526.3774   22832533.6594
      3870.862        3016.256
  -6347729.107 9  -4935135.10648  19762561.867    19762562.8984   19762569.7424
       266.417         207.598
   1382505.919 8   1085225.38046  24063104.468    24063105.7764   24063114.2354
     -1670.331       -1301.557
 97  5 22 16 39 29.9980000  0  7 27  2 26  4  9  7 15               -0.001690642
   7356765.361 9   5695711.66347  22187363.015    22187364.0054   22187371.8764
     -2638.874       -2056.265
  -1883543.481 9  -1464093.58148  20919968.865    20919969.6274   20919976.7164
      -129.390        -100.823
  -1845679.427 9  -1427923.81347  22579395.765    22579397.0754   22579404.6214
      -832.947        -649.050
 -12683393.272 9  -9860623.78047  22688580.640    22688582.4134   22688591.0034
      4229.462        3295.685
 -14420489.654 9 -11204548.52647  22810449.485    22810450.4244   22810457.6544
      3863.820        3010.769
  -6355492.607 9  -4941184.57448  19761084.584    19761085.5954   19761092.3824
       251.707         196.135
   1432858.498 8   1124461.09146  24072686.049    24072687.5894   24072696.0434
     -1685.967       -1313.741
 97  5 22 16 39 59.9980000  0  7 27  2 26  4  9  7 15               -0.001706116
   7436076.174 9   5757512.24747  22202455.373    22202456.3924   22202464.3184
     -2648.560       -2063.813
  -1879560.533 9  -1460989.99548  20920726.771    20920727.5744   20920734.6604
      -136.445        -106.321
  -1820489.967 9  -1408295.66447  22584189.059    22584190.4704   22584197.9514
      -846.424        -659.551
 -12810198.091 9  -9959432.65647  22664450.490    22664452.2164   22664460.8134
      4224.032        3291.454
 -14536325.594 9 -11294810.26147  22788406.941    22788407.5624   22788414.8104
      3858.482        3006.609
  -6362844.179 9  -4946913.06148  19759685.682    19759686.6864   19759693.4574
       238.165         185.583
   1483653.305 8   1164041.44046  24082351.710    24082353.5424   24082362.0024
     -1700.471       -1325.042
 97  5 22 16 40 29.9980000  0  7 27  2 26  4  9  7 15               -0.001721609
   7515688.861 9   5819548.05347  22217605.262    22217606.1824   22217614.1554
     -2658.564       -2071.608
  -1875345.825 9  -1457705.81348  20921528.855    20921529.6104   20921536.6874
      -144.159        -112.332
  -1794875.996 9  -1388336.71747  22589063.197    22589064.5904   22589072.0424
      -860.756        -670.719
 -12936825.075 9 -10058102.93847  22640354.114    22640355.7754   22640364.4244
      4218.124        3286.850
 -14651981.549 9 -11384931.73747  22766398.066    22766398.9314   22766406.1734
      3852.026        3001.579
  -6369766.639 9  -4952307.17748  19758368.447    19758369.4064   19758376.1784
       224.018         174.559
   1534898.527 8   1203972.75445  24092103.725    24092105.2574   24092113.7334
     -1715.538       -1336.783
 97  5 22 16 40 59.9980000  0  6 27  2 26  4  9  7                  -0.001737116
   7595573.181 9   5881795.53747  22232806.452    22232807.6054   22232815.6914
     -2667.683       -2078.714
  -1870926.604 9  -1454262.26948  20922369.861    20922370.5444   20922377.6204
      -151.146        -117.776
  -1768854.879 9  -1368060.54747  22594014.810    22594016.2064   22594023.7334
      -874.412        -681.360
 -13063299.905 9 -10156654.67847  22616286.756    22616288.3094   22616297.0374
      4212.851        3282.741
 -14767450.735 9 -11474907.68147  22744424.782    22744425.8254   22744433.0774
      3845.095        2996.178
  -6376294.194 9  -4957393.57348  19757126.408    19757127.2824   19757134.0434
       210.376         163.929
 97  5 22 16 41 29.9980000  0  6 27  2 26  4  9  7                  -0.001752634
   7675714.385 9   5944243.17847  22248056.700    22248057.9194   22248066.1084
     -2676.018       -2085.209
  -1866310.840 9  -1450665.57548  20923248.218    20923248.9064   20923255.9704
      -157.553        -122.769
  -1742445.104 9  -1347481.51347  22599040.481    22599041.8464   22599049.4404
      -887.012        -691.178
 -13189632.729 9 -10255095.76747  22592246.251    22592247.8564   22592256.5904
      4208.566        3279.402
 -14882708.123 9 -11564718.58147  22722491.852    22722492.9974   22722500.3494
      3837.660        2990.384
  -6382427.041 9  -4962172.40348  19755959.460    19755960.2754   19755966.9744
       197.673         154.031
 97  5 22 16 41 59.9980000  0  7 27  2 26  4  9  7 15               -0.001768137
   7756117.570 9   6006894.97147  22263356.900    22263358.0754   22263366.3574
     -2684.078       -2091.489
  -1861480.468 9  -1446901.65348  20924167.519    20924168.1154   20924175.1634
      -164.398        -128.102
  -1715649.502 9  -1326601.84947  22604139.550    22604140.9664   22604148.4994
      -899.250        -700.714
 -13315831.113 9 -10353432.10447  22568231.237    22568232.9424   22568241.6834
      4204.562        3276.282
 -14997718.762 9 -11654337.20947  22700605.940    22700607.1454   22700614.5304
      3829.770        2984.236
  -6388166.594 9  -4966644.77148  19754867.235    19754868.0314   19754874.7184
       184.920         144.094
     38099.27618     19534.47252  24121839.843           0.0005          0.0005
     -1757.186       -1369.236
 97  5 22 16 42 29.9980000  0  7 27  2 26  4  9  7 15               -0.001783622
   7836791.931 9   6069758.06746  22278708.760    22278709.8644   22278718.2754
     -2693.897       -2099.140
  -1856425.017 9  -1442962.34648  20925129.484    20925130.1564   20925137.1814
      -172.141        -134.136
  -1688467.594 9  -1305421.14647  22609312.014    22609313.5384   22609321.0584
      -912.396        -710.958
 -13441876.840 9 -10451649.49347  22544245.605    22544247.1664   22544255.8324
      4198.842        3271.825
 -15112456.651 9 -11743743.31147  22678772.239    22678773.2574   22678780.5664
      3819.918        2976.559
  -6393488.590 9  -4970791.77248  19753854.498    19753855.2914   19753861.9504
       170.536         132.885
     91043.723 8     60789.95555  24131917.775           0.0004          0.0005
     -1771.960       -1380.748
 97  5 22 16 42 59.9980000  0  7 27  2 26  4  9  7 15               -0.001799082
   7917755.685 9   6132846.66846  22294115.706    22294116.7294   22294125.0984
     -2703.213       -2106.400
  -1851155.890 9  -1438856.54048  20926132.135    20926132.8514   20926139.8954
      -178.621        -139.185
  -1660902.775 9  -1283942.10447  22614557.302    22614558.9194   22614566.5284
      -924.652        -720.508
 -13567761.252 9 -10549741.18947  22520290.512    22520292.1604   22520300.6634
      4193.785        3267.884
 -15226920.636 9 -11832935.98547  22656990.338    22656991.4824   22656998.7564
      3811.671        2970.133
  -6398403.327 9  -4974621.42448  19752919.291    19752920.0644   19752926.7004
       157.428         122.671
    144413.293 8    102376.53156  24142076.339           0.0004   24142084.2375
     -1785.525       -1391.318
 97  5 22 16 43 29.9980000  0  7 27  2 26  4  9  7 15               -0.001814531
   7999008.361 9   6196160.39546  22309577.575    22309578.6274   22309586.9514
     -2713.950       -2114.766
  -1845684.719 9  -1434593.29648  20927173.189    20927173.9514   20927181.0284
      -186.653        -145.444
  -1632970.834 9  -1262176.97047  22619872.686    22619874.2374   22619881.7614
      -937.836        -730.781
 -13693477.830 9 -10647702.08947  22496367.307    22496369.0054   22496377.4104
      4186.762        3262.412
 -15341141.981 9 -11921939.58747  22635254.799    22635255.8544   22635263.1364
      3802.763        2963.192
  -6402923.190 9  -4978143.38248  19752059.191    19752059.9514   19752066.5994
       143.587         111.886
    198194.963 8    144284.28545  24152300.088    24152310.4005   24152319.3924
     -1800.264       -1402.803
 97  5 22 16 43 59.9980000  0  7 27  2 26  4  9  7 15               -0.001829957
   8080560.059 9   6259707.12046  22325096.284    22325097.4804   22325105.8024
     -2722.857       -2121.707
  -1839989.377 9  -1430155.37448  20928257.037    20928257.7424   20928264.8094
      -192.909        -150.319
  -1604668.910 9  -1240123.54747  22625258.435    22625259.8984   22625267.4254
      -948.972        -739.459
 -13818991.465 9 -10745504.86847  22472482.888    22472484.4834   22472492.8744
      4180.683        3257.675
 -15455127.408 9 -12010759.33847  22613564.140    22613565.1104   22613572.4234
      3796.296        2958.153
  -6407050.049 9  -4981359.10548  19751273.802    19751274.6064   19751281.2854
       131.557         102.512
    252400.298 8    186522.21355  24162620.310    24162625.8674   24162633.8735
     -1813.372       -1413.017
 97  5 22 16 44 29.9980000  0  7 27  2 26  4  9  7 15               -0.001845387
   8162385.715 9   6323467.32346  22340667.153    22340668.4634   22340676.7444
     -2731.541       -2128.474
  -1834106.050 9  -1425570.96848  20929376.567    20929377.2744   20929384.3354
      -198.901        -154.988
  -1576024.748 9  -1217803.42447  22630709.293    22630710.7314   22630718.2724
      -960.159        -748.176
 -13944318.911 9 -10843162.55947  22448633.754    22448635.3794   22448643.7334
      4175.110        3253.332
 -15568920.041 9 -12099428.87547  22591910.110    22591911.0924   22591918.3634
      3790.304        2953.484
  -6410815.031 9  -4984292.84448  19750557.311    19750558.1664   19750564.8614
       120.171          93.640
    307005.907 8    229072.04146  24173013.328    24173016.1855   24173025.3694
     -1826.396       -1423.166
 97  5 22 16 44 59.9980000  0  7 27  2 26  4  9  7 15               -0.001860807
   8244479.466 9   6387436.43546  22356289.275    22356290.4614   22356298.7034
     -2740.162       -2135.191
  -1828009.509 9  -1420820.42448  20930536.603    20930537.4034   20930544.4684
      -206.520        -160.925
  -1547021.844 9  -1195203.78947  22636228.218    22636229.8254   22636237.3974
      -972.256        -757.602
 -14069460.118 9 -10940675.13247  22424820.008    22424821.7614   22424830.0374
      4168.672        3248.316
 -15682513.710 9 -12187943.35647  22570293.925    22570294.8534   22570302.1624
      3783.653        2948.301
  -6414224.501 9  -4986949.56648  19749908.574    19749909.3784   19749916.0804
       108.010          84.164
    362024.681 8    271943.79246  24183483.912    24183486.0954   24183495.1614
     -1840.465       -1434.129
 97  5 22 16 45 29.9980000  0  7 27  2 26  4  9  7 15               -0.001876226
   8326809.050 9   6451589.30746  22371956.133    22371957.3164   22371965.5804
     -2748.080       -2141.361
  -1821688.529 9  -1415894.99148  20931739.549    20931740.2424   20931747.3274
      -214.587        -167.211
  -1517678.445 9  -1172338.83047  22641812.149    22641813.6454   22641821.3224
      -983.763        -766.569
 -14194421.302 9 -11038047.42547  22401040.842    22401042.4374   22401050.7884
      4162.450        3243.468
 -15795915.302 9 -12276308.18147  22548714.281    22548715.2264   22548722.5854
      3776.792        2942.955
  -6417280.154 9  -4989330.58748  19749327.047    19749327.9064   19749334.6184
        96.084          74.871
    417454.367 8    315135.69245  24194032.518    24194033.9674   24194043.2654
     -1854.545       -1445.100
 97  5 22 16 45 59.9980000  0  7 27  2 26  4  9  7 15               -0.001891641
   8409361.682 9   6515915.98646  22387665.224    22387666.6104   22387674.8314
     -2755.949       -2147.493
  -1815130.145 9  -1410784.56948  20932987.396    20932988.2744   20932995.3644
      -223.028        -173.788
  -1487987.796 9  -1149203.28247  22647462.091    22647463.5274   22647471.2954
      -996.049        -776.142
 -14319211.016 9 -11135286.10347  22377294.340    22377295.7144   22377303.9894
      4156.625        3238.928
 -15909114.977 9 -12364515.66247  22527173.228    22527173.9604   22527181.4304
      3769.439        2937.225
  -6419979.908 9  -4991434.28248  19748813.225    19748814.1314   19748820.8364
        83.450          65.026
    473294.298 8    358647.16345  24204658.344    24204659.6584   24204669.3734
     -1868.492       -1455.968
 97  5 22 16 46 29.9980000  0  7 27  2 26  4  9  7 15               -0.001907043
   8492164.427 9   6580437.54346  22403422.108    22403423.4674   22403431.6364
     -2763.404       -2153.302
  -1808296.418 9  -1405459.59648  20934287.832    20934288.7024   20934295.7794
      -231.706        -180.550
  -1457907.573 9  -1125764.16447  22653186.186    22653187.6494   22653195.3654
     -1008.402        -785.768
 -14443819.139 9 -11232383.29947  22353582.278    22353583.5644   22353591.8104
      4151.169        3234.677
 -16022078.807 9 -12452539.36447  22505676.759    22505677.6104   22505685.0924
      3762.184        2931.572
  -6422280.126 9  -4993226.65148  19748375.530    19748376.4004   19748383.0884
        70.667          55.065
    529569.925 8    402498.18246  24215367.764    24215368.8504   24215378.1804
     -1882.275       -1466.708
 97  5 22 16 46 59.9980000  0  7 27  2 26  4  9  7 15               -0.001922462
   8575173.346 9   6645119.75746  22419218.260    22419219.6464   22419227.7554
     -2770.902       -2159.144
  -1801226.247 9  -1399950.38148  20935633.299    20935634.1264   20935641.2034
      -239.581        -186.686
  -1427479.935 9  -1102054.33947  22658976.528    22658977.8894   22658985.6014
     -1020.244        -794.995
 -14568266.906 9 -11329355.52747  22329900.470    22329901.9174   22329910.1544
      4145.068        3229.923
 -16134835.143 9 -12540401.38947  22484219.537    22484220.7874   22484228.2594
      3754.705        2925.744
  -6424211.780 9  -4994731.83048  19748008.050    19748008.8444   19748015.5354
        57.836          45.067
    586237.441 9    446654.63746  24226151.887    24226152.4604   24226161.6144
     -1895.642       -1477.124
 97  5 22 16 47 29.9980000  0  7 27  2 26  4  9  7 15               -0.001937879
   8658438.347 9   6710001.52646  22435063.280    22435064.5064   22435072.6244
     -2779.813       -2166.088
  -1793907.846 9  -1394247.73748  20937025.910    20937026.7984   20937033.8454
      -248.054        -193.289
  -1396674.474 9  -1078050.08347  22664838.773    22664840.0824   22664847.7224
     -1033.124        -805.032
 -14692505.733 9 -11426164.94747  22306258.625    22306260.0104   22306268.3284
      4137.798        3224.258
 -16247341.196 9 -12628068.39147  22462810.217    22462811.5614   22462819.0604
      3745.941        2918.915
  -6425733.202 9  -4995917.34948  19747718.524    19747719.3004   19747725.9944
        43.980          34.270
    643321.505 9    491135.66046  24237014.703    24237015.3764   24237024.4714
     -1909.593       -1487.995
 97  5 22 16 47 59.9980000  0  8 27  2 26 24  4  9  7 15            -0.001953284
   8741983.291 9   6775101.42546  22450961.353    22450962.6214   22450970.7904
     -2789.158       -2173.370
  -1786330.786 9  -1388343.54248  20938467.722    20938468.6514   20938475.7494
      -256.250        -199.675
  -1365473.197 9  -1053737.42147  22670776.017    22670777.4104   22670785.2364
     -1046.119        -815.158
   -525606.89517   -377872.71154  24403004.827    24403002.4705   24403019.2995
      4400.931        3429.297
 -14816519.839 9 -11522799.25547  22282659.278    22282660.8424   22282669.1544
      4130.448        3218.531
 -16359569.282 9 -12715518.79447  22441454.172    22441455.2014   22441462.7394
      3736.638        2911.666
  -6426824.764 9  -4996767.91348  19747510.783    19747511.5724   19747518.2874
        29.535          23.014
    700826.936 9    535945.03846  24247957.472    24247958.4044   24247967.3864
     -1923.424       -1498.772
 97  5 22 16 48 29.9980000  0  8 27  2 26 24  4  9  7 15            -0.001968706
   8825784.740 9   6840401.21146  22466908.599    22466909.5364   22466917.6924
     -2797.671       -2180.003
  -1778547.164 9  -1382278.39248  20939948.955    20939949.8274   20939956.9434
      -262.597        -204.621
  -1333919.032 9  -1029149.77147  22676780.736    22676782.0144   22676789.7744
     -1057.403        -823.950
   -657672.873 8   -480781.32555  24377873.094    24377869.7805          0.0005
      4403.082        3430.973
 -14940325.016 9 -11619270.77447  22259099.588    22259101.4354   22259109.7304
      4123.001        3212.728
 -16471544.767 9 -12802772.36047  22420145.884    22420146.9374   22420154.5024
      3728.189        2905.082
  -6427514.571 9  -4997305.42148  19747379.516    19747380.2894   19747387.0424
        16.403          12.782
    758722.230 9    581058.18946  24258974.874    24258975.6484   24258984.5264
     -1936.307       -1508.811
 97  5 22 16 48 59.9980000  0  8 27  2 26 24  4  9  7 15            -0.001984136
   8909845.224 9   6905902.84146  22482904.947    22482905.7804   22482913.9664
     -2805.941       -2186.448
  -1770575.234 9  -1376066.51048  20941466.017    20941466.8704   20941474.0034
      -268.636        -209.327
  -1302025.002 9  -1004297.28547  22682849.996    22682851.3044   22682858.9634
     -1068.506        -832.602
   -789794.752 9   -583733.57655  24352730.830    24352730.3274   24352743.2045
      4405.370        3432.756
 -15063896.370 9 -11715560.07847  22235584.657    22235586.5594   22235594.8584
      4115.612        3206.970
 -16583247.784 9 -12889813.62447  22398889.652    22398890.5454   22398898.0684
      3719.190        2898.070
  -6427809.913 9  -4997535.55448  19747323.279    19747324.0614   19747330.8414
         3.632           2.830
    817010.123 9    626477.25045  24270067.186    24270067.5334   24270076.5094
     -1949.146       -1518.815
 97  5 22 16 49 29.9980000  0  8 27  2 26 24  4  9  7 15            -0.001999580
   8994143.308 9   6971589.59646  22498946.332    22498947.1814   22498955.4724
     -2814.282       -2192.947
  -1762415.795 9  -1369708.51948  20943018.790    20943019.5534   20943026.7214
      -275.943        -215.020
  -1269805.833 9   -979191.44647  22688981.191    22688982.4654   22688990.1214
     -1079.841        -841.435
   -922001.280 8   -686751.56146  24327572.565    24327572.5854   24327584.8444
      4407.849        3434.688
 -15187258.227 9 -11811686.13547  22212109.643    22212111.4274   22212119.7934
      4107.940        3200.992
 -16694690.371 9 -12976651.95247  22377682.772    22377683.7224   22377691.2364
      3709.710        2890.683
  -6427727.606 9  -4997471.41748  19747338.895    19747339.6724   19747346.4984
        -9.519          -7.417
    875673.284 9    672188.74145  24281230.449    24281230.7674   24281239.9644
     -1962.357       -1529.109
 97  5 22 16 49 59.9980000  0  8 27  2 26 24  4  9  7 15            -0.002015011
   9078684.688 9   7037465.92246  22515034.349    22515035.0304   22515043.2924
     -2821.792       -2198.799
  -1754040.542 9  -1363182.36248  20944612.603    20944613.3544   20944620.4944
      -282.402        -220.054
  -1237253.566 9   -953826.04647  22695175.636    22695176.9784   22695184.5634
     -1090.348        -849.622
  -1054296.705 8   -789838.76145  24302398.129    24302397.5644   24302409.7434
      4411.547        3437.569
 -15310390.557 9 -11907633.36047  22188678.480    22188680.0624   22188688.4384
      4100.730        3195.374
 -16805848.025 9 -13063268.26147  22356529.895    22356531.1054   22356538.5904
      3700.834        2883.767
  -6427262.980 9  -4997109.36748  19747427.298    19747428.1064   19747434.9044
       -21.400         -16.675
    934728.696 8    718205.99854  24292468.166    24292467.4034          0.0005
     -1974.808       -1538.811
 97  5 22 16 50 29.9970000  0  8 27  2 26 24  4  9  7 15            -0.002030425
   9163453.132 9   7103519.20846  22531165.117    22531166.0354   22531174.3324
     -2829.531       -2204.829
  -1745461.659 9  -1356497.53148  20946245.138    20946245.8784   20946253.0274
      -289.606        -225.667
  -1204380.894 9   -928210.97847  22701430.946    22701432.4224   22701439.9504
     -1101.206        -858.083
  -1186684.350 8   -892997.78945  24277204.828    24277205.2474   24277216.9444
      4414.471        3439.848
 -15433284.419 9 -12003394.74347  22165292.349    22165294.1214   22165302.5044
      4092.657        3189.083
 -16916731.087 9 -13149670.59247  22335429.602    22335430.6814   22335438.2284
      3691.578        2876.554
  -6426448.133 9  -4996474.42248  19747582.348    19747583.1694   19747589.9694
       -32.980         -25.699
    994162.160 8    764517.73954  24303778.070           0.0005          0.0005
     -1987.501       -1548.702
 97  5 22 16 50 59.9970000  0  7 27  2 26 24  4  9  7               -0.002045803
   9248450.626 9   7169750.96946  22547339.572    22547340.6564   22547348.9004
     -2837.653       -2211.158
  -1736655.585 9  -1349635.66848  20947920.916    20947921.6504   20947928.7734
      -298.245        -232.399
  -1171169.301 9   -902331.85047  22707750.908    22707752.3134   22707759.9294
     -1113.567        -867.715
  -1319169.540 8   -996232.94945  24251993.751    24251994.3944   24252005.6444
      4417.074        3441.876
 -15555950.488 9 -12098978.62547  22141949.942    22141951.5374   22141959.9404
      4084.556        3182.771
 -17027331.585 9 -13235852.75247  22314382.861    22314384.0414   22314391.6284
      3681.340        2868.577
  -6425285.965 9  -4995568.83848  19747803.508    19747804.3244   19747811.1264
       -45.182         -35.207
 97  5 22 16 51 29.9970000  0  7 27  2 26 24  4  9  7               -0.002061132
   9333688.877 9   7236170.31547  22563559.863    22563561.0404   22563569.4364
     -2844.560       -2216.540
  -1727591.946 9  -1342573.10848  20949645.651    20949646.3944   20949653.5384
      -305.542        -238.085
  -1137598.862 9   -876173.09347  22714139.093    22714140.5944   22714148.1604
     -1124.129        -875.945
  -1451738.935 8  -1099533.88045  24226765.794    24226767.2334   24226778.4204
      4420.945        3444.892
 -15678382.999 9 -12194380.54547  22118651.764    22118653.4264   22118661.6844
      4077.974        3177.642
 -17137640.107 9 -13321807.39447  22293391.849    22293392.9884   22293400.6134
      3672.868        2861.975
  -6423763.787 9  -4994382.72448  19748093.158    19748093.9774   19748100.7804
       -55.811         -43.489
 97  5 22 16 51 59.9970000  0  7 27  2 26 24  4  9  7               -0.002076418
   9419164.364 9   7302774.53047  22579825.614    22579826.5464   22579835.0034
     -2852.911       -2223.048
  -1718288.414 9  -1335323.62148  20951416.010    20951416.7964   20951423.9594
      -313.859        -244.565
  -1103679.938 9   -849742.78047  22720593.760    22720595.1894   22720602.7724
     -1136.294        -885.424
  -1584379.103 8  -1202889.74245  24201525.902    24201526.8444   24201537.6494
      4422.201        3445.871
 -15800594.454 9 -12289610.18147  22095395.641    22095397.3474   22095405.5294
      4070.286        3171.651
 -17247671.073 9 -13407545.75747  22272453.682    22272454.7094   22272462.3964
      3663.449        2854.636
  -6421902.634 9  -4992932.47348  19748447.321    19748448.1284   19748454.9454
       -67.520         -52.613
 97  5 22 16 52 29.9970000  0  7 27  2 26 24  4  9  7               -0.002091697
   9504846.647 9   7369539.87846  22596130.442    22596131.4344   22596139.8844
     -2859.357       -2228.070
  -1708773.942 9  -1327909.76248  20953226.487    20953227.3504   20953234.5124
      -320.564        -249.790
  -1069438.184 9   -823060.91747  22727109.898    22727111.2174   22727118.8714
     -1146.567        -893.429
  -1717082.431 8  -1306294.92545  24176273.627    24176274.1344   24176285.1964
      4424.468        3447.637
 -15922619.727 9 -12384694.77347  22072175.130    22072176.6334   22072184.8234
      4064.660        3167.267
 -17357463.525 9 -13493098.26847  22251560.796    22251561.8614   22251569.5454
      3655.844        2848.710
  -6419719.330 9  -4991231.19548  19748862.762    19748863.6044   19748870.4094
       -78.236         -60.963
 97  5 22 16 52 59.9970000  0  7 27  2 26 24  4  9  7               -0.002106977
   9590747.988 9   7436475.93846  22612476.854    22612477.9454   22612486.4894
     -2867.720       -2234.587
  -1699034.093 9  -1320320.28948  20955080.000    20955080.8074   20955087.9594
      -329.111        -256.450
  -1034865.024 9   -796120.80647  22733688.868    22733690.2534   22733697.8854
     -1158.398        -902.648
  -1849826.730 8  -1409731.87045  24151012.754    24151013.8384   24151024.5294
      4424.703        3447.821
 -16044458.365 9 -12479633.90347  22048989.791    22048991.4444   22048999.6454
      4057.381        3161.596
 -17467004.131 9 -13578454.53647  22230715.970    22230716.9344   22230724.6314
      3646.657        2841.551
  -6417183.530 9  -4989255.24748  19749345.384    19749346.1474   19749352.9414
       -91.065         -70.960
 97  5 22 16 53 29.9970000  0  7 27  2 26 24  4  9  7               -0.002122265
   9676880.331 9   7503591.96946  22628867.373    22628868.3524   22628877.1004
     -2874.944       -2240.216
  -1689059.352 9  -1312547.78348  20956978.105    20956978.9394   20956986.0934
      -336.282        -262.038
   -999975.463 9   -768934.17447  22740328.067    22740329.4734   22740337.1184
     -1168.107        -910.213
  -1982594.366 8  -1513187.12946  24125747.374    24125749.0714   24125759.8174
      4425.666        3448.571
 -16166090.637 9 -12574412.24747  22025843.934    22025845.5794   22025853.7364
      4050.707        3156.395
 -17576297.986 9 -13663618.52447  22209917.901    22209919.0054   22209926.6624
      3638.857        2835.473
  -6414282.704 9  -4986994.86048  19749897.337    19749898.1004   19749904.8824
      -102.703         -80.028
 97  5 22 16 53 59.9970000  0  7 27  2 26 24  4  9  7               -0.002137565
   9763229.705 9   7570877.10046  22645298.833    22645300.1134   22645308.9884
     -2882.750       -2246.299
  -1678874.549 9  -1304611.58948  20958916.339    20958917.0784   20958924.2144
      -343.797        -267.894
   -964792.218 9   -741518.66547  22747023.279    22747024.6274   22747032.2694
     -1178.447        -918.270
  -2115383.297 8  -1616658.92945  24100479.065    24100480.1764   24100490.8244
      4425.920        3448.769
 -16287510.178 9 -12669024.83447  22002738.490    22002740.1774   22002748.3214
      4042.760        3150.203
 -17685346.897 9 -13748591.64847  22189166.573    22189167.6534   22189175.2744
      3630.036        2828.599
  -6411035.741 9  -4984464.75448  19750515.175    19750515.9964   19750522.7354
      -114.932         -89.557
 97  5 22 16 54 29.9970000  0  7 27  2 26 24  4  9  7               -0.002152872
   9849811.861 9   7638343.65946  22661774.845    22661776.1294   22661785.1684
     -2889.870       -2251.847
  -1668464.117 9  -1296499.58748  20960897.334    20960898.1364   20960905.2804
      -350.716        -273.285
   -929311.453 9   -713871.33647  22753775.077    22753776.3734   22753784.1114
     -1187.489        -925.316
  -2248200.630 8  -1720152.99645  24075205.501    24075205.9584   24075216.6634
      4428.114        3450.478
 -16408682.008 9 -12763444.38947  21979680.126    21979681.9254   21979689.9784
      4034.761        3143.970
 -17794129.500 9 -13833357.26647  22168465.892    22168466.9534   22168474.5504
      3621.486        2821.937
  -6407419.707 9  -4981647.06248  19751203.310    19751204.0934   19751210.8544
      -126.527         -98.592
 97  5 22 16 54 59.9970000  0  7 27  2 26 24  4  9  7               -0.002168170
   9936627.622 9   7705992.23946  22678295.424    22678296.6744   22678305.6934
     -2897.232       -2257.583
  -1657823.838 9  -1288208.48448  20962922.149    20962922.9504   20962930.0704
      -358.160        -279.086
   -893538.618 9   -685996.40147  22760582.379    22760583.8034   22760591.5834
     -1196.784        -932.559
  -2381068.803 8  -1823686.51245  24049920.519    24049921.8724   24049932.3924
      4430.235        3452.131
 -16529578.113 9 -12857649.10047  21956674.331    21956676.0684   21956684.1834
      4025.363        3136.646
 -17902623.606 9 -13917898.08547  22147820.136    22147821.1904   22147828.6984
      3611.945        2814.503
  -6403436.070 9  -4978542.92448  19751961.350    19751962.1324   19751968.9454
      -138.491        -107.915
 97  5 22 16 55 29.9970000  0  7 27  2 26 24  4  9  7               -0.002183464
  10023657.215 9   7773807.43346  22694856.621    22694857.9444   22694866.9104
     -2903.600       -2262.545
  -1646959.232 9  -1279742.58248  20964989.591    20964990.4394   20964997.5734
      -365.026        -284.436
   -857489.137 9   -657905.91547  22767442.328    22767443.7434   22767451.4614
     -1205.600        -939.429
  -2514006.468 8  -1927274.27945  24024623.227    24024624.7474   24024635.2764
      4433.123        3454.381
 -16650189.292 9 -12951631.80347  21933722.873    21933724.5114   21933732.5184
      4016.445        3129.697
 -18010829.008 9 -14002213.93447  22127229.267    22127230.3194   22127237.8334
      3602.660        2807.267
  -6399095.634 9  -4975160.76448  19752787.209    19752788.0884   19752794.9014
      -149.871        -116.782
 97  5 22 16 55 59.9970000  0  7 27  2 26 24  4  9  7               -0.002198765
  10110879.459 9   7841772.75946  22711454.517    22711455.7874   22711464.8444
     -2910.354       -2267.808
  -1635879.526 9  -1271109.06548  20967097.990    20967098.8514   20967106.0074
      -372.864        -290.543
   -821163.325 9   -629600.09647  22774354.794    22774356.3264   22774364.0424
     -1215.291        -946.980
  -2647023.038 8  -2030923.40846  23999310.683    23999312.4214   23999322.9784
      4435.372        3456.134
 -16770527.403 9 -13045401.70647  21910823.186    21910824.8944   21910832.8894
      4006.950        3122.299
 -18118743.174 9 -14086302.84147  22106693.766    22106694.8854   22106702.3834
      3592.582        2799.415
  -6394402.096 9  -4971503.45348  19753680.325    19753681.2454   19753688.0904
      -162.425        -126.565
 97  5 22 16 56 29.9970000  0  7 27  2 26 24  4  9  7               -0.002214092
  10198287.852 9   7909883.10346  22728087.679    22728089.0614   22728098.2324
     -2916.365       -2272.492
  -1624569.154 9  -1262295.80248  20969250.265    20969251.1414   20969258.2864
      -380.623        -296.589
   -784554.061 9   -601073.44647  22781321.180    22781322.7804   22781330.5924
     -1224.924        -954.486
  -2780114.626 8  -2134631.13845  23973984.239    23973985.8914   23973996.5844
      4437.457        3457.759
 -16890590.959 9 -13138957.66747  21887975.792    21887977.5054   21887985.5694
      3997.916        3115.259
 -18226366.582 9 -14170165.18847  22086213.668    22086214.7344   22086222.2384
      3582.751        2791.754
  -6389329.703 9  -4967550.93348  19754645.513    19754646.4724   19754653.3474
      -175.115        -136.453
 97  5 22 16 56 59.9970000  0  7 27  2 26 24  4  9  7               -0.002229435
  10285891.017 9   7978145.24546  22744758.100    22744759.4254   22744768.6914
     -2922.563       -2277.322
  -1613002.582 9  -1253282.91448  20971451.289    20971452.2064   20971459.3484
      -389.225        -303.292
   -747622.688 9   -572295.78447  22788349.098    22788350.6364   22788358.4144
     -1235.777        -962.943
  -2913230.385 8  -2238357.68545  23948652.711    23948654.7124   23948665.3834
      4438.031        3458.206
 -17010370.585 9 -13232292.39947  21865182.341    21865184.1884   21865192.2364
      3988.915        3108.245
 -18333671.878 9 -14253779.65047  22065794.253    22065795.1854   22065802.6614
      3572.440        2783.719
  -6383853.529 9  -4963283.77448  19755687.529    19755688.5404   19755695.4104
      -188.570        -146.938
 97  5 22 16 57 29.9970000  0  7 27  2 26 24  4  9  7               -0.002244826
  10373644.148 9   8046524.24746  22761456.733    22761458.3164   22761467.5684
     -2928.646       -2282.062
  -1601218.353 9  -1244100.41848  20973693.716    20973694.7074   20973701.8524
      -397.175        -309.487
   -710404.883 9   -543294.93347  22795431.436    22795432.9474   22795440.8764
     -1246.443        -971.254
  -3046391.158 8  -2342119.20545  23923312.503    23923314.9204   23923325.5294
      4438.293        3458.410
 -17129940.499 9 -13325463.71347  21842428.889    21842430.7194   21842438.7994
      3981.446        3102.425
 -18440717.153 9 -14337191.50647  22045424.225    22045425.1194   22045432.6144
      3563.064        2776.414
  -6378023.073 9  -4958740.55348  19756796.946    19756798.0154   19756804.9374
      -201.002        -156.625
 97  5 22 16 57 59.9970000  0  7 27  2 26 24  4  9  7               -0.002260241
  10461594.640 9   8115057.00846  22778193.323    22778194.8194   22778204.0174
     -2934.994       -2287.008
  -1589195.879 9  -1234732.28648  20975981.791    20975982.5504   20975989.6784
      -404.319        -315.054
   -672852.358 9   -514033.28347  22802577.348    22802578.9334   22802586.9804
     -1257.105        -979.562
  -3179541.782 9  -2445872.93545  23897975.304    23897977.0644   23897987.9494
      4438.288        3458.406
 -17249275.231 9 -13418451.77847  21819720.212    21819722.0264   21819730.0734
      3973.978        3096.606
 -18547473.955 9 -14420378.58047  22025108.765    22025109.9494   22025117.4394
      3554.002        2769.352
  -6371815.314 9  -4953903.33348  19757978.323    19757979.2884   19757986.2404
      -212.776        -165.799
 97  5 22 16 58 29.9970000  0  7 27  2 26 24  4  9  7               -0.002275670
  10549740.892 9   8183742.32846  22794967.030    22794968.6184   22794977.5914
     -2941.469       -2292.054
  -1576966.551 9  -1225202.96448  20978308.947    20978309.7144   20978316.8454
      -411.048        -320.297
   -634981.525 9   -484523.57547  22809784.101    22809785.5864   22809793.6144
     -1267.509        -987.669
  -3312698.640 9  -2549631.41345  23872636.798    23872638.0824   23872648.7794
      4438.638        3458.679
 -17368390.948 9 -13511269.17447  21797053.250    21797055.0144   21797063.0554
      3966.999        3091.168
 -18653960.909 9 -14503355.36847  22004844.730    22004846.1014   22004853.6604
      3544.927        2762.281
  -6365274.268 9  -4948806.40648  19759223.046    19759223.9964   19759230.9334
      -223.110        -173.852
 97  5 22 16 58 59.9970000  0  7 27  2 26 24  4  9  7               -0.002291072
  10638094.479 9   8252589.18446  22811780.797    22811781.7664   22811790.7854
     -2948.754       -2297.730
  -1564519.045 9  -1215503.63448  20980677.541    20980678.3984   20980685.5604
      -418.851        -326.377
   -596792.877 9   -454766.21247  22817051.067    22817052.6364   22817060.6894
     -1278.128        -995.944
  -3445863.542 8  -2653396.28545  23847296.367    23847297.6844   23847308.3114
      4438.905        3458.887
 -17487288.144 9 -13603916.30047  21774427.980    21774429.6284   21774437.5864
      3959.288        3085.159
 -18760166.781 9 -14586113.14847  21984634.372    21984635.7924   21984643.3214
      3535.465        2754.908
  -6358426.411 9  -4943470.40948  19760526.109    19760527.1044   19760534.0364
      -233.395        -181.866
 97  5 22 16 59 29.9970000  0  7 27  2 26 24  4  9  7               -0.002306423
  10726678.253 9   8321615.43146  22828637.804    22828638.7904   22828647.7274
     -2956.165       -2303.505
  -1551834.981 9  -1205619.97648  20983091.266    20983092.1144   20983099.2704
      -426.101        -332.027
   -558287.788 9   -424762.24347  22824378.433    22824379.9454   22824387.9774
     -1288.270       -1003.847
  -3579035.448 8  -2757166.46745  23821954.269    23821955.7414   23821966.1304
      4439.770        3459.561
 -17605932.547 9 -13696366.43947  21751850.455    21751852.2954   21751860.2734
      3950.661        3078.437
 -18866079.624 9 -14668642.58947  21964479.922    21964481.2054   21964488.6914
      3525.865        2747.427
  -6351272.860 9  -4937896.20648  19761887.337    19761888.3624   19761895.2754
      -242.923        -189.291
 97  5 22 16 59 59.9970000  0  7 27  2 26 24  4  9  7               -0.002321715
  10815489.461 9   8390818.87746  22845537.721    22845539.0704   22845548.0504
     -2963.837       -2309.483
  -1538919.912 9  -1195556.30948  20985548.798    20985549.8024   20985556.9844
      -434.438        -338.523
   -519477.095 9   -394520.15247  22831763.862    22831765.4334   22831773.3874
     -1298.437       -1011.769
  -3712235.018 9  -2860958.31945  23796607.039    23796608.6344   23796619.3954
      4440.723        3460.304
 -17724291.870 9 -13788594.43647  21729327.301    21729329.2314   21729337.1784
      3940.543        3070.553
 -18971684.058 9 -14750931.70847  21944383.836    21944385.3264   21944392.8274
      3514.897        2738.881
  -6343826.525 9  -4932093.86048  19763304.315    19763305.3354   19763312.2534
      -252.883        -197.052
 97  5 22 17  0 29.9970000  0  7 27  2 26 24  4  9  7               -0.002336866
  10904505.695 9   8460182.09346  22862477.176    22862478.3634   22862487.2524
     -2970.572       -2314.731
  -1525746.688 9  -1185291.48448  20988055.613    20988056.6434   20988063.8544
      -444.040        -346.005
   -480380.590 9   -364055.39347  22839203.743    22839205.3084   22839213.2814
     -1308.153       -1019.340
  -3845479.203 8  -2964784.93145  23771251.050    23771253.2384   23771263.6324
      4441.848        3461.180
 -17842357.501 9 -13880593.58847  21706859.986    21706862.0444   21706869.9724
      3930.145        3062.451
 -19076965.631 9 -14832969.25547  21924349.536    21924350.9064   21924358.3334
      3503.558        2730.045
  -6336090.340 9  -4926065.66048  19764776.492    19764777.5034   19764784.4264
      -263.295        -205.165
 97  5 22 17  0 59.9970000  0  7 27  2 26 24  4  9  7               -0.002352035
  10993697.668 9   8529682.25446  22879450.431    22879451.1504   22879459.9734
     -2975.981       -2318.946
  -1512302.039 9  -1174815.15548  20990614.112    20990615.1184   20990622.3404
      -452.521        -352.614
   -441011.790 9   -333378.44247  22846695.341    22846696.9544   22846704.8314
     -1316.759       -1026.046
  -3978765.894 8  -3068644.62245  23745887.272    23745889.5514   23745899.8294
      4443.352        3462.352
 -17960110.986 9 -13972349.50447  21684452.271    21684454.2504   21684462.1514
      3919.654        3054.276
 -19181920.975 9 -14914752.58347  21904377.341    21904378.4904   21904385.9084
      3493.080        2721.881
  -6328045.593 9  -4919797.02048  19766307.441    19766308.3694   19766315.2794
      -273.479        -213.101
 97  5 22 17  1 29.9970000  0  7 27  2 26 24  4  9  7               -0.002367185
  11083054.922 9   8599311.20146  22896454.648    22896455.4124   22896464.0244
     -2981.364       -2323.141
  -1498611.339 9  -1164147.09748  20993219.445    20993220.4004   20993227.6274
      -460.397        -358.751
   -401383.376 9   -302499.20247  22854236.380    22854237.9364   22854245.9064
     -1325.462       -1032.828
  -4112081.754 9  -3172526.95945  23720517.926    23720520.2334   23720530.4764
      4443.954        3462.821
 -18077544.391 9 -14063856.00747  21662105.440    21662107.3944   21662115.2604
      3909.120        3046.068
 -19286549.188 9 -14996281.01047  21884467.397    21884468.3994   21884475.8044
      3481.792        2713.085
  -6319685.094 9  -4913282.33848  19767898.330    19767899.3164   19767906.2354
      -284.266        -221.506
 97  5 22 17  1 59.9970000  0  7 27  2 26 24  4  9  7               -0.002382320
  11172581.565 8   8669072.15146  22913490.995    22913491.7454   22913500.5174
     -2986.604       -2327.224
  -1484667.614 9  -1153281.87648  20995872.815    20995873.8114   20995881.0444
      -468.561        -365.112
   -361482.899 9   -271407.98747  22861829.225    22861830.7744   22861838.6704
     -1334.110       -1039.566
  -4245395.730 9  -3276408.00245  23695148.944    23695151.4694   23695161.9834
      4443.937        3462.808
 -18194655.301 9 -14155111.22247  21639820.000    21639821.8834   21639829.7464
      3899.027        3038.203
 -19390824.302 9 -15077534.30047  21864624.479    21864625.4924   21864632.8874
      3470.559        2704.332
  -6310974.259 9  -4906494.67148  19769555.948    19769556.9034   19769563.8474
      -296.077        -230.709
 97  5 22 17  2 29.9970000  0  7 27  2 26 24  4  9  7               -0.002397484
  11262255.086 9   8738947.52246  22930555.066    22930556.0564   22930564.9344
     -2991.449       -2330.999
  -1470492.727 9  -1142236.52648  20998570.245    20998571.1904   20998578.4574
      -475.869        -370.807
   -321325.867 9   -240116.83747  22869470.845    22869472.4424   22869480.1574
     -1342.591       -1046.175
  -4378703.581 8  -3380284.15045  23669781.472    23669783.7334   23669794.0624
      4443.538        3462.497
 -18311473.639 9 -14246138.45347  21617590.251    21617592.0904   21617599.8944
      3889.197        3030.543
 -19494776.071 9 -15158535.63447  21844843.126    21844844.0764   21844851.4184
      3460.002        2696.105
  -6301901.005 9  -4899424.59848  19771282.489    19771283.4894   19771290.4614
      -308.404        -240.315
 97  5 22 17  2 59.9970000  0  7 27  2 26 24  4  9  7               -0.002412699
  11352087.074 9   8808946.40746  22947649.686    22947650.6424   22947659.3744
     -2997.790       -2335.940
  -1456114.502 9  -1131032.73148  21001306.298    21001307.2864   21001314.5674
      -483.084        -376.429
   -280912.982 9   -208626.28747  22877161.233    22877162.8584   22877170.4754
     -1351.991       -1053.499
  -4512002.251 9  -3484153.16146  23644415.870    23644417.6764   23644428.0284
      4442.623        3461.784
 -18427999.347 9 -14336937.67347  21595416.097    21595417.9394   21595425.6954
      3879.027        3022.618
 -19598418.868 9 -15239296.21447  21825120.537    21825121.4684   21825128.7974
      3449.081        2687.595
  -6292463.576 9  -4892070.75248  19773078.356    19773079.3574   19773086.3214
      -320.993        -250.124
 97  5 22 17  3 29.9970000  0  7 27  2 26 24  4  9  7               -0.002427944
  11442104.031 8   8879089.40546  22964779.371    22964780.3074   22964789.2544
     -3002.186       -2339.366
  -1441518.492 9  -1119659.24248  21004083.851    21004084.8454   21004092.1234
      -488.855        -380.926
   -240217.753 9   -176915.79447  22884905.358    22884906.9354   22884914.6504
     -1359.798       -1059.583
  -4645280.317 8  -3588006.13846  23619053.817    23619055.8154   23619066.0784
      4443.748        3462.661
 -18544237.670 9 -14427512.94447  21573296.569    21573298.4984   21573306.2514
      3871.421        3016.692
 -19701737.993 9 -15319804.57748  21805459.471    21805460.4694   21805467.8044
      3440.160        2680.644
  -6282655.939 9  -4884428.43448  19774944.695    19774945.6234   19774952.5894
      -331.653        -258.431
 97  5 22 17  3 59.9970000  0  7 27  2 26 24  4  9  7               -0.002443221
  11532302.143 8   8949373.54246  22981943.269    22981944.3494   22981953.5614
     -3009.522       -2345.082
  -1426691.431 9  -1108105.70348  21006905.326    21006906.3284   21006913.5994
      -498.009        -388.059
   -199243.527 9   -144987.87047  22892702.683    22892704.1044   22892711.8334
     -1370.151       -1067.650
  -4778556.457 8  -3691857.60045  23593692.737    23593694.2714   23593704.2874
      4442.745        3461.879
 -18660196.431 9 -14517870.38547  21551230.463    21551232.2934   21551239.9944
      3860.719        3008.352
 -19804752.253 9 -15400075.38848  21785856.454    21785857.4644   21785864.8084
      3429.062        2671.996
  -6272486.071 9  -4876503.85748  19776879.894    19776880.8874   19776887.8574
      -344.538        -268.471
 97  5 22 17  4 29.9970000  0  7 27  2 26 24  4  9  7               -0.002458510
  11622684.921 9   9019801.60646  22999142.191    22999143.6024   22999152.6574
     -3015.064       -2349.401
  -1411635.391 9  -1096373.74048  21009770.475    21009771.3894   21009778.7094
      -504.922        -393.446
   -158005.786 9   -112854.61147  22900549.843    22900551.3994   22900559.1964
     -1377.974       -1073.746
  -4911842.247 8  -3795716.61545  23568329.141    23568330.7414   23568340.8094
      4443.850        3462.740
 -18775874.926 9 -14608009.43047  21529217.405    21529219.4104   21529227.0674
      3851.991        3001.551
 -19907473.878 9 -15480118.17148  21766309.158    21766310.1574   21766317.5034
      3419.897        2664.855
  -6261989.565 9  -4868324.75448  19778877.430    19778878.3164   19778885.2964
      -354.151        -275.962
 97  5 22 17  4 59.9970000  0  7 27  2 26 24  4  9  7               -0.002473779
  11713264.701 8   9090383.15846  23016379.164    23016380.4164   23016389.5924
     -3022.575       -2355.253
  -1396337.903 9  -1084453.63848  21012681.423    21012682.4164   21012689.7414
      -514.190        -400.668
   -116513.395 9    -80522.91347  22908445.601    22908447.2144   22908455.0404
     -1387.416       -1081.103
  -5045140.076 9  -3899584.94246  23542963.331    23542964.8954   23542975.0594
      4443.191        3462.227
 -18891264.299 9 -14697923.19047  21507259.543    21507261.5344   21507269.1744
      3841.415        2993.310
 -20009888.819 9 -15559921.98048  21746820.073    21746821.2514   21746828.5714
      3408.413        2655.906
  -6251186.642 9  -4859906.89148  19780933.108    19780934.0374   19780941.0274
      -365.305        -284.653
 97  5 22 17  5 29.9970000  0  8 27  2 26 24  4  9  7  5            -0.002489016
  11804036.967 8   9161114.73146  23033652.670    23033653.8844   23033662.9864
     -3029.254       -2360.458
  -1380790.049 9  -1072338.45048  21015640.071    21015641.0774   21015648.4394
      -522.630        -407.244
    -74770.344 9    -47995.90847  22916388.956    22916390.6804   22916398.4964
     -1395.655       -1087.523
  -5178434.534 8  -4003450.66646  23517598.568    23517599.8174   23517609.8544
      4442.587        3461.756
 -19006366.584 9 -14787613.24347  21485356.376    21485358.3144   21485365.9124
      3831.516        2985.597
 -20111980.876 9 -15639474.19648  21727392.548    21727393.7424   21727401.0474
      3397.352        2647.287
  -6240072.266 9  -4851246.33548  19783048.111    19783048.9994   19783055.9824
      -376.037        -293.016
  -2588003.72519  -1997793.21955  24452637.758    24452638.8345   24452648.5595
      3562.327        2775.839
 97  5 22 17  5 59.9970000  0  8 27  2 26 24  4  9  7  5            -0.002504231
  11895004.820 8   9231998.67046  23050963.210    23050964.4874   23050973.6944
     -3035.647       -2365.439
  -1365000.320 9  -1060034.78448  21018644.720    21018645.7674   21018653.1574
      -530.507        -413.382
    -32793.922 9    -15287.02647  22924376.792    22924378.5054   22924386.2324
     -1403.355       -1093.523
  -5311713.507 9  -4107304.33845  23492236.124    23492237.5514   23492247.5404
      4441.921        3461.237
 -19121158.370 9 -14877061.34347  21463512.302    21463514.1204   21463521.7634
      3820.755        2977.212
 -20213736.266 9 -15718764.06948  21708029.143    21708030.2594   21708037.5384
      3385.730        2638.231
  -6228636.283 9  -4842335.17448  19785224.345    19785225.2074   19785232.1644
      -386.790        -301.395
  -2694886.271 9  -2081078.29345  24432298.547    24432299.6404   24432309.3864
      3562.596        2776.049
 97  5 22 17  6 29.9970000  0  8 27  2 26 24  4  9  7  5            -0.002519450
  11986115.933 8   9302994.28246  23068301.237    23068302.4824   23068311.4234
     -3039.398       -2368.362
  -1349023.852 9  -1047585.60848  21021684.943    21021686.0234   21021693.4214
      -535.908        -417.591
      9371.927 9     17569.45247  22932400.770    22932402.4274   22932410.2004
     -1408.949       -1097.882
  -5445009.663 8  -4211171.42846  23466870.879    23466872.2844   23466881.8774
      4443.221        3462.250
 -19235673.481 9 -14966293.86047  21441720.850    21441722.5694   21441730.2144
      3812.296        2970.620
 -20315180.646 9 -15797811.60148  21688724.909    21688725.9924   21688733.2284
      3375.998        2630.648
  -6216925.097 9  -4833209.57148  19787452.965    19787453.8044   19787460.7464
      -395.334        -308.052
  -2801818.948 9  -2164402.34045  24411950.007    24411950.8894   24411960.5444
      3565.000        2777.922
 97  5 22 17  6 59.9970000  0  8 27  2 26 24  4  9  7  5            -0.002534664
  12077386.919 8   9374114.40846  23085669.238    23085670.7434   23085679.9264
     -3044.644       -2372.450
  -1332819.318 9  -1034958.71848  21024768.544    21024769.6634   21024777.0634
      -543.865        -423.791
     51769.554 9     50606.52447  22940468.979    22940470.5454   22940478.3254
     -1417.138       -1104.263
  -5578283.764 9  -4315021.23746  23441509.616    23441510.9674   23441520.6904
      4442.119        3461.391
 -19349872.611 9 -15055280.16247  21419989.403    21419991.1564   21419998.7904
      3801.419        2962.145
 -20416266.913 9 -15876580.08348  21669488.633    21669489.8854   21669497.1154
      3363.676        2621.046
  -6204888.221 9  -4823830.18048  19789743.373    19789744.3404   19789751.2804
      -406.505        -316.757
  -2908757.429 9  -2247731.05945  24391600.051    24391601.0564   24391610.7254
      3564.929        2777.867
 97  5 22 17  7 29.9970000  0  8 27  2 26 24  4  9  7  5            -0.002549895
  12168776.194 8   9445326.75146  23103060.280    23103061.7674   23103070.6514
     -3048.199       -2375.220
  -1316411.195 9  -1022173.18848  21027890.960    21027892.0704   21027899.4534
      -550.268        -428.780
     94379.447 9     83808.98747  22948577.373    22948579.0024   22948586.8234
     -1423.810       -1109.462
  -5711555.848 8  -4418869.53345  23416148.480    23416150.0404   23416159.8394
      4442.419        3461.625
 -19463776.512 9 -15144036.39947  21398314.130    21398315.9094   21398323.5724
      3791.877        2954.709
 -20517026.765 9 -15955094.21148  21650314.623    21650315.8704   21650323.1214
      3353.449        2613.077
  -6192556.227 9  -4814220.82848  19792090.075    19792091.0124   19792097.9644
      -415.799        -323.999
  -3015731.114 8  -2331087.04145  24371243.808    24371244.6614   24371254.1614
      3566.419        2779.028
 97  5 22 17  7 59.9970000  0  8 27  2 26 24  4  9  7  5            -0.002565135
  12260294.908 8   9516639.91146  23120475.148    23120477.3174   23120486.2174
     -3053.186       -2379.106
  -1299771.160 9  -1009206.94648  21031057.425    21031058.5634   21031065.9604
      -559.363        -435.867
    137223.859 9    117194.20847  22956730.525    22956732.0204   22956739.7954
     -1432.913       -1116.556
  -5844809.186 9  -4522703.26446  23390791.144    23390792.7064   23390802.4334
      4440.783        3460.350
 -19577355.091 9 -15232539.15247  21376700.712    21376702.5904   21376710.2184
      3780.042        2945.487
 -20617449.092 9 -16033345.33748  21631204.673    21631206.1044   21631213.3724
      3341.159        2603.501
  -6179918.581 9  -4804373.30748  19794494.795    19794495.8324   19794502.7574
      -426.772        -332.550
  -3122720.047 9  -2414455.00445  24350884.236    24350885.5194   24350894.6784
      3566.266        2778.909
 97  5 22 17  8 29.9970000  0  8 27  2 26 24  4  9  7  5            -0.002580366
  12351924.404 8   9588039.45646  23137912.076    23137913.9374   23137922.6774
     -3056.309       -2381.539
  -1282884.745 9   -996048.71748  21034270.819    21034271.9414   21034279.3874
      -567.257        -442.018
    180314.189 9    150771.03747  22964930.251    22964931.8554   22964939.6664
     -1440.541       -1122.499
  -5978047.629 8  -4626525.36145  23365436.754    23365438.2154   23365447.9304
      4440.827        3460.385
 -19690623.765 9 -15320800.41847  21355146.450    21355148.2704   21355155.8744
      3770.288        2937.887
 -20717544.030 9 -16111341.35048  21612157.210    21612158.6494   21612165.9044
      3330.937        2595.535
  -6166994.873 9  -4794302.88048  19796954.114    19796955.1124   19796961.9874
      -435.787        -339.574
  -3229758.531 8  -2497861.46445  24330515.532    24330516.6354   24330526.1894
      3568.734        2780.832
 97  5 22 17  8 59.9970000  0  8 27  2 26 24  4  9  7  5            -0.002595590
  12443671.557 8   9659530.63546  23155371.088    23155372.8914   23155381.7124
     -3060.024       -2384.434
  -1265734.308 9   -982684.75548  21037534.618    21037535.6094   21037543.0664
      -575.896        -448.750
    223660.011 9    184546.97047  22973178.719    22973180.3504   22973188.1864
     -1448.897       -1129.011
  -6111258.411 8  -4730325.88245  23340087.475    23340088.8144   23340098.7014
      4439.920        3459.678
 -19803568.043 9 -15408808.89847  21333653.927    21333655.6834   21333663.2664
      3759.374        2929.382
 -20817303.137 9 -16189075.67448  21593173.705    21593175.1114   21593182.3754
      3319.882        2586.921
  -6153766.080 9  -4783994.72648  19799471.410    19799472.4604   19799479.3444
      -445.988        -347.523
  -3336840.337 8  -2581301.81145  24310138.650    24310139.5644   24310149.0924
      3570.329        2782.075
 97  5 22 17  9 29.9970000  0  8 27  2 26 24  4  9  7  5            -0.002610826
  12535524.171 8   9731104.00546  23172850.178    23172851.8714   23172860.6044
     -3063.103       -2386.834
  -1248333.808 9   -969125.94348  21040845.750    21040846.8584   21040854.2944
      -583.576        -454.735
    267245.714 9    218509.81547  22981473.064    22981474.4324   22981482.1594
     -1456.301       -1134.780
  -6244449.592 8  -4834111.18146  23314741.913    23314743.2504   23314753.2794
      4439.786        3459.573
 -19916185.819 9 -15496562.97347  21312223.412    21312225.2144   21312232.7294
      3748.869        2921.197
 -20916737.620 9 -16266557.04948  21574252.031    21574253.3194   21574260.5904
      3309.397        2578.751
  -6140238.096 9  -4773453.44148  19802045.715    19802046.7624   19802053.6174
      -455.473        -354.914
  -3443982.012 8  -2664788.68945  24289750.101    24289751.1084   24289760.8254
      3572.865        2784.051
 97  5 22 17  9 59.9970000  0  8 27  2 26 24  4  9  7  5            -0.002626061
  12627504.153 9   9802776.62446  23190353.669    23190355.2364   23190363.9484
     -3068.409       -2390.968
  -1230672.698 9   -955364.05348  21044206.521    21044207.6784   21044215.1074
      -593.199        -462.233
    311090.330 9    252674.39647  22989816.381    22989817.8554   22989825.6004
     -1466.003       -1142.340
  -6377603.400 8  -4937867.35546  23289403.700    23289404.9964   23289415.0384
      4437.609        3457.877
 -20028448.948 9 -15584040.68848  21290860.353    21290862.2134   21290869.7394
      3736.008        2911.175
 -21015811.025 9 -16343757.06148  21555398.909    21555400.2514   21555407.5374
      3296.115        2568.401
  -6126393.055 9  -4762665.09448  19804680.465    19804681.4114   19804688.2234
      -466.909        -363.825
  -3551169.519 8  -2748311.35445  24269352.988    24269353.8924   24269363.4634
      3573.556        2784.589
 97  5 22 17 10 29.9970000  0  8 27  2 26 24  4  9  7  5            -0.002641292
  12719623.228 8   9874557.63146  23207883.707    23207885.0534   23207893.6634
     -3072.727       -2394.333
  -1212761.749 9   -941407.49148  21047615.052    21047616.0424   21047623.4504
      -600.791        -468.149
    355188.944 9    287036.87747  22998207.906    22998209.5584   22998217.3694
     -1473.609       -1148.267
  -6510720.147 8  -5041594.63445  23264071.879    23264073.4644   23264083.5064
      4436.654        3457.133
 -20140352.505 9 -15671238.22447  21269565.740    21269567.6244   21269575.1544
      3724.204        2901.977
 -21114515.692 9 -16420669.75548  21536616.109    21536617.3774   21536624.6034
      3284.184        2559.104
  -6112235.105 9  -4751632.92748  19807374.618    19807375.5374   19807382.3404
      -476.931        -371.635
  -3658397.893 8  -2831865.84945  24248947.942    24248948.8734   24248958.7374
      3574.800        2785.558
 97  5 22 17 10 59.9970000  0  8 27  2 26 24  4  9  7  5            -0.002656541
  12811870.023 8   9946438.16846  23225437.589    23225439.2194   23225447.6904
     -3076.929       -2397.607
  -1194629.514 9   -927278.49548  21051065.412    21051066.4744   21051073.9164
      -608.043        -473.800
    399503.333 9    321567.51447  23006640.845    23006642.2884   23006650.0714
     -1480.480       -1153.621
  -6643810.831 9  -5145301.60246  23238745.891    23238747.1604   23238757.3184
      4435.882        3456.531
 -20251900.429 9 -15758158.64847  21248338.790    21248340.7074   21248348.2434
      3712.377        2892.761
 -21212854.920 9 -16497297.68948  21517902.646    21517904.0284   21517911.2134
      3271.849        2549.493
  -6097779.645 9  -4740368.92948  19810125.319    19810126.3284   19810133.1254
      -486.616        -379.181
  -3765648.178 8  -2915437.35045  24228538.723    24228539.7344   24228549.5794
      3575.383        2786.013
 97  5 22 17 11 29.9970000  0  8 27  2 26 24  4  9  7  5            -0.002671781
  12904264.477 8  10018433.74546  23243019.823    23243021.4694   23243029.9384
     -3082.571       -2402.003
  -1176265.106 9   -912968.58648  21054559.872    21054561.1134   21054568.5514
      -616.092        -480.072
    444036.258 9    356268.46347  23015115.285    23015116.7084   23015124.5144
     -1488.237       -1159.665
  -6776862.329 8  -5248978.07246  23213426.876    23213428.2924   23213438.3874
      4434.178        3455.204
 -20363078.204 9 -15844790.63247  21227182.248    21227184.2164   21227191.8144
      3699.742        2882.916
 -21310811.971 9 -16573627.82648  21499261.977    21499263.3694   21499270.5464
      3258.761        2539.294
  -6083037.262 9  -4728881.36148  19812930.716    19812931.7284   19812938.5404
      -496.052        -386.534
  -3872911.484 9  -2999019.10546  24208127.015    24208128.1004   24208138.0664
      3575.486        2786.093
 97  5 22 17 11 59.9970000  0  8 27  2 26 24  4  9  7  5            -0.002686981
  12996832.448 8  10090564.50346  23260635.246    23260636.6504   23260645.1704
     -3087.761       -2406.048
  -1157654.630 9   -898466.94348  21058101.326    21058102.5984   21058110.0374
      -624.023        -486.252
    488800.740 9    391149.82047  23023633.658    23023635.1884   23023643.0574
     -1495.261       -1165.138
  -6909859.097 9  -5352611.90446  23188118.484    23188119.7254   23188129.8884
      4432.821        3454.146
 -20473887.124 9 -15931135.20248  21206095.981    21206097.9264   21206105.5364
      3688.429        2874.101
 -21408376.501 9 -16649652.09348  21480696.091    21480697.4574   21480704.6154
      3246.433        2529.688
  -6068011.781 9  -4717173.19848  19815789.959    19815790.9824   19815797.8284
      -505.059        -393.552
  -3980168.857 8  -3082596.18246  24187716.615    24187717.7824   24187727.5854
      3575.722        2786.277
 97  5 22 17 12 29.9970000  0  8 27  2 26 24  4  9  7  5            -0.002702172
  13089520.079 9  10162788.52345  23278272.837    23278274.4884   23278283.1274
     -3091.239       -2408.758
  -1138830.680 9   -883798.94748  21061683.475    21061684.6894   21061692.1574
      -630.960        -491.657
    533742.787 9    426169.57447  23032185.924    23032187.4144   23032195.1374
     -1500.880       -1169.517
  -7042828.190 9  -5456224.18946  23162815.342    23162816.4994   23162826.6074
      4431.710        3453.281
 -20584389.964 9 -16017241.26148  21185068.004    21185069.8954   21185077.5244
      3678.409        2866.293
 -21505599.641 9 -16725410.34448  21462195.081    21462196.4504   21462203.6114
      3235.069        2520.833
  -6052732.979 9  -4705267.64148  19818697.426    19818698.4264   19818705.2774
      -513.573        -400.187
  -4087452.896 8  -3166194.07645  24167301.007    24167302.2014   24167311.9834
      3576.618        2786.975
 97  5 22 17 12 59.9970000  0  8 27  2 26 24  4  9  7  5            -0.002717349
  13182313.381 8  10235094.89345  23295931.064    23295932.5474   23295941.1414
     -3095.515       -2412.090
  -1119781.344 9   -868955.32948  21065308.460    21065309.6844   21065317.1174
      -639.372        -498.212
    578869.358 9    461333.11847  23040773.308    23040774.7144   23040782.5064
     -1507.969       -1175.041
  -7175759.576 8  -5559807.01846  23137519.113    23137520.5194   23137530.5974
      4429.904        3451.873
 -20694585.634 9 -16103107.97448  21164098.428    21164100.3154   21164107.9214
      3667.535        2857.819
 -21602473.494 9 -16800896.42748  21443760.423    21443761.9334   21443769.1254
      3222.938        2511.380
  -6037190.249 9  -4693156.42448  19821655.155    19821656.1474   19821662.9784
      -522.986        -407.522
  -4194761.499 8  -3249811.05446  24146880.608    24146881.8624   24146891.6054
      3577.273        2787.485
 97  5 22 17 13 29.9970000  0  8 27  2 26 24  4  9  7  5            -0.002732512
  13275220.175 9  10307489.68346  23313610.918    23313612.1874   23313620.7424
     -3099.452       -2415.157
  -1100497.957 9   -853929.33348  21068977.933    21068979.2164   21068986.6264
      -647.313        -504.400
    624196.785 9    496653.13447  23049398.592    23049400.1724   23049407.9414
     -1515.092       -1180.591
  -7308654.797 9  -5663361.65646  23112230.296    23112231.5404   23112241.6234
      4428.483        3450.766
 -20804472.946 9 -16188734.40548  21143187.655    21143189.4564   21143197.0134
      3657.114        2849.699
 -21699014.532 9 -16876123.17748  21425389.400    21425390.7794   21425397.9544
      3211.868        2502.754
  -6021381.534 9  -4680837.95048  19824663.490    19824664.4634   19824671.2834
      -532.238        -414.731
  -4302119.274 8  -3333466.32046  24126451.534    24126452.2804   24126462.1714
      3578.674        2788.577
 97  5 22 17 13 59.9970000  0  8 27  2 26 24  4  9  7  5            -0.002747666
  13368253.561 8  10379983.17746  23331314.293    23331315.8394   23331324.3214
     -3102.676       -2417.670
  -1080964.778 9   -838708.69848  21072695.096    21072696.2964   21072703.6884
      -654.879        -510.295
    669746.539 9    532146.40947  23058066.384    23058068.0384   23058075.8364
     -1521.426       -1185.527
  -7441494.438 9  -5766873.02946  23086951.920    23086953.1124   23086962.9394
      4427.390        3449.914
 -20914038.541 9 -16274110.14948  21122338.015    21122339.8064   21122347.3704
      3647.105        2841.900
 -21795206.275 9 -16951077.75148  21407084.707    21407086.1094   21407093.2514
      3200.926        2494.228
  -6005265.160 9  -4668279.74148  19827730.343    19827731.3284   19827738.1354
      -542.209        -422.501
  -4409507.329 9  -3417145.23646  24106015.796    24106016.9844   24106026.9334
      3580.664        2790.128
 97  5 22 17 14 29.9970000  0  8 27  2 26 24  4  9  7  5            -0.002762844
  13461379.526 9  10452548.71046  23349035.428    23349037.2914   23349045.8704
     -3105.837       -2420.133
  -1061205.656 9   -823311.99748  21076455.177    21076456.3804   21076463.7234
      -662.390        -516.148
    715485.578 9    567787.17147  23066770.268    23066771.9594   23066779.7194
     -1527.810       -1190.501
  -7574297.676 9  -5870355.93646  23061679.930    23061681.3594   23061691.3034
      4426.016        3448.844
 -21023285.265 9 -16359237.41348  21101548.984    21101550.7924   21101558.3694
      3635.681        2832.998
 -21891065.762 9 -17025773.41848  21388843.440    21388844.6604   21388851.7954
      3189.480        2485.309
  -5988850.872 9  -4655489.39048  19830853.830    19830854.8944   19830861.6664
      -552.004        -430.133
  -4516953.420 9  -3500869.41745  24085569.478    24085570.6284   24085580.5614
      3582.183        2791.311
 97  5 22 17 14 59.9970000  0  8 27  2 26 24  4  9  7  5            -0.002778037
  13554632.082 8  10525212.97646  23366781.011    23366782.7694   23366791.1654
     -3110.568       -2423.819
  -1041198.281 9   -807721.85648  21080262.510    21080263.6904   21080271.0224
      -670.866        -522.753
    761426.317 9    603585.10347  23075512.376    23075514.2374   23075522.1064
     -1534.289       -1195.550
  -7707052.550 9  -5973801.26346  23036417.563    23036419.0024   23036428.7754
      4424.540        3447.694
 -21132157.579 9 -16444072.93848  21080831.088    21080833.0584   21080840.6364
      3623.016        2823.129
 -21986562.444 9 -17100186.38148  21370670.904    21370672.2374   21370679.3424
      3177.465        2475.947
  -5972127.238 9  -4642457.98948  19834036.219    19834037.3204   19834044.0774
      -562.363        -438.205
  -4624426.968 9  -3584614.93946  24065117.709    24065119.0734   24065128.8634
      3583.155        2792.069
 97  5 22 17 15 29.9970000  0  8 27  2 26 24  4  9  7  5            -0.002793241
  13648026.956 8  10597988.09045  23384553.620    23384555.2344   23384563.8154
     -3115.552       -2427.703
  -1020932.419 9   -791930.29748  21084119.039    21084120.1824   21084127.5224
      -679.923        -529.810
    807561.069 9    639534.18347  23084291.347    23084293.4254   23084301.3624
     -1541.103       -1200.859
  -7839748.204 9  -6077200.38746  23011166.435    23011167.7414   23011177.6104
      4421.800        3445.558
 -21240641.390 9 -16528605.71648  21060187.284    21060189.2364   21060196.7834
      3609.504        2812.601
 -22081681.787 9 -17174305.31048  21352570.156    21352571.6024   21352578.7114
      3163.911        2465.385
  -5955081.556 9  -4629175.64148  19837279.950    19837281.0404   19837287.7864
      -573.810        -447.125
  -4731915.971 8  -3668372.52345  24044663.333    24044664.5624   24044674.2884
      3582.758        2791.759
 97  5 22 17 15 59.9970000  0  8 27  2 26 24  4  9  7  5            -0.002808453
  13741540.490 8  10670855.67546  23402348.854    23402350.3254   23402359.0124
     -3118.482       -2429.986
  -1000415.192 9   -775942.87348  21088023.410    21088024.5354   21088031.8164
      -687.769        -535.924
    853869.924 9    675618.96847  23093103.865    23093105.8314   23093113.6564
     -1545.871       -1204.575
  -7972375.661 9  -6180546.35346  22985928.123    22985929.6124   22985939.4014
      4420.158        3444.279
 -21348743.567 9 -16612841.12648  21039616.174    21039618.0174   21039625.5674
      3597.521        2803.263
 -22176403.166 9 -17248114.14448  21334545.225    21334546.6784   21334553.7984
      3151.145        2455.438
  -5937719.333 9  -4615646.64348  19840583.950    19840584.9844   19840591.6864
      -583.340        -454.551
  -4839401.664 9  -3752127.49045  24024208.934    24024210.5274   24024220.1744
      3583.155        2792.069
 97  5 22 17 16 29.9970000  0  8 27  2 26 24  4  9  7  5            -0.002823672
  13835139.450 9  10743789.80546  23420160.326    23420161.7564   23420170.4084
     -3122.319       -2432.976
   -979659.588 9   -759769.69848  21091973.113    21091974.2124   21091981.5184
      -696.687        -542.873
    900315.808 9    711810.54346  23101942.210    23101944.1744   23101951.8644
     -1551.373       -1208.862
  -8104958.940 9  -6283857.92246  22960698.344    22960699.8704   22960709.5244
      4417.812        3442.451
 -21456482.390 9 -16696793.39648  21019114.110    21019115.9524   21019123.4804
      3584.209        2792.890
 -22270743.984 9 -17321626.43848  21316592.724    21316594.2014   21316601.3084
      3137.358        2444.695
  -5920086.202 9  -4601906.54148  19843939.354    19843940.4604   19843947.1414
      -593.049        -462.116
  -4946895.314 9  -3835888.66645  24003753.903    24003755.1424   24003764.8134
      3582.216        2791.337
 97  5 22 17 16 59.9970000  0  8 27  2 26 24  4  9  7  5            -0.002838885
  13928844.424 8  10816806.57545  23437992.084    23437993.4524   23438002.2094
     -3125.863       -2435.737
   -958647.661 9   -743396.78948  21095971.574    21095972.6624   21095979.9634
      -705.271        -549.562
    946919.885 9    748125.31647  23110810.649    23110812.6404   23110820.6054
     -1556.891       -1213.162
  -8237479.368 9  -6387120.46446  22935480.671    22935481.9244   22935491.6894
      4415.634        3440.754
 -21563836.484 9 -16780445.87948  20998685.206    20998687.0714   20998694.6194
      3571.677        2783.125
 -22364677.775 9 -17394821.56548  21298717.810    21298719.1774   21298726.2784
      3123.801        2434.131
  -5902166.825 9  -4587943.39148  19847349.327    19847350.4154   19847357.0824
      -602.749        -469.675
  -5054379.429 9  -3919642.41845  23983300.048    23983301.4844   23983311.1504
      3582.421        2791.497
 97  5 22 17 17 29.9970000  0  8 27  2 26 24  4  9  7  5            -0.002854089
  14022636.199 8  10889890.95045  23455839.648    23455841.3464   23455850.5724
     -3127.509       -2437.020
   -937391.693 9   -726833.72448  21100016.488    21100017.5564   21100024.8684
      -712.327        -555.060
    993690.318 9    784569.76246  23119710.965    23119712.7394   23119720.6764
     -1561.658       -1216.876
  -8369941.021 9  -6490337.23746  22910273.912    22910275.3064   22910284.8444
      4414.516        3439.883
 -21670830.572 9 -16863817.83548  20978324.881    20978326.6814   20978334.2834
      3560.615        2774.505
 -22458211.871 9 -17467705.24948  21280918.966    21280920.2194   21280927.2904
      3111.384        2424.455
  -5883972.566 9  -4573766.05048  19850811.498    19850812.6434   19850819.2924
      -610.724        -475.889
  -5161884.489 9  -4003412.53245  23962843.011    23962843.9354   23962853.5144
      3584.031        2792.751
 97  5 22 17 17 59.9970000  0  8 27  2 26 24  4  9  7  5            -0.002869293
  14116508.802 8  10963038.33146  23473702.984    23473704.7934   23473714.2464
     -3130.185       -2439.105
   -915902.728 9   -710089.09848  21104105.643    21104106.7674   21104114.1184
      -719.703        -560.808
   1040626.833 9    821143.65047  23128642.840    23128644.5614   23128652.4574
     -1566.919       -1220.976
  -8502347.885 9  -6593511.27746  22885077.766    22885079.0824   22885088.6184
      4412.936        3438.651
 -21777460.414 9 -16946905.95848  20958033.865    20958035.6474   20958043.2774
      3548.463        2765.036
 -22551355.313 9 -17540284.52348  21263194.361    21263195.5434   21263202.6274
      3098.835        2414.677
  -5865521.228 9  -4559388.38948  19854322.674    19854323.8274   19854330.4654
      -618.854        -482.224
  -5269420.912 9  -4087207.05546  23942379.236    23942380.4234   23942389.9264
      3585.753        2794.093
 97  5 22 17 18 29.9970000  0  8 27  2 26 24  4  9  7  5            -0.002884510
  14210478.148 8  11036261.09446  23491584.547    23491586.6154   23491596.2264
     -3134.664       -2442.595
   -894189.811 9   -693169.96148  21108237.463    21108238.6314   21108245.9424
      -727.881        -567.180
   1087732.245 9    857849.07547  23137606.747    23137608.5494   23137616.6064
     -1573.757       -1226.304
  -8634693.123 9  -6696637.38546  22859893.571    22859894.6984   22859903.9304
      4409.669        3436.106
 -21883709.753 9 -17029697.58548  20937815.182    20937816.9854   20937824.6574
      3534.594        2754.229
 -22644121.265 9 -17612569.64848  21245541.274    21245542.7104   21245549.7884
      3085.288        2404.120
  -5846817.166 9  -4544813.79948  19857882.013    19857883.1134   19857889.7294
      -628.380        -489.647
  -5377016.569 9  -4171047.73746  23921904.557    23921905.6174   23921915.0404
      3587.005        2795.069
 97  5 22 17 18 59.9970000  0  8 27  2 26 24  4  9  7  5            -0.002899730
  14304571.088 8  11109580.13446  23509490.585    23509491.9864   23509501.5304
     -3138.691       -2445.733
   -872246.029 9   -676070.93848  21112413.375    21112414.4004   21112421.7124
      -735.619        -573.210
   1135038.916 9    894711.36847  23146608.841    23146610.6984   23146618.7924
     -1580.550       -1231.597
  -8766940.724 9  -6799687.33346  22834727.187    22834728.6814   22834738.0374
      4406.160        3433.371
 -21989556.966 9 -17112175.87648  20917672.983    20917674.8824   20917682.5734
      3521.428        2743.970
 -22736491.140 9 -17684546.15048  21227963.854    21227965.2824   21227972.3314
      3072.279        2393.984
  -5827838.009 9  -4530024.85148  19861493.627    19861494.7444   19861501.3344
      -637.324        -496.616
  -5484664.751 9  -4254929.34546  23901419.475    23901420.6944   23901430.2124
      3588.979        2796.607
 97  5 22 17 19 29.9970000  0  8 27  2 26 24  4  9  7  5            -0.002914952
  14398780.013 8  11182989.60646  23527417.780    23527419.4774   23527429.0654
     -3142.178       -2448.450
   -850070.518 9   -658791.34148  21116633.235    21116634.2884   21116641.5954
      -742.986        -578.950
   1182544.795 9    931728.88147  23155648.932    23155650.7854   23155658.9624
     -1586.564       -1236.284
  -8899079.518 9  -6902652.47646  22809581.697    22809583.3024   22809592.8534
      4402.701        3430.676
 -22095008.622 9 -17194345.94048  20897606.117    20897608.0654   20897615.7224
      3508.371        2733.796
 -22828477.394 9 -17756223.72048  21210459.401    21210460.8384   21210467.8454
      3059.928        2384.359
  -5808594.747 9  -4515030.10348  19865155.557    19865156.6084   19865163.2034
      -645.793        -503.215
  -5592361.729 9  -4338849.00246  23880925.563    23880926.6464   23880935.9524
      3590.494        2797.787
 97  5 22 17 19 59.9970000  0  8 27  2 26 24  4  9  7  5            -0.002930189
  14493095.227 8  11256481.86045  23545365.450    23545367.0674   23545376.8164
     -3145.838       -2451.302
   -827672.984 9   -641338.74248  21120895.231    21120896.3514   21120903.7314
      -750.628        -584.905
   1230230.220 9    968886.29346  23164723.176    23164724.8994   23164733.1114
     -1592.760       -1241.112
  -9031106.478 9  -7005530.56246  22784457.528    22784459.4064   22784468.7444
      4398.614        3427.491
 -22200062.713 9 -17276206.20948  20877614.965    20877616.9124   20877624.5704
      3494.891        2723.292
 -22920092.679 9 -17827612.22848  21193025.685    21193027.0034   21193033.9504
      3047.361        2374.567
  -5789096.764 9  -4499836.87448  19868865.902    19868866.9584   19868873.5524
      -654.360        -509.891
  -5700100.836 9  -4422801.42646  23860423.214    23860424.5054   23860433.8494
      3591.772        2798.783
 97  5 22 17 20 29.9970000  0  8 27  2 26 24  4  9  7  5            -0.002945471
  14587517.491 8  11330057.52345  23563333.860    23563335.0714   23563344.8074
     -3148.876       -2453.670
   -805031.997 9   -623696.43548  21125203.603    21125204.7904   21125212.2174
      -758.827        -591.294
   1278106.871 9   1006192.77047  23173833.923    23173835.6344   23173843.7564
     -1598.910       -1245.904
  -9163009.995 9  -7108312.38546  22759357.076    22759358.8004   22759368.3344
      4394.890        3424.590
 -22304711.927 9 -17357750.99948  20857700.846    20857702.8364   20857710.4564
      3481.735        2713.040
 -23011324.777 9 -17898702.15248  21175664.860    21175666.1094   21175673.0304
      3034.738        2364.731
  -5769337.199 9  -4484439.81648  19872626.031    19872627.0854   19872633.6624
      -662.916        -516.558
  -5807867.651 9  -4506775.52546  23839915.775    23839917.0114   23839926.4204
      3592.522        2799.368
 97  5 22 17 20 59.9970000  0  8 27  2 26 24  4  9  7  5            -0.002960720
  14682026.858 8  11403701.08045  23581318.442    23581319.7394   23581329.4524
     -3151.741       -2455.902
   -782128.111 9   -605849.27648  21129562.035    21129563.2454   21129570.7284
      -768.217        -598.611
   1326173.384 9   1043647.09347  23182980.697    23182982.3854   23182990.6754
     -1605.422       -1250.978
  -9294798.682 9  -7211004.79046  22734278.727    22734280.1884   22734289.6954
      4390.979        3421.542
 -22408958.325 9 -17438981.90048  20837863.362    20837865.3964   20837872.9544
      3467.949        2702.298
 -23102164.942 9 -17969486.67648  21158378.577    21158379.7364   21158386.6464
      3021.223        2354.200
  -5749311.478 9  -4468835.36648  19876436.765    19876437.8554   19876444.4284
      -672.102        -523.716
  -5915639.870 9  -4590753.77946  23819407.317    23819408.6454   23819417.9754
      3592.367        2799.247
 97  5 22 17 21 29.9970000  0  8 27  2 26 24  4  9  7  5            -0.002975968
  14776574.303 8  11477374.30045  23599310.340    23599311.6714   23599321.3564
     -3153.019       -2456.898
   -758986.247 9   -587816.67448  21133965.677    21133966.9724   21133974.5324
      -776.089        -604.745
   1374383.644 9   1081213.48146  23192154.990    23192156.6134   23192164.9504
     -1610.076       -1254.605
  -9426523.232 9  -7313647.19546  22709211.936    22709213.6064   22709223.1854
      4388.994        3419.995
 -22512833.074 9 -17519923.20748  20818096.614    20818098.7064   20818106.1874
      3455.437        2692.548
 -23192642.363 9 -18039988.53648  21141161.211    21141162.4374   21141169.3584
      3008.948        2344.635
  -5729053.722 9  -4453050.10648  19880291.723    19880292.8354   19880299.3824
      -679.939        -529.822
  -6023445.909 9  -4674758.36246  23798892.220    23798893.7554   23798903.0834
      3593.180        2799.881
 97  5 22 17 21 59.9970000  0  8 27  2 26 24  4  9  7  5            -0.002991175
  14871170.473 8  11551085.48246  23617311.183    23617312.7224   23617322.5184
     -3153.993       -2457.657
   -735592.292 9   -569587.63948  21138417.311    21138418.6984   21138426.3014
      -784.055        -610.952
   1422752.806 9   1118903.67846  23201359.224    23201360.8634   23201369.1604
     -1614.905       -1258.368
  -9558170.515 9  -7416229.42346  22684160.269    22684161.9474   22684171.5034
      4386.864        3418.336
 -22616310.913 9 -17600555.23748  20798405.455    20798407.4954   20798414.9234
      3442.585        2682.534
 -23282729.990 9 -18110186.66548  21124018.117    21124019.3474   21124026.2394
      2996.331        2334.803
  -5708544.338 9  -4437068.77948  19884194.607    19884195.6524   19884202.1694
      -687.943        -536.059
  -6131263.404 9  -4758771.89146  23778375.180    23778376.6844   23778386.0034
      3594.157        2800.642
 97  5 22 17 22 29.9970000  0  8 27  2 26 24  4  9  7  5            -0.003006390
  14965809.971 8  11624830.46745  23635320.196    23635321.9414   23635331.8164
     -3155.481       -2458.816
   -711942.765 9   -551159.45348  21142917.660    21142919.0554   21142926.7364
      -792.745        -617.723
   1471271.832 9   1156710.70846  23210592.257    23210593.9714   23210602.1664
     -1619.825       -1262.201
  -9689740.623 9  -7518751.53446  22659123.170    22659124.9124   22659134.4774
      4384.061        3416.151
 -22719396.962 9 -17680881.97348  20778788.865    20778790.8464   20778798.2304
      3429.643        2672.449
 -23372424.418 9 -18180078.40948  21106949.649    21106951.0444   21106957.8994
      2983.058        2324.461
  -5687774.926 9  -4420884.83248  19888146.821    19888147.9334   19888154.4084
      -696.988        -543.108
  -6239094.979 9  -4842796.39245  23757855.361    23757856.9274   23757866.2824
      3594.457        2800.876
 97  5 22 17 22 59.9960000  0  8 27  2 26 24  4  9  7  5            -0.003021594
  15060509.391 8  11698622.12545  23653341.195    23653342.7944   23653352.6584
     -3157.502       -2460.391
   -688026.331 9   -532523.29448  21147468.794    21147470.2184   21147477.9134
      -801.113        -624.244
   1519950.569 9   1194642.09046  23219855.416    23219857.2274   23219865.4684
     -1624.800       -1266.078
  -9821204.818 9  -7621191.05546  22634105.953    22634107.8994   22634117.5784
      4381.018        3413.780
 -22822073.723 9 -17760889.78648  20759250.138    20759252.0884   20759259.4394
      3416.366        2662.103
 -23461697.264 9 -18249641.64748  21089961.496    21089962.9704   21089969.8084
      2969.247        2313.699
  -5666714.158 9  -4404473.85548  19892154.548    19892155.6924   19892162.1164
      -706.334        -550.390
  -6346926.772 9  -4926821.07445  23737335.581    23737337.0114   23737346.2874
      3595.233        2801.480
 97  5 22 17 23 29.9960000  0  8 27  2 26 24  4  9  7  5            -0.003036809
  15155268.280 8  11772460.08745  23671372.852    23671374.7184   23671384.7734
     -3159.478       -2461.931
   -663871.093 9   -513701.05248  21152065.535    21152066.8274   21152074.5124
      -808.959        -630.358
   1568762.921 9   1232677.64046  23229143.957    23229145.9334   23229154.0414
     -1628.917       -1269.286
  -9952590.123 9  -7723569.19246  22609104.115    22609106.2314   22609115.7014
      4378.033        3411.454
 -22924368.742 9 -17840600.13748  20739784.057    20739785.9724   20739793.3004
      3403.597        2652.154
 -23550569.258 9 -18318892.53048  21073049.817    21073051.1314   21073057.9674
      2955.939        2303.329
  -5645383.459 9  -4387852.53648  19896213.675    19896214.8034   19896221.2174
      -715.417        -557.468
  -6454795.931 9  -5010874.86146  23716808.897    23716810.0584   23716819.4984
      3596.402        2802.391
 97  5 22 17 23 59.9960000  0  8 27  2 26 24  4  9  7  5            -0.003052025
  15250106.878 8  11846360.21745  23689420.027    23689422.0434   23689431.8814
     -3162.406       -2464.212
   -639456.775 9   -494676.93148  21156711.511    21156712.7494   21156720.4534
      -817.870        -637.301
   1617714.989 9   1270822.09646  23238459.548    23238461.4464   23238469.4724
     -1633.516       -1272.870
 -10083859.715 9  -7825857.01946  22584124.169    22584126.2494   22584135.9684
      4374.012        3408.321
 -23026262.011 9 -17919997.44048  20720394.323    20720396.2724   20720403.6004
      3390.169        2641.690
 -23639024.755 9 -18387818.87448  21056217.304    21056218.6084   21056225.4454
      2941.882        2292.376
  -5623763.647 9  -4371005.94048  19900327.765    19900328.8984   19900335.3604
      -724.982        -564.921
  -6562696.214 9  -5094952.89845  23696275.767    23696277.2274   23696286.7234
      3597.701        2803.403
 97  5 22 17 24 29.9960000  0  8 27  2 26 24  4  9  7  5            -0.003067229
  15345039.823 8  11920333.79045  23707485.755    23707487.1924   23707497.2834
     -3165.912       -2466.944
   -614771.632 9   -475441.77148  21161408.953    21161410.1764   21161417.9044
      -827.254        -644.614
   1666801.317 9   1309071.11146  23247800.621    23247802.2914   23247810.3254
     -1638.524       -1276.772
 -10215015.826 9  -7928056.56447  22559165.893    22559168.1364   22559177.7064
      4369.977        3405.177
 -23127757.626 9 -17999084.88348  20701080.333    20701082.2264   20701089.5564
      3376.533        2631.065
 -23727051.791 9 -18456411.35648  21039466.371    21039467.6274   21039474.4374
      2927.103        2280.859
  -5601861.206 9  -4353939.10848  19904495.609    19904496.7604   19904503.2324
      -734.594        -572.411
  -6670631.022 9  -5179057.84945  23675736.597    23675737.7304   23675747.2054
      3598.310        2803.878
 97  5 22 17 24 59.9960000  0  8 27  2 26 24  4  9  7  5            -0.003082429
  15440059.898 8  11994375.33045  23725567.149    23725568.9204   23725578.8674
     -3168.318       -2468.819
   -589830.186 9   -456006.89948  21166155.163    21166156.3764   21166164.1274
      -835.163        -650.776
   1716017.382 9   1347421.24446  23257165.983    23257167.7004   23257175.8144
     -1642.229       -1279.659
 -10346074.295 9  -8030179.92046  22534226.453    22534228.3594   22534238.1454
      4367.415        3403.180
 -23228855.439 9 -18077862.35648  20681842.020    20681843.9414   20681851.2454
      3363.619        2621.002
 -23814658.161 9 -18524676.04348  21022795.556    21022796.6884   21022803.4324
      2913.647        2270.374
  -5579700.063 9  -4336670.69148  19908712.734    19908713.8884   19908720.3774
      -742.332        -578.441
  -6778599.613 9  -5263189.08645  23655190.688    23655191.9914   23655201.4164
      3599.802        2805.041
 97  5 22 17 25 29.9960000  0  8 27  2 26 24  4  9  7  5            -0.003097618
  15535156.435 8  12068476.45345  23743663.671    23743665.4294   23743674.9684
     -3171.446       -2471.257
   -564638.164 9   -436376.77448  21170949.139    21170950.2624   21170958.0034
      -844.184        -657.806
   1765354.695 9   1385865.86747  23266554.424    23266556.2924   23266564.5184
     -1646.965       -1283.349
 -10477032.070 9  -8132224.94646  22509306.233    22509307.9494   22509317.4694
      4362.984        3399.728
 -23329551.670 9 -18156326.90348  20662680.230    20662682.0564   20662689.3554
      3349.399        2609.921
 -23901852.365 9 -18592619.56248  21006202.929    21006204.1584   21006210.8754
      2899.391        2259.266
  -5557297.312 9  -4319214.00948  19912975.931    19912977.0044   19912983.5164
      -751.155        -585.316
  -6886586.691 8  -5347334.81145  23634641.575    23634642.6464   23634652.0564
      3599.410        2804.735
 97  5 22 17 25 59.9960000  0  8 27  2 26 24  4  9  7  5            -0.003112784
  15630340.522 8  12142645.76045  23761776.784    23761778.5844   23761787.7794
     -3172.518       -2472.092
   -539182.016 9   -416540.83148  21175793.309    21175794.4054   21175802.1404
      -851.013        -663.127
   1814841.740 9   1424427.14446  23275971.574    23275973.4134   23275981.8684
     -1650.366       -1285.999
 -10607856.448 9  -8234165.94346  22484410.768    22484412.7084   22484422.3374
      4360.386        3397.703
 -23429815.934 9 -18234454.85448  20643600.589    20643602.3604   20643609.6444
      3336.691        2600.019
 -23988614.687 9 -18660226.54748  20989692.538    20989693.7984   20989700.5174
      2886.521        2249.237
  -5534639.397 9  -4301558.49748  19917287.556    19917288.6854   19917295.2004
      -757.511        -590.268
  -6994562.062 9  -5431471.37146  23614094.346    23614095.5094   23614104.7254
      3600.443        2805.540
 97  5 22 17 26 29.9960000  0  8 27  2 26 24  4  9  7  5            -0.003127965
  15725538.152 8  12216825.62645  23779893.264    23779894.1804   23779903.7414
     -3173.795       -2473.087
   -513538.868 9   -396559.18748  21180672.942    21180674.1394   21180681.8984
      -858.365        -668.856
   1864423.127 9   1463061.92346  23285406.406    23285408.2984   23285416.9364
     -1654.832       -1289.479
 -10738615.220 9  -8336055.82346  22459528.152    22459530.1124   22459539.6844
      4356.791        3394.902
 -23529712.875 9 -18312296.58048  20624590.724    20624592.5494   20624599.8314
      3323.153        2589.470
 -24075004.225 9 -18727543.04748  20973253.058    20973254.3574   20973261.1374
      2872.995        2238.697
  -5511800.857 9  -4283762.24148  19921633.618    19921634.7384   19921641.2764
      -764.898        -596.024
  -7102565.027 9  -5515629.43046  23593542.033    23593543.2304   23593552.5794
      3600.107        2805.278
 97  5 22 17 26 59.9960000  0  8 27  2 26 24  4  9  7  5            -0.003143130
  15820791.432 8  12291048.90745  23798019.587    23798020.5604   23798029.6524
     -3175.539       -2474.446
   -487651.456 9   -376387.19348  21185599.008    21185600.3254   21185608.1224
      -866.543        -675.228
   1914150.159 9   1501810.22347  23294868.943    23294870.9914   23294879.7764
     -1659.298       -1292.959
 -10869238.665 9  -8437840.24746  22434671.366    22434673.1674   22434682.8164
      4352.216        3391.337
 -23629179.334 9 -18389802.86548  20605662.740    20605664.6754   20605671.9404
      3308.947        2578.400
 -24160968.696 9 -18794528.32848  20956894.459    20956895.8384   20956902.6514
      2858.740        2227.590
  -5488721.750 9  -4265778.52648  19926025.436    19926026.5844   19926033.1354
      -772.795        -602.178
  -7210550.269 9  -5599773.63246  23572993.018    23572994.2944   23573003.6714
      3600.013        2805.205
 97  5 22 17 27 29.9960000  0  8 27  2 26 24  4  9  7  5            -0.003158292
  15916088.612 8  12365306.34845  23816153.216    23816155.3144   23816164.4324
     -3177.251       -2475.780
   -461526.066 9   -356029.76948  21190570.565    21190571.8534   21190579.6114
      -874.776        -681.644
   1964002.337 9   1540656.03147  23304355.797    23304357.6754   23304366.4304
     -1663.697       -1296.387
 -10999732.263 9  -8539523.48646  22409839.102    22409841.0234   22409850.6454
      4347.671        3387.796
 -23728226.115 9 -18466982.13648  20586814.809    20586816.6854   20586823.8934
      3294.552        2567.183
 -24246505.885 9 -18861180.66148  20940617.218    20940618.6094   20940625.4734
      2844.188        2216.250
  -5465412.359 9  -4247615.37248  19930461.144    19930462.2384   19930468.7794
      -780.734        -608.364
  -7318550.159 9  -5683929.30446  23552441.301    23552442.4644   23552451.8294
      3600.461        2805.554
 97  5 22 17 27 59.9960000  0  8 27  2 26 24  4  9  7  5            -0.003173454
  16011434.251 8  12439601.48045  23834297.490    23834299.1504   23834308.4454
     -3179.528       -2477.554
   -435156.899 9   -335482.39248  21195588.492    21195589.7754   21195597.5264
      -883.552        -688.482
   2013973.680 9   1579594.67146  23313865.416    23313867.0694   23313875.8414
     -1667.855       -1299.627
 -11130106.782 9  -8641113.97746  22385029.754    22385031.5864   22385041.0634
      4343.556        3384.589
 -23826852.741 9 -18543834.01248  20568046.741    20568048.6194   20568055.7994
      3280.307        2556.083
 -24331613.366 9 -18927498.15948  20924421.833    20924423.1674   20924430.0254
      2829.418        2204.741
  -5441881.406 9  -4229279.57148  19934938.906    19934940.0264   19934946.6194
      -788.442        -614.370
  -7426579.060 9  -5768107.52046  23531884.014    23531885.1434   23531894.5924
      3601.014        2805.985
 97  5 22 17 28 29.9960000  0  8 27  2 26 24  4  9  7  5            -0.003188613
  16106831.420 8  12513936.89545  23852451.352    23852452.7204   23852461.9244
     -3180.730       -2478.491
   -408531.169 9   -314735.09048  21200655.244    21200656.5284   21200664.2324
      -891.904        -694.990
   2064045.332 9   1618611.50546  23323393.629    23323395.4384   23323404.2224
     -1670.559       -1301.734
 -11260370.919 9  -8742618.38146  22360241.485    22360243.0834   22360252.6474
      4340.224        3381.993
 -23925068.148 9 -18620365.45748  20549356.840    20549358.7974   20549365.9324
      3266.829        2545.581
 -24416295.514 9 -18993484.22948  20908307.327    20908308.6524   20908315.4954
      2815.544        2193.930
  -5418122.667 9  -4210766.27448  19939460.004    19939461.1654   19939467.7914
      -795.900        -620.182
  -7534650.752 8  -5852319.14346  23511318.638    23511319.7294   23511329.1544
      3603.476        2807.903
 97  5 22 17 28 59.9960000  0  8 27  2 26 24  4  9  7  5            -0.003203791
  16202284.898 8  12588316.17045  23870616.078    23870616.8834   23870626.2264
     -3183.388       -2480.562
   -381645.639 9   -293785.35048  21205771.325    21205772.6454   21205780.3974
      -900.998        -702.076
   2114202.471 9   1657694.94546  23332938.273    23332940.0674   23332948.8074
     -1674.018       -1304.430
 -11390531.145 9  -8844041.84646  22335472.637    22335474.3364   22335483.8844
      4336.204        3378.860
 -24022860.663 9 -18696567.37848  20530747.446    20530749.4784   20530756.5594
      3252.004        2534.029
 -24500543.880 9 -19059132.28648  20892275.216    20892276.6694   20892283.5104
      2800.345        2182.087
  -5394134.643 9  -4192074.31448  19944024.765    19944025.9294   19944032.5984
      -803.932        -626.441
  -7642790.315 9  -5936583.60146  23490740.280    23490741.2544   23490750.8664
      3604.891        2809.006
 97  5 22 17 29 29.9960000  0  8 27  2 26 24  4  9  7  5            -0.003218985
  16297799.023 8  12662742.62045  23888791.201    23888792.5574   23888801.9764
     -3184.274       -2481.252
   -354505.818 9   -272637.44848  21210936.063    21210937.1964   21210944.9184
      -908.452        -707.885
   2164463.476 9   1696859.33846  23342502.643    23342504.4024   23342513.0844
     -1676.673       -1306.498
 -11520578.630 9  -8945377.44446  22310725.410    22310727.0414   22310736.6184
      4333.331        3376.622
 -24120210.260 9 -18772424.16548  20512222.307    20512224.4494   20512231.4954
      3237.984        2523.104
 -24584341.764 9 -19124429.32148  20876329.033    20876330.4464   20876337.2934
      2786.347        2171.179
  -5369916.887 9  -4173203.34248  19948633.207    19948634.4024   19948641.0754
      -810.613        -631.646
  -7750966.303 8  -6020876.46346  23470154.972    23470156.0984   23470165.5644
      3606.698        2810.414
 97  5 22 17 29 59.9960000  0  8 27  2 26 24  4  9  7  5            -0.003234182
  16393365.157 8  12737209.71845  23906976.852    23906978.2644   23906987.4554
     -3186.284       -2482.819
   -327101.400 9   -251283.37348  21216151.005    21216152.0914   21216159.7664
      -917.858        -715.214
   2214841.414 9   1736114.86246  23352089.323    23352091.1284   23352099.7164
     -1681.193       -1310.021
 -11650502.726 9  -9046616.89847  22286001.303    22286003.3354   22286012.8054
      4328.597        3372.933
 -24217105.361 9 -18847926.79948  20493783.800    20493785.9064   20493792.9274
      3222.179        2510.789
 -24667691.880 9 -19189377.44348  20860468.107    20860469.4354   20860476.2884
      2770.874        2159.122
  -5345458.452 9  -4154144.83048  19953287.562    19953288.7124   19953295.3804
      -819.394        -638.489
  -7859155.435 9  -6105179.56746  23449567.083    23449568.2714   23449577.8154
      3606.454        2810.224
 97  5 22 17 30 29.9960000  0  8 27  2 26 24  4  9  7  5            -0.003249377
  16488979.043 8  12811713.89545  23925172.503    23925173.1334   23925182.2784
     -3187.455       -2483.731
   -299426.797 9   -229718.75948  21221417.375    21221418.4244   21221426.0684
      -926.496        -721.945
   2265351.544 9   1775473.35046  23361701.054    23361702.9414   23361711.6214
     -1685.586       -1313.444
 -11780279.977 9  -9147741.90146  22261305.638    22261307.4744   22261316.9074
      4323.576        3369.020
 -24313527.069 9 -18923060.55348  20475435.474    20475437.4804   20475444.4444
      3206.394        2498.489
 -24750583.159 9 -19253968.03648  20844694.531    20844695.7844   20844702.6024
      2755.742        2147.331
  -5320742.328 9  -4134885.52448  19957990.888    19957992.0384   19957998.6784
      -827.696        -644.958
  -7967340.868 9  -6189479.77446  23428980.059    23428981.2234   23428990.6844
      3606.478        2810.243
 97  5 22 17 30 59.9960000  0  8 27  2 26 24  4  9  7  5            -0.003264581
  16584606.556 8  12886228.78645  23943368.833    23943370.2874   23943379.7434
     -3188.467       -2484.520
   -271514.487 9   -207968.92748  21226728.961    21226729.9924   21226737.6074
      -935.066        -728.623
   2315980.789 9   1814924.64346  23371335.572    23371337.3214   23371346.0924
     -1690.374       -1317.175
 -11909911.578 9  -9248753.42846  22236637.821    22236639.4214   22236648.7284
      4317.565        3364.336
 -24409484.609 9 -18997832.61748  20457175.370    20457177.3424   20457184.2874
      3190.236        2485.898
 -24833033.668 9 -19318215.16948  20829004.665    20829005.9694   20829012.7824
      2740.276        2135.280
  -5295799.052 9  -4115449.21448  19962737.538    19962738.6264   19962745.2384
      -835.928        -651.372
  -8075524.455 9  -6273778.55746  23408393.198    23408394.4304   23408403.8914
      3604.979        2809.075
 97  5 22 17 31 29.9960000  0  8 27  2 26 24  4  9  7  5            -0.003279774
  16680240.027 8  12960748.30845  23961568.097    23961568.8174   23961578.5564
     -3187.480       -2483.751
   -243360.751 9   -186030.95948  21232086.493    21232087.5014   21232095.0394
      -942.101        -734.105
   2366732.416 9   1854471.31046  23380993.130    23380995.0104   23381003.6954
     -1693.023       -1319.239
 -12039369.271 9  -9349629.45146  22212003.001    22212004.4054   22212013.6474
      4312.778        3360.606
 -24504980.194 9 -19072244.71848  20439003.131    20439005.1374   20439012.0534
      3175.958        2474.772
 -24915041.638 9 -19382117.47048  20813399.074    20813400.4164   20813407.1704
      2726.900        2124.857
  -5270619.590 9  -4095828.86548  19967529.063    19967530.1244   19967536.7314
      -842.894        -656.801
  -8183679.802 9  -6358055.32246  23387811.619    23387813.1304   23387822.5574
      3605.424        2809.421
 97  5 22 17 31 59.9960000  0  8 27  2 26 24  4  9  7  5            -0.003294961
  16775876.187 8  13035269.90645  23979766.754    23979767.9904   23979777.8104
     -3188.418       -2484.482
   -214964.191 9   -163903.79048  21237490.218    21237491.2014   21237498.7254
      -950.785        -740.871
   2417573.351 9   1894087.59046  23390668.062    23390669.8794   23390678.3324
     -1696.348       -1321.830
 -12168663.523 9  -9450378.08946  22187399.011    22187400.4114   22187409.6874
      4306.703        3355.872
 -24600025.622 9 -19146306.05248  20420916.741    20420918.5814   20420925.4414
      3160.269        2462.547
 -24996633.812 9 -19445695.77848  20797872.587    20797873.9594   20797880.6804
      2712.345        2113.515
  -5245204.803 9  -4076025.14348  19972365.302    19972366.4114   19972372.9954
      -851.291        -663.344
  -8291833.889 9  -6442331.15146  23367230.520    23367231.9484   23367241.1014
      3604.897        2809.011
 97  5 22 17 32 29.9960000  0  7  2 26 24  4  9  7  5               -0.003310167
   -186351.024 9   -141607.84248  21242935.109    21242936.1244   21242943.6874
      -957.916        -746.428
   2468474.106 9   1933750.47146  23400354.356    23400356.0114   23400364.5154
     -1698.235       -1323.300
 -12297800.343 9  -9551004.04647  22162825.068    22162826.4724   22162835.7244
      4301.200        3351.584
 -24694627.584 9 -19220021.81748  20402914.447    20402916.3704   20402923.2444
      3145.336        2450.911
 -25077812.655 9 -19508952.00548  20782424.764    20782426.1384   20782432.8514
      2698.364        2102.621
  -5219578.393 9  -4056056.52148  19977241.923    19977242.9924   19977249.5304
      -858.279        -668.789
  -8400012.376 9  -6526625.94646  23346645.045    23346646.2414   23346655.3384
      3605.961        2809.840
 97  5 22 17 32 59.9960000  0  7  2 26 24  4  9  7  5               -0.003325396
   -157508.919 9   -119133.49248  21248423.648    21248424.6434   21248432.1804
      -965.584        -752.403
   2519446.559 9   1973469.21046  23410053.927    23410055.7464   23410064.3114
     -1700.543       -1325.098
 -12426764.638 9  -9651495.58047  22138283.828    22138285.3004   22138294.5564
      4295.753        3347.340
 -24788766.131 9 -19293376.48148  20385000.454    20385002.3694   20385009.2764
      3129.936        2438.911
 -25158553.408 9 -19571866.86348  20767060.300    20767061.6984   20767068.3954
      2683.691        2091.188
  -5193732.470 9  -4035916.85048  19982160.298    19982161.3014   19982167.8364
      -865.453        -674.379
  -8508211.752 9  -6610937.02046  23326055.295    23326056.5104   23326065.7534
      3606.788        2810.484
 97  5 22 17 33 29.9960000  0  7  2 26 24  4  9  7  5               -0.003340649
   -128429.467 9    -96474.20248  21253957.348    21253958.3004   21253965.8794
      -972.865        -758.077
   2570482.371 9   2013237.31946  23419765.698    23419767.4264   23419776.0964
     -1701.725       -1326.019
 -12555570.089 9  -9751863.33846  22113773.067    22113774.3474   22113783.5804
      4291.519        3344.041
 -24882441.777 9 -19366370.44648  20367174.482    20367176.4364   20367183.3814
      3115.205        2427.432
 -25238859.089 9 -19634442.70748  20751778.634    20751780.0344   20751786.7014
      2670.262        2080.724
  -5167670.614 9  -4015608.92748  19987119.669    19987120.6784   19987127.2044
      -871.758        -679.292
  -8616453.070 9  -6695280.80646  23305457.505    23305458.8204   23305467.9824
      3609.533        2812.623
 97  5 22 17 33 59.9960000  0  7  2 26 24  4  9  7  5               -0.003355915
    -99082.256 9    -73606.27348  21259541.946    21259542.8914   21259550.5044
      -983.019        -765.989
   2621600.613 9   2053069.67746  23429492.988    23429494.8564   23429503.5284
     -1705.834       -1329.221
 -12684208.114 9  -9852100.65847  22089293.696    22089295.2514   22089304.4794
      4284.536        3338.599
 -24975629.716 9 -19438984.37948  20349441.323    20349443.3064   20349450.3064
      3097.871        2413.925
 -25318718.210 9 -19696670.58448  20736582.078    20736583.3524   20736590.0124
      2653.930        2067.997
  -5141378.672 9  -3995121.71148  19992122.753    19992123.8204   19992130.3384
      -880.540        -686.135
  -8724733.073 9  -6779654.69846  23284852.456    23284853.7254   23284862.9874
      3609.467        2812.572
 97  5 22 17 34 29.9960000  0  7  2 26 24  4  9  7  5               -0.003371180
    -69462.606 9    -50526.05148  21265178.284    21265179.3514   21265187.0004
      -991.611        -772.684
   2672822.496 9   2092982.80446  23439240.448    23439242.1494   23439250.7664
     -1708.858       -1331.578
 -12812661.646 9  -9952194.19846  22064849.619    22064851.1984   22064860.4194
      4279.073        3334.343
 -25068334.728 9 -19511222.00248  20331800.050    20331802.0614   20331809.0914
      3082.712        2402.113
 -25398108.865 9 -19758533.42248  20721474.642    20721475.8184   20721482.4914
      2639.005        2056.368
  -5114849.825 9  -3974449.89448  19997171.030    19997172.1074   19997178.6114
      -887.958        -691.915
  -8833036.061 9  -6864046.53746  23264243.032    23264244.3624   23264253.5764
      3610.761        2813.580
 97  5 22 17 34 59.9960000  0  7  2 26 24  4  9  7  5               -0.003386423
    -39566.215 9    -27230.18948  21270867.494    21270868.4754   21270876.1634
     -1000.625        -779.708
   2724148.118 9   2132976.73146  23449007.403    23449009.1544   23449017.8424
     -1711.888       -1333.939
 -12940945.372 9 -10052155.41147  22040437.864    22040439.4774   22040448.7304
      4273.990        3330.382
 -25160579.687 9 -19583101.14648  20314246.440    20314248.3744   20314255.4664
      3067.911        2390.580
 -25477038.654 9 -19820037.14248  20706454.816    20706455.9724   20706462.6434
      2623.849        2044.558
  -5088084.664 9  -3953593.93948  20002264.227    20002265.3284   20002271.8514
      -895.621        -697.886
  -8941354.945 9  -6948450.77446  23243630.644    23243631.9064   23243640.9594
      3611.320        2814.015
 97  5 22 17 35 29.9960000  0  7  2 26 24  4  9  7  5               -0.003401636
     -9389.169 9     -3715.63948  21276609.979    21276611.0274   21276618.7054
     -1010.633        -787.506
   2775565.601 9   2173042.22146  23458792.038    23458793.5984   23458802.2984
     -1715.492       -1336.747
 -13069069.396 9 -10151992.24046  22016056.727    22016058.2634   22016067.2404
      4268.022        3325.731
 -25252380.734 9 -19654634.38448  20296777.199    20296779.1664   20296786.2694
      3052.556        2378.615
 -25555508.911 9 -19881182.78948  20691522.424    20691523.5994   20691530.2464
      2607.831        2032.076
  -5061078.457 9  -3932550.15348  20007403.365    20007404.4464   20007410.9514
      -904.234        -704.598
  -9049680.160 9  -7032859.88846  23223016.808    23223018.1844   23223027.3254
      3610.822        2813.628
 97  5 22 17 35 59.9960000  0  7  2 26 24  4  9  7  5               -0.003416812
     21067.361 9     20016.68748  21282405.564    21282406.7364   21282414.4264
     -1019.710        -794.579
   2827081.661 9   2213184.57046  23468595.341    23468596.9324   23468605.5904
     -1718.867       -1339.377
 -13197030.394 9 -10251702.00747  21991706.380    21991708.0514   21991716.9894
      4262.522        3321.446
 -25343735.023 9 -19725819.49948  20279392.996    20279394.9614   20279402.0894
      3037.622        2366.978
 -25633499.438 9 -19941954.61948  20676681.209    20676682.4434   20676689.1054
      2591.389        2019.264
  -5033832.693 9  -3911319.70048  20012588.091    20012589.1474   20012595.6614
      -912.066        -710.701
  -9157989.715 9  -7117256.84446  23202406.124    23202407.5374   23202416.6724
      3609.890        2812.901
 97  5 22 17 36 29.9960000  0  7  2 26 24  4  9  7  5               -0.003431980
     51762.141 9     43934.67348  21288246.628    21288247.7694   21288255.4574
     -1028.078        -801.100
   2878670.298 9   2253383.43546  23478412.324    23478413.9014   23478422.6494
     -1721.581       -1341.492
 -13324854.283 9 -10351304.93046  21967382.091    21967383.8364   21967392.7964
      4257.519        3317.547
 -25434663.560 9 -19796672.85648  20262089.836    20262091.7704   20262098.9494
      3022.671        2355.328
 -25711014.831 9 -20002356.20748  20661930.401    20661931.7104   20661938.4014
      2575.026        2006.514
  -5006391.514 9  -3889936.97948  20017810.072    20017811.0694   20017817.5864
      -918.681        -715.855
  -9266298.069 9  -7201652.87046  23181795.676    23181797.0594   23181806.0524
      3609.370        2812.496
 97  5 22 17 36 59.9960000  0  7  2 26 24  4  9  7  5               -0.003447136
     82725.115 9     68061.63148  21294138.734    21294139.8214   21294147.5504
     -1037.161        -808.177
   2930342.870 9   2293647.77946  23488245.174    23488246.8264   23488255.3544
     -1724.290       -1343.602
 -13452515.592 9 -10450781.20547  21943088.831    21943090.6264   21943099.5614
      4251.788        3313.082
 -25525112.356 9 -19867152.40048  20244878.018    20244879.8904   20244887.0604
      3006.081        2342.401
 -25788029.382 9 -20062367.53248  20647275.160    20647276.3264   20647283.0254
      2558.197        1993.400
  -4978747.406 9  -3868396.12748  20023070.558    20023071.5624   20023078.0734
      -925.481        -721.154
  -9374577.484 9  -7286026.32646  23161190.718    23161192.0784   23161201.0814
      3608.122        2811.524
 97  5 22 17 37 29.9960000  0  7  2 26 24  4  9  7  5               -0.003462301
    113936.166 9     92381.89948  21300078.085    21300079.1054   21300086.8064
     -1044.833        -814.156
   2982070.701 9   2333955.12146  23498088.390    23498090.2394   23498098.8504
     -1725.492       -1344.539
 -13580016.363 9 -10550132.35947  21918825.991    21918827.9544   21918836.9114
      4246.799        3309.194
 -25615080.014 9 -19937257.02548  20227757.642    20227759.6034   20227766.7584
      2990.418        2330.196
 -25864561.365 9 -20122002.83248  20632711.481    20632712.7814   20632719.4764
      2542.617        1981.260
  -4950919.679 9  -3846712.19848  20028365.917    20028366.9864   20028373.5364
      -930.997        -725.452
  -9482844.886 9  -7370390.42746  23140588.010    23140589.4324   23140598.3144
      3608.401        2811.741
 97  5 22 17 37 59.9960000  0  7  2 26 24  4  9  7  5               -0.003477498
    145365.962 9    116872.61048  21306059.026    21306060.0104   21306067.7314
     -1051.552        -819.391
   3033829.425 9   2374286.51446  23507937.810    23507939.6274   23507948.2854
     -1726.123       -1345.031
 -13707369.869 9 -10649368.77947  21894591.462    21894593.3194   21894602.2194
      4242.112        3305.542
 -25704580.928 9 -20006997.95548  20210726.118    20210728.1344   20210735.3044
      2975.312        2318.425
 -25940635.297 9 -20181281.20748  20618235.051    20618236.4084   20618243.1064
      2528.003        1969.872
  -4922931.219 9  -3824903.02148  20033692.012    20033693.0134   20033699.6204
      -936.208        -729.513
  -9591133.152 9  -7454770.77246  23119981.410    23119982.7584   23119991.6734
      3609.812        2812.841
 97  5 22 17 38 29.9960000  0  7  2 26 24  4  9  7  5               -0.003492706
    177042.082 9    141555.27048  21312086.774    21312087.8004   21312095.5014
     -1060.409        -826.293
   3085644.607 9   2414661.93346  23517798.165    23517799.8504   23517808.4604
     -1728.322       -1346.744
 -13834531.990 9 -10748456.06547  21870393.362    21870395.1654   21870403.9984
      4234.977        3299.982
 -25793590.543 9 -20076356.05648  20193788.136    20193790.1494   20193797.3164
      2958.514        2305.336
 -26016239.124 9 -20240193.26948  20603848.054    20603849.4304   20603856.1374
      2512.149        1957.519
  -4894732.570 9  -3802930.05948  20039058.058    20039059.0584   20039065.6994
      -943.996        -735.581
  -9699428.175 9  -7539156.40146  23099373.494    23099374.7824   23099383.5404
      3609.813        2812.841
 97  5 22 17 38 59.9960000  0  7  2 26 24  4  9  7  5               -0.003507910
    208980.163 9    166442.05248  21318164.415    21318165.4544   21318173.1354
     -1068.377        -832.502
   3137519.870 9   2455084.19146  23527669.523    23527671.4714   23527680.0514
     -1729.774       -1347.876
 -13961477.518 9 -10847374.58947  21846236.293    21846238.1344   21846246.9794
      4228.406        3294.862
 -25882108.634 9 -20145331.15448  20176943.785    20176945.7124   20176952.8584
      2943.232        2293.428
 -26091374.712 9 -20298740.46648  20589550.156    20589551.5924   20589558.3014
      2497.251        1945.910
  -4866286.973 9  -3780764.67048  20044471.091    20044472.0924   20044478.7384
      -951.969        -741.794
  -9807735.451 9  -7623551.61146  23078763.375    23078764.5904   23078773.3204
      3610.904        2813.691
 97  5 22 17 39 29.9960000  0  7  2 26 24  4  9  7  5               -0.003523104
    241167.443 9    191523.01848  21324289.301    21324290.4854   21324298.1924
     -1077.905        -839.926
   3189458.110 9   2495555.56746  23537553.323    23537555.0274   23537563.4664
     -1733.179       -1350.529
 -14088218.798 9 -10946133.95047  21822118.307    21822120.0024   21822128.8194
      4220.540        3288.732
 -25970170.595 9 -20213950.82648  20160186.213    20160188.0744   20160195.1854
      2926.956        2280.745
 -26166051.449 9 -20356930.12448  20575339.757    20575341.0934   20575347.7794
      2480.731        1933.037
  -4837594.192 9  -3758406.67348  20049931.168    20049932.1504   20049938.8224
      -961.174        -748.967
  -9916069.494 9  -7707967.62546  23058148.017    23058149.1334   23058157.8754
      3610.979        2813.750
 97  5 22 17 39 59.9960000  0  7  2 26 24  4  9  7  5               -0.003538268
    273634.836 9    216822.25948  21330467.523    21330468.8834   21330476.5004
     -1086.045        -846.269
   3241494.146 9   2536102.95846  23547455.311    23547457.0114   23547466.0034
     -1735.315       -1352.194
 -14214732.804 9 -11044716.22647  21798043.312    21798045.0964   21798053.8714
      4213.943        3283.592
 -26057748.129 9 -20282193.02748  20143520.758    20143522.6044   20143529.6684
      2911.862        2268.983
 -26240244.245 9 -20414742.68348  20561221.340    20561222.6774   20561229.3424
      2465.875        1921.461
  -4808638.395 9  -3735843.72648  20055441.311    20055442.2624   20055448.9334
      -968.607        -754.759
 -10024415.745 9  -7792393.21346  23037530.473    23037531.5684   23037540.1774
      3612.494        2814.930
 97  5 22 17 40 29.9960000  0  7  2 26 24  4  9  7  5               -0.003553416
    306360.257 9    242322.54848  21336695.068    21336696.3614   21336704.0074
     -1095.626        -853.735
   3293589.847 9   2576697.07046  23557368.854    23557370.5114   23557379.3654
     -1737.649       -1354.012
 -14341033.686 9 -11143132.44647  21774009.039    21774010.8414   21774019.5204
      4206.050        3277.442
 -26144859.065 9 -20350071.64148  20126944.049    20126945.9134   20126952.9414
      2895.412        2256.165
 -26313981.836 9 -20472200.52948  20547189.545    20547190.8814   20547197.5294
      2449.854        1908.977
  -4779472.123 9  -3713116.77148  20060991.451    20060992.4484   20060999.1084
      -975.580        -760.192
 -10132795.331 9  -7876844.72146  23016906.325    23016907.4574   23016916.0524
      3612.690        2815.083
 97  5 22 17 40 59.9960000  0  7  2 26 24  4  9  7  5               -0.003568549
    339358.703 9    268035.60148  21342974.529    21342975.8114   21342983.3624
     -1104.132        -860.363
   3345746.218 9   2617338.36246  23567294.024    23567295.8044   23567304.5504
     -1739.204       -1355.224
 -14467119.276 9 -11241380.87547  21750015.662    21750017.4904   21750026.2454
      4199.832        3272.596
 -26231477.626 9 -20417566.59548  20110461.082    20110462.9414   20110469.9464
      2879.291        2243.603
 -26387249.347 9 -20529292.08648  20533247.263    20533248.5354   20533255.1714
      2434.851        1897.286
  -4750122.467 9  -3690246.91948  20066576.507    20066577.5224   20066584.1334
      -980.828        -764.282
 -10241185.391 9  -7961304.43846  22996280.092    22996281.4794   22996289.9794
      3613.337        2815.587
 97  5 22 17 41 29.9960000  0  7  2 26 24  4  9  7  5               -0.003583672
    372632.901 9    293963.51748  21349306.553    21349307.7324   21349315.2804
     -1113.515        -867.674
   3397956.663 9   2658021.74946  23577229.343    23577231.0834   23577239.9544
     -1740.717       -1356.403
 -14593004.557 9 -11339473.25247  21726060.651    21726062.2224   21726070.9614
      4192.825        3267.136
 -26317583.962 9 -20484662.40748  20094075.599    20094077.4044   20094084.4484
      2861.559        2229.786
 -26460046.880 9 -20586017.42448  20519394.363    20519395.6214   20519402.2754
      2418.792        1884.773
  -4720614.569 9  -3667253.76048  20072191.701    20072192.7154   20072199.3274
      -985.996        -768.308
 -10349572.669 9  -8045761.94546  22975654.812    22975655.9494   22975664.4504
      3613.118        2815.417
 97  5 22 17 41 59.9960000  0  7  2 26 24  4  9  7  5               -0.003598807
    406166.585 9    320093.63647  21355687.931    21355689.0654   21355696.5304
     -1122.482        -874.661
   3450183.215 9   2698717.74146  23587167.964    23587169.4114   23587178.4004
     -1741.326       -1356.877
 -14718689.149 9 -11437409.21347  21702143.825    21702145.1734   21702153.9904
      4185.499        3261.428
 -26403170.012 9 -20551352.80648  20077789.091    20077790.8984   20077797.9254
      2843.762        2215.918
 -26532375.691 9 -20642377.52648  20505630.638    20505631.9474   20505638.5574
      2402.661        1872.203
  -4690961.616 9  -3644147.57348  20077834.554    20077835.5224   20077842.1264
      -991.301        -772.442
 -10457959.440 9  -8130219.08346  22955029.517    22955030.6024   22955039.0104
      3612.225        2814.721
 97  5 22 17 42 29.9960000  0  7  2 26 24  4  9  7  5               -0.003613944
    439975.399 9    346438.14348  21362121.631    21362122.7324   21362130.1664
     -1131.713        -881.854
   3502428.092 9   2739427.96846  23597109.913    23597111.4354   23597120.4564
     -1742.135       -1357.508
 -14844150.249 9 -11535171.06147  21678269.327    21678270.7094   21678279.4704
      4178.191        3255.733
 -26488220.698 9 -20617626.03548  20061604.478    20061606.2814   20061613.3114
      2825.988        2202.069
 -26604210.764 9 -20698352.89448  20491960.914    20491962.2044   20491968.8094
      2385.886        1859.132
  -4661144.349 9  -3620913.35348  20083508.682    20083509.5554   20083516.1924
      -997.181        -777.024
 -10566312.482 9  -8214649.91946  22934410.643    22934411.6034   22934420.0134
      3610.788        2813.601
 97  5 22 17 42 59.9960000  0  7  2 26 24  4  9  7  5               -0.003629087
    474038.819 9    372981.03447  21368603.872    21368604.8474   21368612.2904
     -1139.486        -887.911
   3554687.942 9   2780149.90046  23607054.509    23607056.2004   23607065.1124
     -1742.100       -1357.481
 -14969414.285 9 -11632779.34847  21654432.320    21654433.7344   21654442.4654
      4172.250        3251.104
 -26572753.080 9 -20683495.40148  20045518.476    20045520.3134   20045527.3294
      2809.299        2189.064
 -26675547.487 9 -20753939.94448  20478385.973    20478387.2814   20478393.8784
      2369.573        1846.421
  -4631138.315 9  -3597532.03848  20089218.711    20089219.5764   20089226.1844
     -1003.594        -782.021
 -10674629.327 9  -8299052.57646  22913798.594    22913799.4844   22913807.8714
      3610.120        2813.081
 97  5 22 17 43 29.9960000  0  7  2 26 24  4  9  7  5               -0.003644242
    508356.129 9    399721.76747  21375134.346    21375135.2234   21375142.7234
     -1148.318        -894.793
   3606961.368 9   2820882.39146  23617001.834    23617003.6424   23617012.4474
     -1742.878       -1358.087
 -15094475.556 9 -11730229.62547  21630633.740    21630635.3414   21630644.0404
      4164.899        3245.376
 -26656768.374 9 -20748961.83648  20029530.888    20029532.7234   20029539.7414
      2791.798        2175.427
 -26746363.024 9 -20809120.87448  20464910.245    20464911.5574   20464918.1094
      2351.473        1832.317
  -4600917.120 9  -3573983.06648  20094969.629    20094970.5024   20094977.1084
     -1011.229        -787.971
 -10782911.806 9  -8383428.42746  22893192.830    22893193.9104   22893202.3604
      3608.740        2812.005
 97  5 22 17 43 59.9960000  0  7  2 26 24  4  9  7  5               -0.003659403
    542916.400 9    426651.82447  21381710.988    21381711.8704   21381719.3744
     -1157.064        -901.608
   3659251.847 9   2861628.19146  23626952.448    23626954.1874   23626963.0134
     -1744.580       -1359.413
 -15219332.443 9 -11827520.66047  21606874.308    21606875.8364   21606884.5344
      4157.392        3239.526
 -26740286.078 9 -20814040.54548  20013638.077    20013639.8454   20013646.7854
      2774.636        2162.054
 -26816659.843 9 -20863897.60848  20451533.217    20451534.5004   20451541.0674
      2333.782        1818.531
  -4570476.403 9  -3550263.03548  20100762.350    20100763.1904   20100769.7884
     -1019.305        -794.264
 -10891170.377 9  -8467785.67546  22872591.949    22872592.9524   22872601.3114
      3607.245        2810.840
 97  5 22 17 44 29.9960000  0  7  2 26 24  4  9  7  5               -0.003674568
    577716.615 9    453768.84447  21388333.293    21388334.1274   21388341.6464
     -1163.183        -906.376
   3711580.029 9   2902403.32846  23636910.249    23636911.8554   23636920.9184
     -1744.364       -1359.245
 -15343988.148 9 -11924654.90447  21583153.032    21583154.5934   21583163.3504
      4152.603        3235.794
 -26823310.788 9 -20878735.10048  19997839.083    19997840.7834   19997847.6604
      2760.063        2150.698
 -26886450.350 9 -20918279.81748  20438252.531    20438253.7724   20438260.3444
      2318.650        1806.740
  -4539823.395 9  -3526377.58448  20106595.382    20106596.2644   20106602.8554
     -1024.599        -798.389
 -10999420.616 9  -8552136.44546  22851992.378    22851993.6004   22852001.8444
      3609.242        2812.396
 97  5 22 17 44 59.9960000  0  7  2 26 24  4  9  7  5               -0.003689769
    612713.037 9    481038.74747  21394992.881    21394993.7644   21395001.3084
     -1170.357        -911.966
   3763915.996 9   2943184.51646  23646869.066    23646870.9514   23646880.1884
     -1744.973       -1359.719
 -15468481.655 9 -12021662.79247  21559462.801    21559464.2204   21559472.9694
      4146.494        3231.034
 -26905879.247 9 -20943074.13748  19982126.776    19982128.4944   19982135.3504
      2744.263        2138.387
 -26955777.356 9 -20972300.86048  20425060.020    20425061.2744   20425067.8684
      2302.955        1794.510
  -4508996.714 9  -3502356.80548  20112461.540    20112462.3894   20112468.9674
     -1030.538        -803.017
 -11107726.361 9  -8636530.43446  22831382.385    22831383.6084   22831391.8824
      3611.012        2813.776
 97  5 22 17 45 29.9960000  0  7  2 26 24  4  9  7  5               -0.003704983
    647945.409 9    508492.51547  21401697.398    21401698.3214   21401705.8364
     -1178.618        -918.404
   3816286.719 9   2983992.80545  23656835.163    23656836.7694   23656845.9324
     -1746.421       -1360.848
 -15592768.169 9 -12118509.38547  21535812.037    21535813.2504   21535821.9864
      4138.993        3225.189
 -26987959.714 9 -21007032.91848  19966507.421    19966509.0894   19966515.8824
      2727.613        2125.413
 -27024627.722 9 -21025950.48848  20411958.216    20411959.5014   20411966.1004
      2287.103        1782.158
  -4477995.770 9  -3478200.22748  20118360.857    20118361.6714   20118368.2304
     -1036.343        -807.540
 -11216078.056 9  -8720960.21846  22810763.675    22810764.8594   22810773.1994
      3612.173        2814.680
 97  5 22 17 45 59.9960000  0  7  2 26 24  4  9  7  5               -0.003720191
    683429.805 9    536142.65747  21408450.006    21408450.8364   21408458.3304
     -1186.613        -924.634
   3868700.314 9   3024834.62946  23666809.439    23666810.7904   23666819.6934
     -1747.244       -1361.489
 -15716814.391 9 -12215168.71547  21512206.724    21512208.0364   21512216.7484
      4131.107        3219.044
 -27069531.337 9 -21070595.20348  19950984.948    19950986.5474   19950993.2974
      2710.742        2112.266
 -27093003.541 9 -21079230.34548  20398946.733    20398948.0184   20398954.5924
      2271.612        1770.087
  -4446810.163 9  -3453899.76348  20124295.411    20124296.0934   20124302.6404
     -1042.195        -812.100
 -11324451.403 9  -8805406.88046  22790140.864    22790141.9244   22790150.2454
      3613.115        2815.414
 97  5 22 17 46 29.9960000  0  7  2 26 24  4  9  7  5               -0.003735399
    719180.752 9    564000.50247  21415253.465    21415254.0634   21415261.5294
     -1198.195        -933.658
   3921146.536 9   3065701.73545  23676789.296    23676790.9834   23676799.8394
     -1750.530       -1364.049
 -15840604.044 9 -12311628.14347  21488650.391    21488651.6564   21488660.3184
      4120.161        3210.515
 -27150569.924 9 -21133742.13148  19935563.870    19935565.4614   19935572.1564
      2690.455        2096.458
 -27160888.192 9 -21132127.47148  20386028.829    20386030.0164   20386036.5934
      2252.557        1755.239
  -4415432.496 9  -3429449.63548  20130266.314    20130267.0274   20130273.5644
     -1051.106        -819.044
 -11432839.102 9  -8889864.75246  22769515.239    22769516.2994   22769524.6364
      3611.089        2813.836
 97  5 22 17 46 59.9960000  0  7  2 26 24  4  9  7  5               -0.003750601
    755207.629 9    592073.36247  21422109.235    21422109.8264   21422117.2644
     -1207.281        -940.738
   3973602.440 9   3106576.42246  23686771.209    23686773.0754   23686782.0104
     -1750.075       -1363.695
 -15964141.765 9 -12407891.25647  21465142.046    21465143.2084   21465151.9054
      4111.962        3204.126
 -27231070.633 9 -21196469.93948  19920245.182    19920246.6874   19920253.3564
      2672.697        2082.621
 -27228275.221 9 -21184636.84148  20373205.613    20373206.7094   20373213.2844
      2236.221        1742.510
  -4383862.653 9  -3404849.76648  20136273.913    20136274.5504   20136281.1034
     -1057.021        -823.653
 -11541218.629 9  -8974316.24346  22748891.399    22748892.3314   22748900.6364
      3610.468        2813.352
 97  5 22 17 47 29.9960000  0  7  2 26 24  4  9  7  5               -0.003765803
    791492.995 9    620347.63547  21429013.932    21429014.6684   21429022.1504
     -1213.652        -945.703
   4026032.964 9   3147431.33346  23696748.568    23696750.4014   23696759.2484
     -1747.099       -1361.376
 -16087444.658 9 -12503971.38747  21441678.034    21441679.3714   21441688.0754
      4106.148        3199.596
 -27311052.126 9 -21258793.15348  19905025.174    19905026.7034   19905033.3744
      2657.416        2070.714
 -27295182.310 9 -21236772.22748  20360473.675    20360474.7064   20360481.2724
      2222.269        1731.638
  -4352130.886 9  -3380123.71348  20142312.235    20142312.9214   20142319.4594
     -1060.460        -826.332
 -11649583.503 9  -9058756.29846  22728270.218    22728271.1104   22728279.4064
      3611.859        2814.436
 97  5 22 17 47 59.9960000  0  7  2 26 24  4  9  7  5               -0.003781011
    828034.510 9    648821.50147  21435967.487    21435968.3004   21435975.8404
     -1222.696        -952.750
   4078436.150 9   3188264.93046  23706720.791    23706722.5354   23706731.4264
     -1746.879       -1361.204
 -16210512.216 9 -12599868.13647  21418259.076    21418260.3674   21418269.0774
      4097.971        3193.224
 -27390512.420 9 -21320710.24048  19889904.349    19889905.9204   19889912.5254
      2639.490        2056.745
 -27361594.532 9 -21288522.00848  20347835.825    20347836.8764   20347843.4564
      2204.843        1718.059
  -4320230.666 9  -3355266.40948  20148382.604    20148383.3194   20148389.8834
     -1066.522        -831.056
 -11757937.220 9  -9143187.68246  22707651.238    22707651.9924   22707660.2304
      3611.400        2814.078
 97  5 22 17 48 29.9960000  0  7  2 26 24  4  9  7  5               -0.003796208
    864866.477 9    677521.69147  21442976.279    21442977.1984   21442984.7634
     -1234.497        -961.946
   4130866.480 9   3229119.65846  23716698.067    23716699.9184   23716708.5934
     -1750.115       -1363.726
 -16333318.443 9 -12695561.23947  21394889.589    21394891.0884   21394899.8144
      4087.213        3184.841
 -27469413.066 9 -21382191.24048  19874890.041    19874891.6064   19874898.2094
      2618.875        2040.682
 -27427467.666 9 -21339851.72048  20335300.548    20335301.6334   20335308.2084
      2184.976        1702.579
  -4288139.950 9  -3330260.65548  20154489.207    20154490.0054   20154496.5634
     -1074.587        -837.341
 -11866256.504 9  -9227592.24246  22687038.669    22687039.4694   22687047.6544
      3608.023        2811.446
 97  5 22 17 48 59.9960000  0  7  2 26 24  4  9  7  5               -0.003811394
    901969.137 9    706432.82347  21450036.486    21450037.6124   21450045.2464
     -1240.727        -966.800
   4183310.998 9   3269985.57346  23726678.092    23726679.7954   23726688.2824
     -1747.922       -1362.017
 -16455876.959 9 -12791061.33747  21371567.517    21371568.9164   21371577.6044
      4081.401        3180.312
 -27547780.752 9 -21443256.94148  19859976.991    19859978.6754   19859985.3044
      2603.901        2029.014
 -27492826.509 9 -21390780.68248  20322863.160    20322864.2414   20322870.8254
      2170.475        1691.279
  -4255884.712 9  -3305126.71048  20160627.132    20160627.9924   20160634.5504
     -1077.507        -839.616
 -11974545.618 9  -9311973.28946  22666431.749    22666432.7434   22666440.9144
      3609.782        2812.817
 97  5 22 17 49 29.9960000  0  7  2 26 24  4  9  7  5               -0.003826587
    939306.549 9    735526.86147  21457141.522    21457142.6904   21457150.3684
     -1248.161        -972.593
   4235752.954 9   3310849.36246  23736657.727    23736659.2004   23736667.9044
     -1747.769       -1361.898
 -16578204.068 9 -12886381.10247  21348289.502    21348290.8144   21348299.4974
      4073.996        3174.542
 -27625649.226 9 -21503933.64648  19845159.034    19845160.7554   19845167.3994
      2587.642        2016.344
 -27557695.029 9 -21441327.57848  20310519.043    20310520.1714   20310526.7304
      2154.415        1678.765
  -4223484.575 9  -3279879.85448  20166792.689    20166793.5414   20166800.1134
     -1082.173        -843.252
 -12082848.845 9  -9396365.35046  22645822.433    22645823.3394   22645831.4074
      3610.842        2813.643
 97  5 22 17 49 59.9960000  0  7  2 26 24  4  9  7  5               -0.003841785
    976890.502 9    764813.01947  21464293.527    21464294.6754   21464302.3894
     -1256.750        -979.286
   4288207.605 9   3351722.97846  23746639.015    23746640.7594   23746649.8694
     -1748.426       -1362.410
 -16700291.599 9 -12981514.18947  21325056.810    21325058.2634   21325066.9464
      4065.677        3168.060
 -27703008.207 9 -21564213.34148  19830438.083    19830439.8054   19830446.4754
      2570.205        2002.757
 -27622057.937 9 -21491480.49248  20298271.182    20298272.3264   20298278.8464
      2137.185        1665.339
  -4190922.537 9  -3254506.84848  20172988.940    20172989.8604   20172996.4564
     -1087.985        -847.781
 -12191165.204 9  -9480767.62946  22625210.402    22625211.3754   22625219.4894
      3610.712        2813.542
 97  5 22 17 50 29.9960000  0  7  2 26 24  4  9  7  5               -0.003856968
   1014733.546 9    794301.06247  21471494.746    21471495.9944   21471503.7264
     -1265.439        -986.056
   4340677.378 9   3392608.59546  23756623.895    23756625.6324   23756634.6084
     -1748.559       -1362.514
 -16822124.462 9 -13076448.83147  21301872.794    21301874.1754   21301882.8904
      4057.110        3161.384
 -27779838.663 9 -21624081.19948  19815817.640    19815819.4124   19815826.1134
      2552.771        1989.172
 -27685913.111 9 -21541237.76848  20286119.936    20286121.0744   20286127.6014
      2120.452        1652.300
  -4158183.258 9  -3228995.73248  20179218.947    20179219.9404   20179226.5884
     -1094.001        -852.468
 -12299455.543 9  -9565149.64346  22604603.243    22604604.3544   22604612.4194
      3609.332        2812.466
 97  5 22 17 50 59.9960000  0  7  2 26 24  4  9  7  5               -0.003872138
   1052818.951 9    823977.95347  21478742.184    21478743.4104   21478751.1954
     -1272.984        -991.936
   4393118.931 9   3433472.02646  23766603.348    23766604.9224   23766614.0694
     -1747.102       -1361.378
 -16943718.490 9 -13171197.35947  21278733.997    21278735.5224   21278744.2864
      4049.498        3155.453
 -27856175.489 9 -21683564.40648  19801291.175    19801292.9484   19801299.6954
      2536.795        1976.723
 -27749274.720 9 -21590610.44448  20274062.522    20274063.7504   20274070.2984
      2104.212        1639.646
  -4125269.251 9  -3203348.46248  20185482.352    20185483.2924   20185489.9514
     -1099.707        -856.915
 -12407724.902 9  -9649515.29646  22584000.087    22584001.2344   22584009.3624
      3609.351        2812.481
 97  5 22 17 51 29.9960000  0  7  2 26 24  4  9  7  5               -0.003887312
   1091130.579 9    853831.13647  21486032.591    21486033.9364   21486041.6244
     -1281.526        -998.592
   4445526.796 9   3474309.21446  23776576.170    23776577.7154   23776586.9694
     -1746.879       -1361.204
 -17065086.723 9 -13265769.95747  21255638.282    21255639.8404   21255648.5634
      4041.215        3148.999
 -27932028.879 9 -21742670.91448  19786856.709    19786858.5124   19786865.2704
      2519.695        1963.399
 -27812150.582 9 -21639604.62048  20262097.613    20262098.8354   20262105.3984
      2087.199        1626.389
  -4092193.390 9  -3177575.07348  20191776.390    20191777.3914   20191784.0894
     -1105.709        -861.591
 -12516002.113 9  -9733887.09446  22563395.521    22563396.7274   22563404.7624
      3608.735        2812.001
 97  5 22 17 51 59.9960000  0  7  2 26 24  4  9  7  5               -0.003902446
   1129719.558 9    883900.42447  21493375.990    21493377.1814   21493384.9214
     -1291.145       -1006.087
   4497923.658 9   3515137.98045  23786546.882    23786548.5964   23786557.4034
     -1746.431       -1360.855
 -17186191.264 9 -13360137.06147  21232592.871    21232594.3404   21232603.0824
      4032.098        3141.895
 -28007344.299 9 -21801358.22048  19772524.644    19772526.4354   19772533.1794
      2501.146        1948.945
 -27874503.168 9 -21688191.04548  20250232.371    20250233.5374   20250240.1174
      2069.567        1612.650
  -4058918.208 9  -3151646.36848  20198108.517    20198109.4504   20198116.1644
     -1112.769        -867.093
 -12624241.124 9  -9818229.09846  22542798.341    22542799.4344   22542807.5594
      3606.970        2810.626
 97  5 22 17 52 29.9960000  0  8  2 26 24  4  9  7  5 16            -0.003917568
   1168595.565 9    914193.37547  21500774.013    21500775.1164   21500782.8084
     -1300.331       -1013.245
   4550302.634 8   3555952.67845  23796514.215    23796515.9754   23796524.9634
     -1745.420       -1360.068
 -17307028.519 9 -13454295.89347  21209598.205    21209599.6904   21209608.5054
      4023.706        3135.355
 -28082106.545 9 -21859614.48348  19758297.835    19758299.6364   19758306.4054
      2483.196        1934.958
 -27936334.313 9 -21736371.15848  20238466.171    20238467.4754   20238474.0544
      2052.501        1599.351
  -4025436.837 9  -3125557.00148  20204479.825    20204480.7534   20204487.5094
     -1119.143        -872.059
 -12732429.392 9  -9902531.58046  22522210.617    22522211.8194   22522219.9424
      3605.927        2809.813
  -1971416.71618  -1518184.46855  24003721.822    24003722.0355   24003731.3675
      2527.441        1969.435
 97  5 22 17 52 59.9960000  0  8  2 26 24  4  9  7  5 16            -0.003932695
   1207736.674 9    944692.89347  21508222.421    21508223.4184   21508231.1644
     -1310.121       -1020.874
   4602644.694 9   3596738.62646  23806474.500    23806476.2614   23806485.4844
     -1745.136       -1359.846
 -17427624.471 9 -13548266.70247  21186649.596    21186651.0374   21186659.8364
      4014.794        3128.411
 -28156338.045 9 -21917457.17948  19744172.110    19744173.8274   19744180.5954
      2464.282        1920.220
 -27997654.242 9 -21784152.92048  20226797.512    20226798.6724   20226805.2544
      2034.533        1585.350
  -3991777.567 9  -3099329.00548  20210885.014    20210885.8914   20210892.6574
     -1125.696        -877.166
 -12840614.560 9  -9986831.63146  22501623.762    22501624.7864   22501632.8734
      3605.439        2809.433
  -2047119.246 8  -1577173.46745  23989315.902    23989316.0644   23989325.4034
      2518.280        1962.296
 97  5 22 17 53 29.9960000  0  8  2 26 24  4  9  7  5 16            -0.003947834
   1247164.932 9    975416.16747  21515725.414    21515726.4484   21515734.1974
     -1319.430       -1028.127
   4654962.298 9   3637505.54846  23816430.266    23816432.0504   23816441.1444
     -1743.511       -1358.580
 -17547961.345 9 -13642035.63647  21163750.232    21163751.6964   21163760.4704
      4006.444        3121.904
 -28229995.573 9 -21974852.62048  19730155.497    19730157.2224   19730163.9754
      2445.269        1905.404
 -28058449.028 9 -21831525.47748  20215228.603    20215229.8244   20215236.3974
      2017.404        1572.003
  -3957943.072 9  -3072964.47548  20217323.537    20217324.3914   20217331.1324
     -1131.091        -881.370
 -12948797.788 9 -10071130.19846  22481037.149    22481038.1534   22481046.2464
      3605.555        2809.523
  -2122565.021 8  -1635962.37745  23974959.253    23974959.2874   23974968.3514
      2510.325        1956.097
 97  5 22 17 53 59.9960000  0  8  2 26 24  4  9  7  5 16            -0.003962971
   1286896.917 9   1006376.10547  21523286.107    21523287.1194   21523294.9454
     -1328.726       -1035.371
   4707252.189 8   3678250.88245  23826380.733    23826382.3934   23826391.7294
     -1742.189       -1357.550
 -17668011.439 9 -13735581.11447  21140905.412    21140906.8764   21140915.5854
      3997.185        3114.690
 -28303051.482 9 -22031779.26748  19716253.395    19716255.1064   19716261.8454
      2425.795        1890.230
 -28118695.484 9 -21878470.76648  20203764.108    20203765.3164   20203771.8954
      1999.516        1558.064
  -3923903.868 9  -3046440.43448  20223801.039    20223801.9034   20223808.6254
     -1137.414        -886.297
 -13056945.681 9 -10155401.21646  22460457.284    22460458.2324   22460466.2684
      3604.824        2808.954
  -2197737.664 9  -1694538.47245  23960653.826    23960654.1644   23960663.4084
      2501.462        1949.191
 97  5 22 17 54 29.9960000  0  8  2 26 24  4  9  7  5 16            -0.003978126
   1326884.931 9   1037535.54747  21530895.688    21530896.7254   21530904.5194
     -1336.908       -1041.746
   4759506.915 9   3718968.81445  23836324.270    23836326.1194   23836335.3654
     -1741.264       -1356.829
 -17787790.444 9 -13828915.34547  21118112.223    21118113.6904   21118122.3254
      3988.019        3107.547
 -28375553.779 9 -22088274.53448  19702456.602    19702458.3344   19702465.0814
      2407.805        1876.212
 -28178411.619 9 -21925002.81548  20192400.472    20192401.6924   20192408.3034
      1981.631        1544.128
  -3889713.743 9  -3019798.79248  20230307.244    20230308.0794   20230314.8084
     -1141.839        -889.745
 -13165094.081 9 -10239672.60946  22439877.049    22439878.2084   22439886.2434
      3605.276        2809.306
  -2272645.436 9  -1752908.17045  23946399.235    23946399.9104   23946408.8774
      2492.491        1942.201
 97  5 22 17 54 59.9960000  0  8  2 26 24  4  9  7  5 16            -0.003993304
   1367112.782 9   1068881.87447  21538550.962    21538551.7724   21538559.6544
     -1344.990       -1048.044
   4811736.292 9   3759666.95846  23846263.388    23846265.2144   23846274.3024
     -1740.571       -1356.289
 -17907278.228 9 -13922022.65747  21095374.299    21095375.8624   21095384.4454
      3977.763        3099.555
 -28447506.797 9 -22144341.78848  19688764.318    19688766.0934   19688772.8394
      2389.079        1861.620
 -28237579.269 9 -21971107.47548  20181141.240    20181142.4444   20181149.0654
      1963.036        1529.638
  -3855385.505 9  -2993049.52848  20236839.636    20236840.4994   20236847.2344
     -1146.699        -893.532
 -13273248.574 9 -10323948.79346  22419295.762    22419297.0494   22419305.0734
      3604.932        2809.038
  -2347274.828 9  -1811060.95745  23932197.854    23932198.4504   23932207.5364
      2482.910        1934.735
 97  5 22 17 55 29.9960000  0  8  2 26 24  4  9  7  5 16            -0.004008497
   1407568.816 9   1100406.01547  21546249.426    21546250.3744   21546258.2174
     -1351.713       -1053.283
   4863932.468 9   3800339.22946  23856196.027    23856197.9454   23856206.9994
     -1738.969       -1355.041
 -18026469.805 9 -14014899.14347  21072692.906    21072694.4244   21072702.9414
      3968.525        3092.357
 -28518914.891 9 -22199984.43048  19675175.796    19675177.5614   19675184.2914
      2371.860        1848.203
 -28296208.102 9 -22016792.27648  20169984.484    20169985.7354   20169992.3674
      1945.914        1516.297
  -3820916.354 9  -2966190.46448  20243398.892    20243399.7794   20243406.5104
     -1151.031        -896.907
 -13381391.264 9 -10408215.75246  22398716.832    22398718.1054   22398726.1654
      3604.759        2808.903
  -2421635.509 9  -1869004.34946  23918047.283    23918048.0014   23918057.2084
      2474.852        1928.456
 97  5 22 17 55 59.9950000  0  8  2 26 24  4  9  7  5 16            -0.004023697
   1448234.906 9   1132093.82747  21553987.992    21553988.8814   21553996.7844
     -1358.615       -1058.661
   4916102.334 8   3840990.93946  23866123.523    23866125.3964   23866134.6514
     -1738.266       -1354.493
 -18145369.795 9 -14107548.43047  21050067.032    21050068.4584   21050076.9604
      3959.232        3085.116
 -28589794.771 9 -22255215.47548  19661687.703    19661689.5514   19661696.2944
      2354.428        1834.619
 -28354309.532 9 -22062066.11748  20158928.100    20158929.4184   20158936.0554
      1928.590        1502.797
  -3786302.257 9  -2939218.44848  20249985.701    20249986.6404   20249993.3424
     -1155.470        -900.366
 -13489510.240 9 -10492464.25446  22378142.324    22378143.6624   22378151.8064
      3604.361        2808.593
  -2495731.501 9  -1926741.47746  23903947.236    23903948.0534   23903957.3974
      2465.912        1921.490
 97  5 22 17 56 29.9950000  0  8  2 26 24  4  9  7  5 16            -0.004038911
   1489126.299 9   1163957.19647  21561769.318    21561770.2764   21561778.2364
     -1366.991       -1065.188
   4968262.213 8   3881634.89846  23876049.015    23876050.9184   23876060.4024
     -1738.039       -1354.316
 -18263997.023 9 -14199985.18647  21027492.883    21027494.3994   21027502.8524
      3949.715        3077.700
 -28660140.135 9 -22310030.01448  19648301.296    19648303.2434   19648310.0104
      2335.702        1820.028
 -28411888.287 9 -22106932.67648  20147971.234    20147972.5554   20147979.1984
      1910.601        1488.780
  -3751559.279 9  -2912146.01148  20256596.962    20256597.9774   20256604.6794
     -1160.419        -904.223
 -13597615.912 9 -10576702.36046  22357570.413    22357571.7284   22357579.8514
      3603.235        2807.716
  -2569567.583 9  -1984276.06246  23889896.866    23889897.5474   23889906.8854
      2457.194        1914.697
 97  5 22 17 56 59.9950000  0  8  2 26 24  4  9  7  5 16            -0.004054119
   1530286.653 9   1196030.15147  21569601.753    21569602.8284   21569610.7984
     -1376.871       -1072.886
   5020408.541 9   3922268.28846  23885972.401    23885974.0864   23885983.5474
     -1737.975       -1354.266
 -18382324.728 9 -14292188.54247  21004975.708    21004977.3384   21004985.7134
      3938.963        3069.322
 -28729900.568 9 -22364388.76148  19635026.351    19635028.2184   19635035.0314
      2315.453        1804.249
 -28468920.033 9 -22151372.99548  20137118.394    20137119.7784   20137126.4294
      1891.880        1474.192
  -3716634.837 9  -2884932.17248  20263242.875    20263243.8554   20263250.5784
     -1167.555        -909.783
 -13705666.603 9 -10660897.64146  22337008.989    22337010.3344   22337018.4774
      3600.496        2805.581
  -2643131.234 9  -2041598.35346  23875898.234    23875898.8504   23875908.2044
      2447.179        1906.893
 97  5 22 17 57 29.9950000  0  8  2 26 24  4  9  7  5 16            -0.004069304
   1571734.961 9   1228327.48647  21577489.090    21577490.1714   21577498.1504
     -1386.421       -1080.328
   5072527.120 9   3962880.22945  23895890.281    23895892.1674   23895901.2544
     -1736.604       -1353.198
 -18500357.302 9 -14384161.91947  20982514.860    20982516.3774   20982524.7214
      3929.689        3062.095
 -28799084.595 9 -22418298.36548  19621861.095    19621862.9384   19621869.7264
      2296.691        1789.629
 -28525416.389 9 -22195396.13548  20126367.488    20126368.8744   20126375.5544
      1874.437        1460.600
  -3681518.648 9  -2857568.92748  20269925.285    20269926.2894   20269932.9774
     -1173.490        -914.408
 -13813661.245 9 -10745049.26146  22316458.137    22316459.5924   22316467.6554
      3599.126        2804.514
  -2716402.033 9  -2098692.44546  23861955.097    23861955.9024   23861965.2734
      2437.160        1899.086
 97  5 22 17 57 59.9950000  0  8  2 26 24  4  9  7  5 16            -0.004084467
   1613477.657 9   1260854.20847  21585432.600    21585433.5974   21585441.6244
     -1395.734       -1087.585
   5124599.534 9   4003456.19245  23905799.663    23905801.4124   23905809.9364
     -1734.169       -1351.301
 -18618099.227 9 -14475908.82047  20960109.257    20960110.7794   20960119.0714
      3920.430        3054.881
 -28867694.454 9 -22471760.56848  19608805.066    19608806.9234   19608813.7134
      2278.036        1775.093
 -28581376.264 9 -22239001.23848  20115718.736    20115720.0934   20115726.7384
      1856.950        1446.974
  -3646227.954 9  -2830069.70048  20276640.908    20276641.9124   20276648.5714
     -1178.451        -918.274
 -13921609.751 9 -10829164.92146  22295916.563    22295917.5934   22295925.5944
      3598.107        2803.720
  -2789342.217 8  -2155528.91546  23848075.068    23848075.7184   23848085.2984
      2426.171        1890.523
 97  5 22 17 58 29.9950000  0  8  2 26 24  4  9  7  5 16            -0.004099617
   1655501.627 9   1293600.10647  21593429.523    21593430.5244   21593438.5914
     -1405.146       -1094.919
   5176588.090 8   4043966.72146  23915692.770    23915694.6064   23915703.2714
     -1731.251       -1349.027
 -18735559.104 9 -14567435.95347  20937757.265    20937758.8574   20937767.1234
      3910.588        3047.211
 -28935751.005 9 -22524791.61948  19595854.316    19595856.1584   19595862.9414
      2259.763        1760.854
 -28636810.046 9 -22282196.39648  20105170.033    20105171.3914   20105178.0124
      1839.079        1433.049
  -3610784.981 9  -2802451.81148  20283385.370    20283386.4794   20283393.1304
     -1184.045        -922.632
 -14029526.185 9 -10913255.59646  22275380.404    22275381.7704   22275389.7634
      3596.865        2802.752
  -2861942.854 9  -2212100.78846  23834259.680    23834260.2144   23834269.7924
      2414.484        1881.416
 97  5 22 17 58 59.9950000  0  8  2 26 24  4  9  7  5 16            -0.004114728
   1697815.366 9   1326571.81347  21601481.652    21601482.5984   21601490.6234
     -1415.129       -1102.698
   5228505.337 8   4084421.59646  23925571.735    23925574.0664   23925583.0394
     -1729.373       -1347.563
 -18852703.693 9 -14658717.39747  20915465.440    20915466.9554   20915475.1984
      3899.711        3038.736
 -29003256.770 9 -22577393.49148  19583008.391    19583010.2404   19583017.0114
      2241.287        1746.457
 -28691692.780 9 -22324962.16648  20094726.191    20094727.5524   20094734.1464
      1820.522        1418.589
  -3575155.754 9  -2774688.79348  20290165.405    20290166.5124   20290173.1494
     -1190.298        -927.505
 -14137393.203 9 -10997307.77446  22254853.907    22254855.3734   22254863.2164
      3594.926        2801.241
  -2934172.993 9  -2268383.98746  23820514.589    23820515.2674   23820524.8974
      2401.477        1871.281
 97  5 22 17 59 29.9950000  0  8  2 26 24  4  9  7  5 16            -0.004129816
   1740398.235 9   1359753.22547  21609584.972    21609585.9464   21609594.0114
     -1423.082       -1108.895
   5280337.872 8   4124810.45746  23935435.403    23935437.4134   23935446.6074
     -1725.772       -1344.757
 -18969562.910 9 -14749776.47947  20893227.856    20893229.3314   20893237.5304
      3891.324        3032.200
 -29070234.612 9 -22629583.98948  19570262.816    19570264.7394   19570271.5294
      2224.183        1733.130
 -28746052.861 9 -22367320.67748  20084381.844    20084383.1744   20084389.7164
      1803.894        1405.632
  -3539383.569 9  -2746814.37448  20296972.665    20296973.7844   20296980.4024
     -1193.997        -930.387
 -14245235.664 9 -11081340.79547  22234332.487    22234333.6714   22234341.5344
      3595.132        2801.401
  -3006045.711 8  -2324388.65046  23806837.448    23806838.3284   23806847.9254
      2390.679        1862.867
 97  5 22 17 59 59.9950000  0  8  2 26 24  4  9  7  5 16            -0.004144912
   1783239.451 9   1393135.94147  21617737.280    21617738.4144   21617746.4714
     -1432.477       -1116.216
   5332099.429 9   4165144.07246  23945285.576    23945287.2204   23945296.6854
     -1724.549       -1343.804
 -19086140.369 9 -14840616.00547  20871043.864    20871045.3354   20871053.5074
      3880.885        3024.066
 -29136661.633 9 -22681345.27548  19557622.116    19557624.0934   19557630.9074
      2204.874        1718.084
 -28799880.253 9 -22409264.10248  20074138.769    20074140.1474   20074146.6554
      1785.072        1390.965
  -3503475.891 9  -2718834.37948  20303805.724    20303806.8474   20303813.4304
     -1199.276        -934.501
 -14353062.596 9 -11165361.72547  22213813.716    22213814.8334   22213822.7254
      3593.906        2800.446
  -3077578.774 8  -2380128.66146  23793225.194    23793226.0674   23793235.6384
      2378.998        1853.765
 97  5 22 18  0 29.9950000  0  8  2 26 24  4  9  7  5 16            -0.004160018
   1826345.729 9   1426725.21247  21625940.267    21625941.3294   21625949.3154
     -1441.569       -1123.301
   5383814.417 9   4205441.40046  23955126.650    23955128.4294   23955137.8474
     -1723.518       -1343.001
 -19202422.361 9 -14931225.29647  20848915.952    20848917.5374   20848925.7074
      3870.682        3016.116
 -29202532.837 9 -22732673.46048  19545087.204    19545089.1764   19545095.9874
      2185.994        1703.372
 -28853158.673 9 -22450779.75648  20064000.265    20064001.6404   20064008.1054
      1766.313        1376.348
  -3467433.396 9  -2690749.32948  20310664.433    20310665.5544   20310672.1484
     -1203.850        -938.065
 -14460882.760 9 -11249377.37646  22193295.901    22193297.2814   22193305.2754
      3593.777        2800.346
  -3148803.237 8  -2435628.18746  23779671.550    23779672.6414   23779682.1294
      2368.913        1845.906
 97  5 22 18  0 59.9950000  0  8  2 26 24  4  9  7  5 16            -0.004175138
   1869730.493 9   1460531.47247  21634196.229    21634197.2564   21634205.2604
     -1450.579       -1130.321
   5435517.662 9   4245729.62845  23964965.567    23964967.3404   23964976.7474
     -1723.023       -1342.615
 -19318388.587 9 -15021588.54447  20826848.154    20826849.8604   20826857.9654
      3860.376        3008.085
 -29267820.135 9 -22783546.65548  19532663.494    19532665.3914   19532672.2264
      2166.618        1688.274
 -28905863.271 9 -22491848.27748  20053970.990    20053972.3264   20053978.7414
      1747.606        1361.771
  -3431256.597 9  -2662559.62448  20317548.763    20317549.7904   20317556.3804
     -1207.724        -941.084
 -14568694.540 9 -11333386.50546  22172780.403    22172781.3364   22172789.2914
      3593.686        2800.275
  -3219720.324 8  -2490888.22746  23766176.575    23766177.5964   23766187.0714
      2358.874        1838.084
 97  5 22 18  1 29.9950000  0  8  2 26 24  4  9  7  5 16            -0.004190298
   1913350.887 9   1494521.34047  21642497.048    21642497.9944   21642505.9764
     -1457.767       -1135.922
   5487179.781 9   4285985.78845  23974796.650    23974798.5274   23974807.7544
     -1721.488       -1341.419
 -19434063.566 9 -15111724.84447  20804835.984    20804837.6194   20804845.6854
      3850.638        3000.497
 -29332546.419 9 -22833982.70148  19520346.466    19520348.3804   19520355.2144
      2148.000        1673.766
 -28958031.525 9 -22532498.86848  20044043.734    20044045.0384   20044051.4514
      1729.715        1347.830
  -3394983.402 9  -2634294.80848  20324451.315    20324452.3724   20324458.9854
     -1211.146        -943.750
 -14676523.193 9 -11417408.76947  22152261.178    22152262.1724   22152270.1054
      3594.410        2800.839
  -3290350.112 9  -2545924.41546  23752735.913    23752737.2274   23752746.6494
      2349.303        1830.626
 97  5 22 18  1 59.9950000  0  8  2 26 24  4  9  7  5 16            -0.004205479
   1957217.301 9   1528702.93147  21650844.577    21650845.5104   21650853.4524
     -1466.558       -1142.772
   5538832.914 8   4326234.97445  23984626.089    23984627.8964   23984636.9834
     -1721.720       -1341.600
 -19549402.604 9 -15201599.36347  20782887.671    20782889.2974   20782897.3404
      3838.594        2991.112
 -29396682.751 9 -22883959.04148  19508141.731    19508143.6174   19508150.4444
      2127.977        1658.164
 -29009620.310 9 -22572697.92048  20034226.675    20034227.9824   20034234.4104
      1709.806        1332.316
  -3358566.863 9  -2605918.29948  20331381.196    20331382.1834   20331388.8294
     -1216.470        -947.899
 -14784326.287 9 -11501411.12247  22131746.632    22131747.8524   22131755.7894
      3592.412        2799.282
  -3360652.899 9  -2600705.76246  23739357.779    23739358.9644   23739368.4774
      2337.735        1821.612
 97  5 22 18  2 29.9950000  0  8  2 26 24  4  9  7  5 16            -0.004220661
   2001322.227 9   1563070.35347  21659237.387    21659238.4444   21659246.4544
     -1473.532       -1148.207
   5590460.776 8   4366464.42045  23994450.526    23994452.3444   23994461.3904
     -1719.772       -1340.082
 -19664402.115 9 -15291209.32347  20761004.059    20761005.5814   20761013.6044
      3828.136        2982.963
 -29460242.361 9 -22933485.99248  19496046.749    19496048.6274   19496055.3884
      2109.415        1643.700
 -29060644.192 9 -22612456.78848  20024517.140    20024518.4714   20024524.8864
      1691.946        1318.399
  -3322005.724 9  -2577429.11348  20338338.629    20338339.5484   20338346.2564
     -1220.869        -951.326
 -14892080.391 9 -11585375.30846  22111241.663    22111242.8884   22111250.7644
      3591.227        2798.359
  -3430630.008 9  -2655233.35146  23726041.740    23726042.6464   23726052.2094
      2327.425        1813.578
 97  5 22 18  2 59.9950000  0  8  2 26 24  4  9  7  5 16            -0.004235842
   2045646.763 9   1597608.90447  21667672.194    21667673.1744   21667681.1344
     -1481.582       -1154.479
   5642029.332 8   4406647.61645  24004263.528    24004265.4134   24004274.6584
     -1717.860       -1338.592
 -19779070.926 9 -15380561.59947  20739183.224    20739184.8134   20739192.8004
      3816.353        2973.782
 -29523228.953 9 -22982566.43348  19484060.820    19484062.6634   19484069.4114
      2089.783        1628.402
 -29111128.863 9 -22651795.49548  20014910.221    20014911.5534   20014917.9814
      1673.807        1304.265
  -3285289.647 9  -2548819.19948  20345325.532    20345326.3924   20345333.1484
     -1227.003        -956.106
 -14999773.263 9 -11669291.77947  22090748.557    22090749.5964   22090757.4874
      3588.225        2796.019
  -3500272.675 8  -2709500.34646  23712788.906    23712789.8984   23712799.6424
      2315.484        1804.273
 97  5 22 18  3 29.9950000  0  8  2 26 24  4  9  7  5 16            -0.004251000
   2090209.168 9   1632332.82047  21676152.208    21676153.1574   21676161.1224
     -1489.208       -1160.422
   5693503.900 8   4446757.61745  24014058.972    24014060.6504   24014069.8734
     -1713.551       -1335.235
 -19893411.508 9 -15469658.10247  20717424.830    20717426.5094   20717434.4534
      3806.463        2966.075
 -29585642.388 9 -23031200.26648  19472183.875    19472185.7784   19472192.4774
      2071.260        1613.969
 -29161090.214 9 -22690726.42048  20005402.815    20005404.1854   20005410.6244
      1656.995        1291.165
  -3248398.147 9  -2520072.59048  20352345.654    20352346.5934   20352353.4084
     -1232.032        -960.025
 -15107384.368 9 -11753144.55047  22070270.908    22070271.9054   22070279.7554
      3586.220        2794.457
  -3569577.328 8  -2763503.95646  23699600.264    23699601.6054   23699611.4414
      2305.200        1796.260
 97  5 22 18  3 59.9950000  0  8  2 26 24  4  9  7  5 16            -0.004266140
   2135025.670 9   1667254.72647  21684680.496    21684681.5184   21684689.4954
     -1498.162       -1167.399
   5744846.520 8   4486764.81145  24023829.355    24023830.9164   24023839.8694
     -1709.062       -1331.737
 -20007455.416 9 -15558523.43547  20695723.163    20695724.6664   20695732.5694
      3796.524        2958.330
 -29647496.543 9 -23079398.29548  19460413.369    19460415.2914   19460421.9694
      2052.717        1599.520
 -29210535.484 9 -22729255.19948  19995993.738    19995995.0774   19996001.5014
      1639.705        1277.692
  -3211362.959 9  -2491214.01948  20359393.300    20359394.1734   20359400.9954
     -1236.658        -963.630
 -15214932.436 9 -11836948.19347  22049805.112    22049806.1404   22049813.9454
      3584.007        2792.733
  -3638584.501 8  -2817275.77546  23686468.427    23686470.0544   23686479.7184
      2295.365        1788.596
 97  5 22 18  4 29.9950000  0  8  2 26 24  4  9  7  5 16            -0.004281244
   2180125.086 9   1702397.08747  21693262.827    21693263.7024   21693271.6814
     -1507.887       -1174.977
   5796063.963 8   4526674.46045  24033575.723    24033577.2844   24033586.2984
     -1704.887       -1328.483
 -20121182.514 9 -15647141.90948  20674081.643    20674083.1384   20674090.9934
      3785.683        2949.883
 -29708784.525 9 -23127155.15048  19448750.688    19448752.5674   19448759.2404
      2033.638        1584.653
 -29259451.293 9 -22767371.41348  19986685.290    19986686.6854   19986693.1194
      1621.710        1263.670
  -3174174.000 9  -2462235.62548  20366470.078    20366471.0034   20366477.8544
     -1242.048        -967.830
 -15322414.066 9 -11920700.04947  22029351.758    22029353.0284   22029360.8164
      3581.991        2791.162
  -3707284.751 8  -2870808.41946  23673394.952    23673396.8594   23673406.5314
      2284.949        1780.480
 97  5 22 18  4 59.9950000  0  8  2 26 24  4  9  7  5 16            -0.004296319
   2225512.846 9   1737764.14547  21701899.830    21701900.7934   21701908.7034
     -1518.356       -1183.135
   5847147.780 8   4566479.98145  24043296.365    24043298.2064   24043307.2014
     -1701.267       -1325.663
 -20234587.820 9 -15735509.63648  20652501.337    20652502.7934   20652510.5894
      3774.183        2940.922
 -29769507.873 9 -23174472.02848  19437195.339    19437197.2984   19437203.9634
      2014.196        1569.503
 -29307828.101 9 -22805067.62648  19977479.436    19977480.8624   19977487.3054
      1602.976        1249.072
  -3136838.007 9  -2433142.65848  20373574.809    20373575.7864   20373582.6514
     -1247.378        -971.983
 -15429847.171 9 -12004414.11247  22008907.961    22008909.1364   22008916.8544
      3579.820        2789.470
  -3775666.691 8  -2924093.01946  23660382.847    23660384.2654   23660393.8564
      2273.490        1771.551
 97  5 22 18  5 29.9950000  0  8  2 26 24  4  9  7  5 16            -0.004311370
   2271198.962 9   1773363.65847  21710593.564    21710594.6184   21710602.5904
     -1527.318       -1190.118
   5898121.601 8   4606199.77445  24052996.600    24052998.1834   24053007.6104
     -1697.324       -1322.590
 -20347667.730 9 -15823623.81348  20630982.911    20630984.3864   20630992.1424
      3764.146        2933.101
 -29829658.878 9 -23221342.92948  19425748.942    19425750.9294   19425757.6094
      1995.674        1555.071
 -29355641.249 9 -22842324.62548  19968380.902    19968382.3304   19968388.7494
      1584.308        1234.526
  -3099356.622 9  -2403936.40548  20380707.260    20380708.2714   20380715.1404
     -1251.419        -975.132
 -15537231.136 9 -12088089.87647  21988473.329    21988474.5574   21988482.3204
      3579.107        2788.915
  -3843719.827 8  -2977121.43046  23647432.386    23647434.2274   23647443.7054
      2263.264        1763.582
 97  5 22 18  5 59.9950000  0  8  2 26 24  4  9  7  5 16            -0.004326424
   2317154.059 9   1809172.77547  21719338.418    21719339.6044   21719347.6154
     -1536.375       -1197.175
   5949009.052 8   4645852.29745  24062680.505    24062682.1664   24062691.3114
     -1695.461       -1321.138
 -20460419.020 9 -15911481.92148  20609526.966    20609528.5534   20609536.2714
      3752.217        2923.805
 -29889238.084 9 -23267768.27548  19414411.449    19414413.3754   19414420.0704
      1976.105        1539.822
 -29402877.729 9 -22879132.27048  19959392.142    19959393.5644   19959399.9314
      1564.749        1219.285
  -3061738.540 9  -2374623.63348  20387865.742    20387866.7884   20387873.6424
     -1256.769        -979.301
 -15644585.326 9 -12171742.43847  21968044.330    21968045.7564   21968053.4294
      3577.583        2787.727
  -3911437.578 8  -3029888.49846  23634546.338    23634547.9554   23634557.4154
      2250.898        1753.946
 97  5 22 18  6 29.9950000  0  8  2 26 24  4  9  7  5 16            -0.004341492
   2363341.946 9   1845163.29447  21728127.603    21728128.8664   21728136.8274
     -1543.684       -1202.871
   5999811.020 8   4685438.19145  24072347.483    24072349.3214   24072358.4244
     -1692.048       -1318.479
 -20572838.644 9 -15999081.58548  20588134.200    20588135.8194   20588143.4944
      3741.700        2915.610
 -29948257.546 9 -23313757.45548  19403180.460    19403182.3474   19403189.0744
      1957.658        1525.448
 -29449564.964 9 -22915511.93348  19950507.883    19950509.3074   19950515.6624
      1547.038        1205.484
  -3023993.612 9  -2345212.02548  20395048.410    20395049.3974   20395056.2414
     -1260.272        -982.030
 -15751926.196 9 -12255384.62847  21947618.024    21947619.4834   21947627.1104
      3577.688        2787.809
  -3978803.353 8  -3082381.28046  23621727.014    23621728.5724   23621738.0674
      2239.415        1744.999
 97  5 22 18  6 59.9950000  0  8  2 26 24  4  9  7  5 16            -0.004356584
   2409762.880 9   1881335.39647  21736961.345    21736962.4814   21736970.5134
     -1551.278       -1208.788
   6050523.501 8   4724954.32845  24081998.229    24081999.5394   24082008.9824
     -1689.020       -1316.119
 -20684934.446 9 -16086428.91948  20566802.950    20566804.6684   20566812.3294
      3731.083        2907.337
 -30006707.933 9 -23359303.19448  19392057.722    19392059.5974   19392066.3354
      1938.801        1510.754
 -29495713.048 9 -22951471.47348  19941726.256    19941727.6054   19941733.9474
      1529.302        1191.664
  -2986141.751 9  -2315717.08548  20402251.464    20402252.3644   20402259.1824
     -1263.472        -984.524
 -15859255.060 9 -12339017.47247  21927194.091    21927195.4504   21927203.1234
      3577.285        2787.495
  -4045807.626 8  -3134592.36346  23608976.402    23608977.7994   23608987.5394
      2227.381        1735.622
 97  5 22 18  7 29.9950000  0  8  2 26 24  4  9  7  5 16            -0.004371697
   2456419.175 9   1917690.91547  21745839.769    21745840.9204   21745848.9244
     -1559.501       -1215.196
   6101155.601 7   4764407.82655  24091633.301    24091634.0264          0.0005
     -1686.650       -1314.273
 -20796704.626 9 -16173522.53148  20545533.830    20545535.4714   20545543.1134
      3719.630        2898.413
 -30064579.973 9 -23404398.28048  19381045.045    19381046.9234   19381053.6414
      1918.926        1495.267
 -29541322.928 9 -22987011.63548  19933046.962    19933048.3184   19933054.7034
      1511.066        1177.454
  -2948184.876 9  -2286140.31848  20409474.375    20409475.2784   20409482.1294
     -1267.351        -987.546
 -15966562.588 9 -12422633.68147  21906774.160    21906775.4554   21906783.1434
      3576.203        2786.652
  -4112449.222 8  -3186520.81446  23596295.434    23596296.3194   23596305.8584
      2214.952        1725.937
 97  5 22 18  7 59.9950000  0  8  2 26 24  4  9  7  5 16            -0.004386817
   2503326.824 9   1954242.27247  21754766.013    21754767.1814   21754775.2574
     -1567.808       -1221.668
   6151708.648 7   4803799.78555  24101253.050    24101254.5454          0.0005
     -1683.397       -1311.738
 -20908117.777 9 -16260337.93548  20524332.576    20524334.2334   20524341.9054
      3707.670        2889.093
 -30121853.935 9 -23449027.33248  19370146.123    19370148.0614   19370154.7774
      1899.127        1479.839
 -29586391.306 9 -23022129.85048  19924470.729    19924472.1174   19924478.5094
      1493.362        1163.659
  -2910116.370 9  -2256476.57048  20416718.490    20416719.4564   20416726.3114
     -1270.835        -990.261
 -16073830.253 9 -12506218.82547  21886361.703    21886362.9734   21886370.7794
      3574.723        2785.498
  -4178704.746 8  -3238148.44446  23583687.199    23583688.3514   23583697.8264
      2202.041        1715.876
 97  5 22 18  8 29.9950000  0  8  2 26 24  4  9  7  5 16            -0.004401933
   2550495.856 9   1990997.30547  21763741.950    21763743.1754   21763751.2384
     -1576.698       -1228.596
   6202174.950 7   4843124.15155  24110856.348    24110858.0414          0.0005
     -1680.606       -1309.563
 -21019163.501 9 -16346867.03648  20503201.493    20503202.9714   20503210.6354
      3695.400        2879.532
 -30178512.497 9 -23493176.85048  19359364.400    19359366.2924   19359372.9994
      1878.105        1463.458
 -29630906.255 9 -23056816.82348  19915999.787    19916001.2124   19916007.6164
      1474.325        1148.825
  -2871924.502 9  -2226716.69948  20423986.122    20423987.1674   20423994.0314
     -1275.264        -993.712
 -16181032.910 9 -12589753.31847  21865961.654    21865962.9624   21865970.7354
      3572.331        2783.635
  -4244574.838 8  -3289475.73146  23571153.062    23571153.6574   23571163.2414
      2189.441        1706.058
 97  5 22 18  8 59.9950000  0  8  2 26 24  4  9  7  5 16            -0.004417053
   2597939.945 9   2027966.66747  21772770.441    21772771.5184   21772779.5964
     -1585.886       -1235.755
   6252562.71117   4882387.27554  24120444.816    24120446.1055          0.0005
     -1678.274       -1307.746
 -21129831.896 9 -16433102.11048  20482142.066    20482143.4834   20482151.1264
      3682.644        2869.593
 -30234526.372 9 -23536824.01448  19348705.373    19348707.2044   19348713.9314
      1856.448        1446.583
 -29674831.814 9 -23091044.52748  19907641.109    19907642.4644   19907648.8704
      1454.136        1133.093
  -2833581.867 9  -2196839.34548  20431282.519    20431283.5904   20431290.4474
     -1280.793        -998.021
 -16288156.432 9 -12673226.14947  21845576.742    21845577.9684   21845585.7554
      3569.506        2781.433
  -4310064.040 8  -3340506.19946  23558690.700    23558691.5334   23558700.9734
      2176.708        1696.136
 97  5 22 18  9 29.9950000  0  7  2 24  4  9  7  5 16               -0.004432201
   2645629.186 9   2065127.05647  21781845.346    21781846.4604   21781854.6114
     -1593.978       -1242.061
 -21240140.115 9 -16519056.53048  20461151.025    20461152.4994   20461160.1724
      3670.574        2860.188
 -30289911.729 9 -23579981.42248  19338165.816    19338167.6874   19338174.4244
      1835.472        1430.238
 -29718172.782 9 -23124816.70548  19899393.627    19899394.9704   19899401.3744
      1434.714        1117.959
  -2795088.868 9  -2166844.82548  20438607.571    20438608.6094   20438615.4584
     -1285.942       -1002.033
 -16395221.366 9 -12756653.33147  21825202.942    21825204.1754   21825211.9664
      3567.621        2779.964
  -4375199.990 8  -3391261.42146  23546295.818    23546296.6244   23546305.9614
      2165.001        1687.014
 97  5 22 18  9 59.9950000  0  7  2 24  4  9  7  5 16               -0.004447363
   2693580.237 9   2102491.45347  21790970.012    21790971.2424   21790979.4564
     -1604.560       -1250.306
 -21350074.337 9 -16604719.52448  20440231.123    20440232.6784   20440240.4004
      3656.422        2849.160
 -30344659.927 9 -23622642.34448  19327747.515    19327749.4284   19327756.1584
      1812.669        1412.469
 -29760911.733 9 -23158119.78248  19891260.665    19891262.0224   19891268.4524
      1412.689        1100.797
  -2756431.905 9  -2136722.53848  20445963.740    20445964.7964   20445971.6514
     -1293.053       -1007.574
 -16502211.240 9 -12840022.02247  21804843.748    21804844.6744   21804852.4264
      3563.190        2776.512
  -4439966.620 8  -3441728.83546  23533971.460    23533971.7844   23533981.2514
      2150.960        1676.073
 97  5 22 18 10 29.9950000  0  7  2 24  4  9  7  5 16               -0.004462531
   2741808.482 9   2140071.83147  21800147.433    21800148.8304   21800157.0784
     -1611.621       -1255.809
 -21459636.622 9 -16690092.70148  20419381.991    20419383.6024   20419391.3534
      3646.614        2841.517
 -30398778.005 9 -23664812.26148  19317449.127    19317451.0554   19317457.7934
      1794.401        1398.235
 -29803034.481 9 -23190942.70348  19883244.921    19883246.3284   19883252.8144
      1394.647        1086.738
  -2717607.815 9  -2106470.02448  20453351.740    20453352.7604   20453359.6644
     -1295.995       -1009.866
 -16609120.677 9 -12923328.03447  21784499.170    21784500.4404   21784508.1414
      3563.196        2776.516
  -4504369.957 8  -3491913.18946  23521715.101    23521716.2234   23521725.6874
      2141.334        1668.572
 97  5 22 18 10 59.9950000  0  7  2 24  4  9  7  5 16               -0.004477706
   2790282.448 9   2177843.69747  21809371.833    21809373.1804   21809381.4744
     -1619.739       -1262.134
 -21568873.768 9 -16775212.51648  20398594.759    20398596.4524   20398604.2214
      3635.671        2832.990
 -30452341.310 9 -23706549.89148  19307256.391    19307258.2754   19307265.0024
      1776.586        1384.353
 -29844597.249 9 -23223329.27148  19875335.844    19875337.2114   19875343.7324
      1376.224        1072.382
  -2678681.164 9  -2076137.58948  20460759.202    20460760.2574   20460767.1814
     -1299.075       -1012.266
 -16716001.110 9 -13006611.44047  21764160.462    21764161.7104   21764169.4344
      3562.042        2775.617
  -4568440.962 8  -3541838.58646  23509522.778    23509523.8974   23509533.3034
      2129.929        1659.685
 97  5 22 18 11 29.9950000  0  7  2 24  4  9  7  5 16               -0.004492844
   2839018.228 9   2215819.57947  21818646.093    21818647.3274   21818655.6154
     -1630.086       -1270.197
 -21677752.737 9 -16860053.24248  20377875.728    20377877.4474   20377885.2034
      3622.119        2822.430
 -30505356.716 9 -23747860.58248  19297167.838    19297169.7664   19297176.4854
      1757.153        1369.210
 -29885594.839 9 -23255275.44148  19867534.183    19867535.5944   19867542.1614
      1356.377        1056.917
  -2639643.114 9  -2045718.35248  20468187.741    20468188.9294   20468195.8674
     -1304.014       -1016.115
 -16822814.449 9 -13089842.56047  21743834.530    21743835.7904   21743843.4964
      3558.168        2772.598
  -4632143.066 8  -3591476.50646  23497400.517    23497401.7554   23497411.1224
      2116.173        1648.966
 97  5 22 18 11 59.9950000  0  7  2 24  4  9  7  5 16               -0.004507922
   2888029.791 9   2254010.33447  21827972.681    21827973.9224   21827982.3504
     -1636.791       -1275.422
 -21786269.043 9 -16944611.37448  20357225.763    20357227.4884   20357235.2314
      3612.513        2814.945
 -30557837.745 9 -23788754.88048  19287180.970    19287182.9514   19287189.6744
      1741.821        1357.263
 -29926035.286 9 -23286787.47948  19859838.578    19859840.0154   19859846.6244
      1340.114        1044.245
  -2600502.213 9  -2015218.97648  20475636.088    20475637.2104   20475644.1294
     -1304.972       -1016.861
 -16929551.124 9 -13173013.95847  21723523.397    21723524.4394   21723532.0624
      3558.252        2772.664
  -4695466.201 8  -3640819.14146  23485350.206    23485351.6524   23485361.0954
      2105.908        1640.967
 97  5 22 18 12 29.9950000  0  7  2 24  4  9  7  5 16               -0.004522960
   2937303.530 9   2292405.37947  21837349.094    21837350.4304   21837358.9034
     -1647.254       -1283.575
 -21894425.561 9 -17028889.14448  20336644.270    20336645.9354   20336653.7124
      3598.640        2804.135
 -30609784.995 9 -23829233.24248  19277295.770    19277297.7294   19277304.4254
      1722.042        1341.851
 -29965923.703 9 -23317869.35748  19852248.102    19852249.5484   19852256.1224
      1320.047        1028.608
  -2561259.130 9  -1984639.96848  20483103.916    20483104.9684   20483111.8334
     -1310.396       -1021.088
 -17036232.365 9 -13256142.14947  21703222.595    21703223.6124   21703231.2114
      3554.648        2769.856
  -4758410.165 8  -3689866.29246  23473372.490    23473373.7114   23473383.1864
      2091.119        1629.443
 97  5 22 18 12 59.9950000  0  7  2 24  4  9  7  5 16               -0.004537944
   2986866.643 9   2331025.92147  21846780.679    21846782.0614   21846790.5234
     -1656.587       -1290.847
 -22002178.170 9 -17112852.18548  20316139.505    20316141.2484   20316149.0894
      3585.101        2793.585
 -30661147.569 9 -23869256.01348  19267521.765    19267523.7634   19267530.4514
      1702.231        1326.414
 -30005234.361 9 -23348501.04148  19844767.523    19844768.9554   19844775.5184
      1300.944        1013.723
  -2521868.200 9  -1953945.76148  20490599.831    20490600.8384   20490607.7074
     -1315.377       -1024.969
 -17142824.242 9 -13339200.71547  21682938.643    21682939.8494   21682947.3934
      3551.853        2767.678
  -4820924.011 8  -3738578.29146  23461476.268    23461477.6634   23461487.1314
      2076.994        1618.437
 97  5 22 18 13 29.9950000  0  7  2 24  4  9  7  5 16               -0.004552903
   3036701.283 9   2369858.03947  21856263.922    21856265.2774   21856273.7404
     -1665.875       -1298.084
 -22109536.939 9 -17196508.33748  20295709.856    20295711.5444   20295719.3964
      3572.059        2783.423
 -30711911.299 9 -23908812.15148  19257861.781    19257863.7574   19257870.4334
      1681.867        1310.546
 -30043985.799 9 -23378696.96648  19837393.353    19837394.7754   19837401.3644
      1282.414         999.284
  -2482336.498 9  -1923141.85948  20498122.492    20498123.5154   20498130.3764
     -1320.118       -1028.663
 -17249346.293 9 -13422204.86447  21662668.047    21662669.3384   21662676.8744
      3549.715        2766.012
  -4883035.843 8  -3786977.05046  23449656.518    23449658.1384   23449667.6774
      2063.917        1608.247
